[[{"header":{"parameterUnit":"m.s-1","parameterCategory":1,"la1":31.0,"la2":29.5877,"lo1":-88.7671,"lo2":-86.6584,"dy":0.0162,"dx":0.0185,"nx":115,"ny":88,"refTime":"2023-09-24T12:00:00:Z","depth":0,"parameterNumber":2,"parameterNumberName":"U-component_of_WINDS"},"data":[0.0,0.0,0.0,0.0,0.0,0.0,0.0,0.0,0.0,0.0,0.0,0.0,0.0,0.0,0.0,0.0,0.0,0.0,0.0,0.0,0.0,0.0,0.0,0.0,0.0,0.0,0.0,0.0,0.0,0.0,0.0,0.0,0.0,0.0,0.0,0.0,0.0,0.0,0.0,0.0,0.0,0.0,0.0,0.0,0.0,0.0,0.0,0.0,0.0,0.0,0.0,0.0,0.0,0.0,0.0,0.0,0.0,0.0,0.0,0.0,0.0,0.0,0.0,0.0,0.0,0.0,0.0,0.0,0.0,0.0,0.0,0.0,0.0,0.0,0.0,0.0,0.0,0.0,0.0,0.0,0.0,0.0,0.0,0.0,0.0,0.0,0.0,0.0,0.0,0.0,0.0,0.0,0.0,0.0,0.0,0.0,0.0,0.0,0.0,0.0,0.0,0.0,0.0,0.0,0.0,0.0,0.0,0.0,0.0,0.0,0.0,0.0,0.0,0.0,0.0,0.0,0.0,0.0,0.0,0.0,0.0,0.0,0.0,0.0,0.0,0.0,0.0,0.0,0.0,0.0,0.0,0.0,0.0,0.0,0.0,0.0,0.0,0.0,0.0,0.0,0.0,0.0,0.0,0.0,0.0,0.0,0.0,0.0,0.0,0.0,0.0,0.0,0.0,0.0,0.0,0.0,0.0,0.0,0.0,0.0,0.0,0.0,0.0,0.0,0.0,0.0,0.0,0.0,0.0,0.0,0.0,0.0,0.0,0.0,0.0,0.0,0.0,0.0,0.0,0.0,0.0,0.0,0.0,0.0,0.0,0.0,0.0,0.0,0.0,0.0,0.0,0.0,0.0,0.0,0.0,0.0,0.0,0.0,0.0,0.0,0.0,0.0,0.0,0.0,0.0,0.0,0.0,0.0,0.0,0.0,0.0,0.0,0.0,0.0,0.0,0.0,0.0,0.0,0.0,0.0,0.0,0.0,0.0,0.0,0.0,0.0,0.0,0.0,0.0,0.0,0.0,0.0,0.0,0.0,0.0,0.0,0.0,0.0,0.0,0.0,0.0,0.0,0.0,0.0,0.0,0.0,0.0,0.0,0.0,0.0,0.0,0.0,0.0,0.0,0.0,0.0,0.0,0.0,0.0,0.0,0.0,0.0,0.0,0.0,0.0,0.0,0.0,0.0,0.0,0.0,0.0,0.0,0.0,0.0,0.0,0.0,0.0,0.0,0.0,0.0,0.0,0.0,0.0,0.0,0.0,0.0,0.0,0.0,0.0,0.0,0.0,0.0,0.0,0.0,0.0,0.0,0.0,0.0,0.0,0.0,0.0,0.0,0.0,0.0,0.0,0.0,0.0,0.0,0.0,0.0,0.0,0.0,0.0,0.0,0.0,0.0,0.0,0.0,0.0,0.0,0.0,0.0,0.0,0.0,0.0,0.0,0.0,0.0,0.0,0.0,0.0,0.0,0.0,0.0,0.0,0.0,0.0,0.0,0.0,0.0,0.0,0.0,0.0,0.0,0.0,0.0,0.0,0.0,0.0,0.0,0.0,0.0,0.0,0.0,0.0,0.0,0.0,0.0,0.0,0.0,0.0,0.0,0.0,0.0,0.0,0.0,0.0,0.0,0.0,0.0,0.0,0.0,0.0,0.0,0.0,0.0,0.0,0.0,0.0,0.0,0.0,0.0,0.0,0.0,0.0,0.0,0.0,0.0,0.0,0.0,0.0,0.0,0.0,0.0,0.0,0.0,0.0,0.0,0.0,0.0,0.0,0.0,0.0,0.0,0.0,0.0,0.0,0.0,0.0,0.0,0.0,0.0,0.0,0.0,0.0,0.0,0.0,0.0,0.0,0.0,0.0,0.0,0.0,0.0,0.0,0.0,0.0,0.0,0.0,0.0,0.0,0.0,0.0,0.0,0.0,0.0,0.0,0.0,0.0,0.0,0.0,0.0,0.0,0.0,0.0,0.0,0.0,0.0,0.0,0.0,0.0,0.0,0.0,0.0,0.0,0.0,0.0,0.0,0.0,0.0,0.0,0.0,0.0,0.0,0.0,0.0,0.0,0.0,0.0,0.0,0.0,0.0,0.0,0.0,0.0,0.0,0.0,0.0,0.0,0.0,0.0,0.0,0.0,0.0,0.0,0.0,0.0,0.0,0.0,0.0,0.0,0.0,0.0,0.0,0.0,0.0,0.0,0.0,0.0,0.0,0.0,0.0,0.0,0.0,0.0,0.0,0.0,0.0,0.0,0.0,0.0,0.0,0.0,0.0,0.0,0.0,0.0,0.0,0.0,0.0,0.0,0.0,0.0,0.0,0.0,0.0,0.0,0.0,0.0,0.0,0.0,0.0,0.0,0.0,0.0,0.0,0.0,0.0,0.0,0.0,0.0,0.0,0.0,0.0,0.0,0.0,0.0,0.0,0.0,0.0,0.0,0.0,0.0,0.0,0.0,0.0,0.0,0.0,0.0,0.0,0.0,0.0,0.0,0.0,0.0,0.0,0.0,0.0,0.0,0.0,0.0,0.0,0.0,0.0,0.0,0.0,0.0,0.0,0.0,0.0,0.0,0.0,0.0,0.0,0.0,0.0,0.0,0.0,0.0,0.0,0.0,0.0,0.0,0.0,0.0,0.0,0.0,0.0,0.0,0.0,0.0,0.0,0.0,0.0,0.0,0.0,0.0,0.0,0.0,0.0,0.0,0.0,0.0,0.0,0.0,0.0,0.0,0.0,0.0,0.0,0.0,0.0,0.0,0.0,0.0,0.0,0.0,0.0,0.0,0.0,0.0,0.0,0.0,0.0,0.0,0.0,0.0,0.0,0.0,0.0,0.0,0.0,0.0,0.0,0.0,0.0,0.0,0.0,0.0,0.0,0.0,0.0,0.0,0.0,0.0,0.0,0.0,0.0,0.0,0.0,0.0,0.0,0.0,0.0,0.0,0.0,0.0,0.0,0.0,0.0,0.0,0.0,0.0,0.0,0.0,0.0,0.0,0.0,0.0,0.0,0.0,0.0,0.0,0.0,0.0,0.0,0.0,0.0,0.0,0.0,0.0,0.0,0.0,0.0,0.0,0.0,0.0,0.0,0.0,0.0,0.0,0.0,0.0,0.0,0.0,0.0,0.0,0.0,0.0,0.0,0.0,0.0,0.0,0.0,0.0,0.0,0.0,0.0,0.0,0.0,0.0,0.0,0.0,0.0,0.0,0.0,0.0,0.0,0.0,0.0,0.0,0.0,0.0,0.0,0.0,0.0,0.0,0.0,0.0,0.0,0.0,0.0,0.0,0.0,0.0,0.0,0.0,0.0,0.0,0.0,0.0,0.0,0.0,0.0,0.0,0.0,0.0,0.0,0.0,0.0,0.0,0.0,0.0,0.0,0.0,0.0,0.0,0.0,0.0,0.0,0.0,0.0,0.0,0.0,0.0,0.0,0.0,0.0,0.0,0.0,0.0,0.0,0.0,0.0,0.0,0.0,0.0,0.0,0.0,0.0,0.0,0.0,0.0,0.0,0.0,0.0,0.0,0.0,0.0,0.0,0.0,0.0,0.0,0.0,0.0,0.0,0.0,0.0,0.0,0.0,0.0,0.0,0.0,0.0,0.0,0.0,0.0,0.0,0.0,0.0,0.0,0.0,0.0,0.0,0.0,0.0,0.0,0.0,0.0,0.0,0.0,0.0,0.0,0.0,0.0,0.0,0.0,0.0,0.0,0.0,0.0,0.0,0.0,0.0,0.0,0.0,0.0,0.0,0.0,0.0,0.0,0.0,0.0,0.0,0.0,0.0,0.0,0.0,0.0,0.0,0.0,0.0,0.0,0.0,0.0,0.0,0.0,0.0,0.0,0.0,0.0,0.0,0.0,0.0,0.0,0.0,0.0,0.0,0.0,0.0,0.0,0.0,0.0,0.0,0.0,0.0,0.0,0.0,0.0,0.0,0.0,0.0,0.0,0.0,0.0,0.0,0.0,0.0,0.0,0.0,0.0,0.0,0.0,0.0,0.0,0.0,0.0,0.0,0.0,0.0,0.0,0.0,0.0,0.0,0.0,0.0,0.0,0.0,0.0,0.0,0.0,0.0,0.0,0.0,0.0,0.0,0.0,0.0,0.0,0.0,0.0,0.0,0.0,0.0,0.0,0.0,0.0,0.0,0.0,0.0,0.0,0.0,0.0,0.0,0.0,0.0,0.0,0.0,0.0,0.0,0.0,0.0,0.0,0.0,0.0,0.0,0.0,0.0,0.0,0.0,0.0,0.0,0.0,0.0,0.0,0.0,0.4169,0.0,0.0,0.0,0.0,0.0,0.0,0.0,0.0,0.0,0.0,0.0,0.0,0.0,0.0,0.0,0.0,0.0,0.0,0.0,0.0,0.0,0.0,0.0,0.0,0.0,0.0,0.0,0.0,0.0,0.0,0.0,0.0,0.0,0.0,0.0,0.0,0.0,0.0,0.0,0.0,0.0,0.0,0.0,0.0,0.0,0.0,0.0,0.0,0.0,0.0,0.0,0.0,0.0,0.0,0.0,0.0,0.0,0.0,0.0,0.0,0.0,0.0,0.0,0.0,0.0,0.0,0.0,0.0,0.0,0.0,0.0,0.0,0.0,0.0,0.0,0.0,0.0,0.0,0.0,0.0,0.0,0.0,0.0,0.0,0.0,0.0,0.0,0.0,0.0,0.0,0.0,0.0,0.0,0.0,0.0,0.0,0.0,0.0,0.0,0.0,0.0,0.0,0.0,0.0,0.0,0.0,0.0,0.0,0.0,0.0,0.4232,0.4476,0.4492,0.4514,0.4568,0.0,0.0,0.0,0.0,0.0,0.0,0.0,0.0,0.0,0.0,0.0,0.0,0.0,0.0,0.0,0.0,0.0,0.0,0.0,0.0,0.0,0.0,0.0,0.0,0.0,0.0,0.0,0.0,0.0,0.0,0.0,0.0,0.0,0.0,0.0,0.0,0.0,0.0,0.0,0.0,0.0,0.0,0.0,0.0,0.0,0.0,0.0,0.0,0.0,0.0,0.0,0.0,0.0,0.0,0.0,0.0,0.0,0.0,0.0,0.0,0.0,0.0,0.0,0.0,0.0,0.0,0.0,0.0,0.0,0.0,0.0,0.0,0.0,0.0,0.0,0.0,0.0,0.0,0.0,0.0,0.0,0.0,0.0,0.0,0.0,0.0,0.0,0.0,0.0,0.0,0.0,0.0,0.0,0.0,0.0,0.0,0.0,0.0,0.0,0.0,0.0,0.0,0.0,0.0,0.0,0.0,0.0,0.0,0.0,0.0,0.0,0.0,0.5008,0.5004,0.4972,0.0,0.0,0.0,0.0,0.0,0.0,0.0,0.0,0.0,0.0,0.0,0.0,0.0,0.0,0.0,0.0,0.0,0.0,0.0,0.0,0.0,0.0,0.0,0.0,0.0,0.0,0.0,0.0,0.0,0.0,0.0,0.0,0.0,0.0,0.0,0.0,0.0,0.0,0.0,0.0,0.0,0.0,0.0,0.0,0.0,0.0,0.0,0.0,0.0,0.0,0.0,0.0,0.0,0.0,0.0,0.0,0.0,0.0,0.0,0.0,0.0,0.0,0.0,0.0,0.0,0.0,0.0,0.0,0.0,0.0,0.0,0.0,0.0,0.0,0.0,0.0,0.0,0.0,0.0,0.0,0.0,0.0,0.0,0.0,0.0,0.0,0.0,0.0,0.0,0.0,0.0,0.0,0.0,0.0,0.0,0.0,0.0,0.0,0.0,0.0,0.0,0.0,0.0,0.0,0.0,0.0,0.0,0.0,0.0,0.0,0.5095,0.5615,0.5638,0.0,0.5279,0.0,0.0,0.0,0.0,0.0,0.0,0.0,0.0,0.0,0.0,0.0,0.0,0.0,0.0,0.0,0.0,0.0,0.0,0.0,0.0,0.0,0.0,0.0,0.0,0.0,0.0,0.0,0.0,0.0,0.0,0.0,0.0,0.0,0.0,0.0,0.0,0.0,0.0,0.0,0.0,0.0,0.0,0.0,0.0,0.0,0.0,0.0,0.0,0.0,0.0,0.0,0.0,0.0,0.0,0.0,0.0,0.0,0.0,0.0,0.0,0.0,0.0,0.0,0.0,0.0,0.0,0.0,0.0,0.0,0.0,0.0,0.0,0.0,0.0,0.0,0.0,0.0,0.0,0.0,0.0,0.0,0.0,0.0,0.0,0.0,0.0,0.0,0.0,0.0,0.0,0.0,0.0,0.0,0.0,0.0,0.0,0.0,0.0,0.0,0.0,0.0,0.0,0.0,0.0,0.0,0.0,0.0,0.0,0.0,0.0,0.5449,0.6101,0.6112,0.6068,0.0,0.0,0.0,0.0,0.0,0.0,0.0,0.0,0.0,0.0,0.0,0.0,0.0,0.0,0.0,0.0,0.0,0.0,0.0,0.0,0.0,0.0,0.0,0.0,0.0,0.0,0.0,0.0,0.0,0.0,0.0,0.0,0.0,0.0,0.0,0.0,0.0,0.0,0.0,0.0,0.0,0.0,0.0,0.0,0.0,0.0,0.0,0.0,0.0,0.0,0.0,0.0,0.0,0.0,0.0,0.0,0.0,0.0,0.0,0.0,0.0,0.0,0.0,0.0,0.0,0.0,0.0,0.0,0.0,0.0,0.0,0.0,0.0,0.0,0.0,0.0,0.0,0.0,0.0,0.0,0.0,0.0,0.0,0.0,0.0,0.0,0.0,0.0,0.0,0.0,0.0,0.0,0.0,0.0,0.0,0.0,0.0,0.0,0.0,0.0,0.0,0.0,0.0,0.0,0.0,0.0,0.0,0.0,0.0,0.0,0.5545,0.59,0.6547,0.6607,0.6508,0.6294,0.0,0.0,0.0,0.0,0.0,0.0,0.0,0.0,0.0,0.0,0.0,0.0,0.0,0.0,0.0,0.0,0.0,0.0,0.0,0.0,0.0,0.0,0.0,0.0,0.0,0.0,0.0,0.0,0.0,0.0,0.0,0.0,0.0,0.0,0.0,0.0,0.0,0.0,0.0,0.0,0.0,0.0,0.0,0.0,0.0,0.0,0.0,0.0,0.0,0.0,0.0,0.0,0.0,0.0,0.0,0.0,0.0,0.0,0.0,0.0,0.0,0.0,0.0,0.0,0.0,0.0,0.0,0.0,0.0,0.0,0.0,0.0,0.0,0.0,0.0,0.0,0.0,0.0,0.0,0.0,0.0,0.0,0.0,0.0,0.0,0.0,0.0,0.0,0.0,0.0,0.0,0.0,0.0,0.0,0.0,0.0,0.0,0.0,0.0,0.0,0.0,0.0,0.0,0.0,0.0,0.0,0.0,0.0,0.5779,0.6152,0.6597,0.7059,0.714,0.6798,0.0,0.0,0.0,0.0,0.0,0.0,0.0,0.0,0.0,0.0,0.0,0.0,0.0,0.0,0.0,0.0,0.0,0.0,0.0,0.0,0.0,0.0,0.0,0.0,0.0,0.0,0.0,0.0,0.0,0.0,0.0,0.0,0.0,0.0,0.0,0.0,0.0,0.0,0.0,0.0,0.0,0.0,0.0,0.0,0.0,0.0,0.0,0.0,0.0,0.0,0.0,0.0,0.0,0.0,0.0,0.0,0.0,0.0,0.0,0.0,0.0,0.0,0.0,0.0,0.0,0.0,0.0,0.0,0.0,0.0,0.0,0.0,0.0,0.0,0.0,0.0,0.0,0.0,0.0,0.0,0.0,0.0,0.0,0.0,0.0,0.0,0.0,0.0,0.0,0.0,0.0,0.0,0.0,0.0,0.0,0.0,0.0,0.0,0.0,0.0,0.0,0.0,0.0,0.0,0.0,0.0,0.0,0.0,0.0,0.5951,0.6818,0.7375,0.7543,0.7566,0.7192,0.0,0.0,0.0,0.0,0.0,0.0,0.0,0.0,0.0,0.0,0.0,0.0,0.0,0.0,0.0,0.0,0.0,0.0,0.0,0.0,0.0,0.0,0.0,0.0,0.0,0.0,0.0,0.0,0.0,0.0,0.0,0.0,0.0,0.0,0.0,0.0,0.0,0.0,0.0,0.0,0.0,0.0,0.0,0.0,0.0,0.0,0.0,0.0,0.0,0.0,0.0,0.0,0.0,0.0,0.0,0.0,0.0,0.0,0.0,0.0,0.0,0.0,0.0,0.0,0.0,0.0,0.0,0.0,0.0,0.0,0.0,0.0,0.0,0.0,0.0,0.0,0.0,0.0,0.0,0.0,0.0,0.0,0.0,0.0,0.0,0.0,0.0,0.0,0.0,0.0,0.0,0.0,0.0,0.0,0.0,0.0,0.0,0.0,0.0,0.0,0.0,0.0,0.0,0.0,0.0,0.0,0.0,0.0,0.0,0.6591,0.0,0.8026,0.8026,0.7882,0.7436,0.0,0.0,0.0,0.0,0.0,0.0,0.0,0.0,0.0,0.0,0.0,0.0,0.0,0.0,0.0,0.0,0.0,0.0,0.0,0.0,0.0,0.0,0.0,0.0,0.0,0.0,0.0,0.0,0.0,0.0,0.0,0.0,0.0,0.0,0.0,0.0,0.0,0.0,0.0,0.0,0.0,0.0,0.0,0.0,0.0,0.0,0.0,0.0,0.0,0.0,0.0,0.0,0.0,0.0,0.0,0.0,0.0,0.0,0.0,0.0,0.0,0.0,0.0,0.0,0.0,0.0,0.0,0.0,0.0,0.0,0.0,0.0,0.0,0.0,0.0,0.0,0.0,0.0,0.0,0.0,0.0,0.0,0.0,0.0,0.0,0.0,0.0,0.0,0.0,0.0,0.0,0.0,0.0,0.0,0.0,0.0,0.0,0.0,0.0,0.0,0.0,0.0,0.0,0.0,0.0,0.0,0.0,0.0,0.662,0.7774,0.8289,0.8599,0.8526,0.8126,0.7473,0.0,0.0,0.0,0.0,0.0,0.0,0.0,0.0,0.0,0.0,0.0,0.0,0.0,0.0,0.0,0.0,0.0,0.0,0.0,0.0,0.0,0.0,0.0,0.0,0.0,0.0,0.0,0.0,0.0,0.0,0.0,0.0,0.0,0.0,0.0,0.0,0.0,0.0,0.0,0.0,0.0,0.0,0.0,0.0,0.0,0.0,0.0,0.0,0.0,0.0,0.0,0.0,0.0,0.0,0.0,0.0,0.0,0.0,0.0,0.0,0.0,0.0,0.0,0.0,0.0,0.0,0.0,0.0,0.0,0.0,0.0,0.0,0.0,0.0,0.0,0.0,0.0,0.0,0.0,0.0,0.0,0.0,0.0,0.0,0.0,0.0,0.0,0.0,0.0,0.0,0.0,0.0,0.0,0.0,0.0,0.0,0.0,0.0,0.0,0.0,0.0,0.0,0.0,0.0,0.0,0.0,0.0,0.0,0.0,0.9105,0.9795,1.0154,1.0146,0.9472,0.8574,0.0,0.0,0.0,0.0,0.0,0.0,0.0,0.0,0.0,0.0,0.0,0.0,0.0,0.0,0.0,0.0,0.0,0.0,0.0,0.0,0.0,0.0,0.0,0.0,0.0,0.0,0.0,0.0,0.0,0.0,0.0,0.0,0.0,0.0,0.0,0.0,0.0,0.0,0.0,0.0,0.0,0.0,0.0,0.0,0.0,0.0,0.0,0.0,0.0,0.0,0.0,0.0,0.0,0.0,0.0,0.0,0.0,0.0,0.0,0.0,0.0,0.0,0.0,0.0,0.0,0.0,0.0,0.0,0.0,0.0,0.0,0.0,0.0,0.0,0.0,0.0,0.0,0.0,0.0,0.0,0.0,0.0,0.0,0.0,0.0,0.0,0.0,0.0,0.0,0.0,0.0,0.0,0.0,0.0,0.0,0.0,0.0,0.0,0.0,0.0,0.0,0.0,0.0,0.0,0.0,0.0,0.0,0.0,0.0,1.1616,1.2102,1.2395,1.2459,1.1529,1.0262,0.8556,0.0,0.0,0.0,0.0,0.0,0.0,0.0,0.0,0.0,0.0,0.0,0.0,0.0,0.0,0.0,0.0,0.0,0.0,0.0,0.0,0.0,0.0,0.0,0.0,0.0,0.0,0.0,0.0,0.0,0.0,0.0,0.0,0.0,0.0,0.0,0.0,0.0,0.0,0.0,0.0,0.0,0.0,0.0,0.0,0.0,0.0,0.0,0.0,0.0,0.0,0.0,0.0,0.0,0.0,0.0,0.0,0.0,0.0,0.0,0.0,0.0,0.0,0.0,0.0,0.0,0.0,0.0,0.0,0.0,0.0,0.0,0.0,0.0,0.0,0.0,0.0,0.0,0.0,0.0,0.0,0.0,0.0,0.0,0.0,0.0,0.0,0.0,0.0,0.0,0.0,0.0,0.0,0.0,0.0,0.0,0.0,0.0,0.0,0.0,0.0,0.0,0.0,0.0,0.0,0.0,0.0,0.0,0.0,1.5041,1.5169,1.5251,1.526,1.4047,1.23,0.0,0.0,0.0,0.0,0.0,0.0,0.0,0.0,0.0,0.0,0.0,0.0,0.0,0.0,0.0,0.0,0.0,0.0,0.0,0.0,0.0,0.0,0.0,0.0,0.0,0.0,0.0,0.0,0.0,0.0,0.0,0.0,0.0,0.0,0.0,0.0,0.0,0.0,0.0,0.0,0.0,0.0,0.0,0.0,0.0,0.0,0.0,0.0,0.0,0.0,0.0,0.0,0.0,0.0,0.0,0.0,0.0,0.0,0.0,0.0,0.0,0.0,0.0,0.0,0.0,0.0,0.0,0.0,0.0,0.0,0.0,0.0,0.0,0.0,0.0,0.0,0.0,0.0,0.0,0.0,0.0,0.0,0.0,0.0,0.0,0.0,0.0,0.0,0.0,0.0,0.0,0.0,0.0,0.0,0.0,0.0,0.0,0.0,0.0,0.0,0.0,0.0,0.0,0.0,0.0,0.0,0.0,0.0,0.0,1.7149,1.9149,1.9423,1.7807,1.5735,1.3772,0.0,0.0,0.0,0.0,0.0,0.0,0.0,0.0,0.0,0.0,0.0,0.0,0.0,0.0,0.0,0.0,0.0,0.0,0.0,0.0,0.0,0.0,0.0,0.0,0.0,0.0,0.0,0.0,0.0,0.0,0.0,0.0,0.0,0.0,0.0,0.0,0.0,0.0,0.0,0.0,0.0,0.0,0.0,0.0,0.0,0.0,0.0,0.0,0.0,0.0,0.0,0.0,0.0,0.0,0.0,0.0,0.0,0.0,0.0,0.0,0.0,0.0,0.0,0.0,0.0,0.0,0.0,0.0,0.0,0.0,0.0,0.0,0.0,0.0,0.0,0.0,0.0,0.0,0.0,0.0,0.0,0.0,0.0,0.0,0.0,0.0,0.0,0.0,0.0,0.0,0.0,0.0,0.0,0.0,0.0,0.0,0.0,0.0,0.0,0.0,0.0,0.0,0.0,0.0,0.0,0.0,0.0,0.0,1.6185,1.8883,2.1278,2.1961,2.0802,1.8143,1.5782,0.0,0.0,0.0,0.0,0.0,0.0,0.0,0.0,0.0,0.0,0.0,0.0,0.0,0.0,0.0,0.0,0.0,0.0,0.0,0.0,0.0,0.0,0.0,0.0,0.0,0.0,0.0,0.0,0.0,0.0,0.0,0.0,0.0,0.0,0.0,0.0,0.0,0.0,0.0,0.0,0.0,0.0,0.0,0.0,0.0,0.0,0.0,0.0,0.0,0.0,0.0,0.0,0.0,0.0,0.0,0.0,0.0,0.0,0.0,0.0,0.0,0.0,0.0,0.0,0.0,0.0,0.0,0.0,0.0,0.0,0.0,0.0,0.0,0.0,0.0,0.0,0.0,0.0,0.0,0.0,0.0,0.0,0.0,0.0,0.0,0.0,0.0,0.0,0.0,0.0,0.0,0.0,0.0,0.0,0.0,0.0,0.0,0.0,0.0,0.0,0.0,0.0,0.0,0.0,0.0,0.0,0.0,0.0,1.7057,2.0244,2.2038,2.3158,2.3502,2.0703,1.7911,0.0,0.0,0.0,0.0,0.0,0.0,0.0,0.0,0.0,0.0,0.0,0.0,0.0,0.0,0.0,0.0,0.0,0.0,0.0,0.0,0.0,0.0,0.0,0.0,0.0,0.0,0.0,0.0,0.0,0.0,0.0,0.0,0.0,0.0,0.0,0.0,0.0,0.0,0.0,0.0,0.0,0.0,0.0,0.0,0.0,0.0,0.0,0.0,0.0,0.0,0.0,0.0,0.0,0.0,0.0,0.0,0.0,0.0,0.0,0.0,0.0,0.0,0.0,0.0,0.0,0.0,0.0,0.0,0.0,0.0,0.0,0.0,0.0,0.0,0.0,0.0,0.0,0.0,0.0,0.0,0.0,0.0,0.0,0.0,0.0,0.0,0.0,0.0,0.0,0.0,0.0,0.0,0.0,0.0,0.0,0.0,0.0,0.0,0.0,0.0,0.0,0.0,0.0,0.0,0.0,0.0,0.0,0.0,1.8094,2.0886,2.1706,2.2583,2.3578,2.1363,1.8699,0.0,0.0,0.0,0.0,0.0,0.0,0.0,0.0,0.0,0.0,0.0,0.0,0.0,0.0,0.0,0.0,0.0,0.0,0.0,0.0,0.0,0.0,0.0,0.0,0.0,0.0,0.0,0.0,0.0,0.0,0.0,0.0,0.0,0.0,0.0,0.0,0.0,0.0,0.0,0.0,0.0,0.0,0.0,0.0,0.0,0.0,0.0,0.0,1.392,0.0,0.0,0.0,0.0,0.0,0.0,0.0,0.0,0.0,0.0,0.0,0.0,0.0,0.0,0.0,0.0,0.0,0.0,0.0,0.0,0.0,0.0,0.0,0.0,0.0,0.0,0.0,0.0,0.0,0.0,0.0,0.0,0.0,0.0,0.0,0.0,0.0,0.0,0.0,0.0,0.0,0.0,0.0,0.0,0.0,0.0,0.0,0.0,0.0,0.0,0.0,0.0,0.0,0.0,0.0,0.0,0.0,0.0,0.0,1.927,2.166,2.3067,2.3641,2.3309,2.2037,1.9782,0.0,0.0,0.0,0.0,0.0,0.0,0.0,0.0,0.0,0.0,0.0,0.0,0.0,0.0,0.0,0.0,0.0,0.0,0.0,0.0,0.0,0.0,0.0,0.0,0.0,0.0,0.0,0.0,0.0,0.0,0.0,0.0,0.0,0.0,0.0,0.0,0.0,0.0,0.0,0.0,0.0,0.0,0.0,0.0,0.0,0.0,0.0,0.0,0.0,0.0,0.0,0.0,0.0,0.0,0.0,0.0,0.0,0.0,0.0,0.0,0.0,0.0,0.0,0.0,0.0,0.0,0.0,0.0,0.0,0.0,0.0,0.0,0.0,0.0,0.0,0.0,0.0,0.0,0.0,0.0,0.0,0.0,0.0,0.0,0.0,0.0,0.0,0.0,0.0,0.0,0.0,0.0,0.0,0.0,0.0,0.0,0.0,0.0,0.0,0.0,0.0,0.0,0.0,0.0,0.0,0.0,0.0,1.7024,1.9996,2.2333,2.409,2.4326,2.3043,2.2333,2.0459,1.7194,0.0,0.0,0.0,0.0,0.0,0.0,0.0,0.0,0.0,0.0,0.0,0.0,0.0,0.0,0.0,0.0,0.0,0.0,0.0,0.0,0.0,0.0,0.0,0.0,0.0,0.0,0.0,0.0,0.0,0.0,0.0,0.0,0.0,0.0,0.0,0.0,0.0,0.0,1.0948,1.2825,0.0,0.0,0.0,0.0,0.0,0.0,0.0,0.0,1.6973,0.0,0.0,0.0,0.0,0.0,0.0,0.0,0.0,0.0,0.0,0.0,0.0,0.0,0.0,0.0,0.0,0.0,0.0,0.0,0.0,0.0,0.0,0.0,0.0,0.0,0.0,0.0,0.0,0.0,0.0,0.0,0.0,0.0,0.0,0.0,0.0,0.0,0.0,0.0,0.0,0.0,0.0,0.0,0.0,0.0,0.0,0.0,0.0,0.0,0.0,0.0,0.0,0.0,0.0,0.0,0.0,1.4194,1.6229,1.911,2.2724,2.1326,2.1286,2.2858,2.1391,1.9153,1.6241,0.0,0.0,0.0,0.0,0.0,0.0,0.0,0.0,0.0,0.0,0.0,0.0,0.0,0.0,0.0,0.0,0.0,0.0,0.0,0.0,0.0,0.0,0.0,0.0,0.0,0.0,0.0,0.0,0.0,0.0,0.0,0.0,0.0,0.0,0.0,0.0,0.0,0.0,0.0,1.5742,1.6644,0.0,0.0,0.0,0.0,0.0,0.0,0.0,0.0,1.8846,0.0,0.0,0.0,0.0,0.0,0.0,0.0,0.0,0.0,0.0,0.0,0.0,0.0,0.0,0.0,0.0,0.0,0.0,0.0,0.0,0.0,0.0,0.0,0.0,0.0,0.0,0.0,0.0,0.0,0.0,0.0,0.0,0.0,0.0,0.0,0.0,0.0,0.0,0.0,0.0,0.0,0.0,0.0,0.0,0.0,0.0,0.0,0.0,0.0,0.0,0.0,0.0,0.0,0.0,0.0,1.4782,1.7132,1.956,2.1937,2.1545,2.1517,2.2027,2.0683,1.8567,0.0,0.0,0.0,0.0,0.0,0.0,0.0,0.0,0.0,0.0,0.0,0.0,0.0,0.0,0.0,0.0,0.0,0.0,0.0,0.0,0.0,0.0,0.0,0.0,0.0,0.0,0.0,0.0,0.0,0.0,0.0,0.0,0.0,0.0,0.0,0.0,0.0,0.0,0.0,0.0,1.75,1.8674,2.0391,0.0,0.0,0.0,0.0,0.0,0.0,2.1328,2.0566,0.0,0.0,0.0,0.0,0.0,0.0,0.0,0.0,0.0,0.0,0.0,0.0,0.0,0.0,0.0,0.0,0.0,0.0,0.0,0.0,0.0,0.0,0.0,0.0,0.0,0.0,0.0,0.0,0.0,0.0,0.0,0.0,0.0,0.0,0.0,0.0,0.0,0.0,0.0,0.0,0.0,0.0,0.0,0.0,0.0,0.0,0.0,0.0,0.0,0.0,0.0,0.0,0.0,0.0,0.0,1.5204,1.7988,2.0038,2.1172,2.1915,2.1928,2.1202,1.9858,1.7866,0.0,0.0,0.0,0.0,0.0,0.0,0.0,0.0,0.0,0.0,0.0,0.0,0.0,0.0,0.0,0.0,0.0,0.0,0.0,0.0,0.0,0.0,0.0,0.0,0.0,0.0,0.0,0.0,0.0,0.0,0.0,0.0,0.0,0.0,0.0,0.0,0.0,0.0,0.0,0.0,0.0,2.0332,2.2441,2.1367,0.0,0.0,0.0,0.0,2.2715,2.2773,0.0,0.0,0.0,0.0,0.0,0.0,0.0,0.0,0.0,0.0,0.0,0.0,0.0,0.0,0.0,0.0,0.0,0.0,0.0,0.0,0.0,0.0,0.0,0.0,0.0,0.0,0.0,0.0,0.0,0.0,0.0,0.0,0.0,0.0,0.0,0.0,0.0,0.0,0.0,0.0,0.0,0.0,0.0,0.0,0.0,0.0,0.0,0.0,0.0,0.0,0.0,0.0,0.0,0.0,0.0,0.0,1.5175,1.7396,1.94,2.103,2.0299,2.0241,2.1116,1.862,1.6424,0.0,0.0,0.0,0.0,0.0,0.0,0.0,0.0,0.0,0.0,0.0,0.0,0.0,0.0,0.0,0.0,0.0,0.0,0.0,0.0,0.0,0.0,0.0,0.0,0.0,0.0,0.0,0.0,0.0,0.0,0.0,0.0,0.0,0.0,0.0,0.0,0.0,0.0,0.0,0.0,0.0,2.1211,2.334,2.2541,2.1661,0.0,0.0,2.3616,2.4098,2.4781,0.0,0.0,0.0,0.0,0.0,0.0,0.0,0.0,0.0,0.0,0.0,0.0,0.0,0.0,0.0,0.0,0.0,0.0,0.0,0.0,0.0,0.0,0.0,0.0,0.0,0.0,0.0,0.0,0.0,0.0,0.0,0.0,0.0,0.0,0.0,0.0,0.0,0.0,0.0,0.0,0.0,0.0,0.0,0.0,0.0,0.0,0.0,0.0,0.0,0.0,0.0,0.0,0.0,0.0,0.0,1.3484,1.5373,1.7761,1.9369,2.0112,1.9678,1.9649,2.0155,1.8029,1.616,0.0,0.0,0.0,0.0,0.0,0.0,0.0,0.0,0.0,0.0,0.0,0.0,0.0,0.0,0.0,0.0,0.0,0.0,0.0,0.0,0.0,0.0,0.0,0.0,0.0,0.0,0.0,0.0,0.0,0.0,0.0,0.0,0.0,0.0,0.0,0.0,0.0,0.0,0.0,0.0,0.0,0.0,2.3887,2.4102,0.0,0.0,0.0,2.4883,2.4805,0.0,0.0,0.0,0.0,0.0,0.0,0.0,0.0,0.0,0.0,0.0,0.0,0.0,0.0,0.0,0.0,0.0,0.0,0.0,0.0,0.0,0.0,0.0,0.0,0.0,0.0,0.0,0.0,0.0,0.0,0.0,0.0,0.0,0.0,0.0,0.0,0.0,0.0,0.0,0.0,0.0,0.0,0.0,0.0,0.0,0.0,0.0,0.0,0.0,0.0,0.0,0.0,0.0,0.0,0.0,0.0,0.0,1.5521,1.809,1.9401,1.9401,1.9401,1.9401,1.939,1.7937,0.0,0.0,0.0,0.0,0.0,0.0,0.0,0.0,0.0,0.0,0.0,0.0,0.0,0.0,0.0,0.0,0.0,0.0,0.0,0.0,0.0,0.0,0.0,0.0,0.0,0.0,0.0,0.9435,0.0,0.0,0.0,0.0,0.0,0.0,0.0,0.0,0.0,0.0,0.0,0.0,0.0,0.0,2.2656,2.4336,2.5406,2.603,0.0,0.0,2.6089,2.5806,2.6568,2.623,0.0,0.0,0.0,0.0,0.0,0.0,0.0,0.0,0.0,0.0,0.0,0.0,0.0,0.0,0.0,0.0,0.0,0.0,0.0,0.0,0.0,0.0,0.0,0.0,0.0,0.0,0.0,0.0,0.0,0.0,0.0,0.0,0.0,0.0,0.0,0.0,0.0,0.0,0.0,0.0,0.0,0.0,0.0,0.0,0.0,0.0,0.0,0.0,0.0,0.0,0.0,0.0,0.0,0.0,0.0,1.5594,1.8104,1.9401,1.9401,1.9401,1.9401,1.9403,1.836,1.696,0.0,0.0,0.0,0.0,0.0,0.0,0.0,0.0,0.0,0.0,0.0,0.0,0.0,0.0,0.0,0.0,0.0,0.0,0.0,0.0,0.0,0.0,0.0,0.0,0.0,0.0,0.0,0.0,0.0,0.0,0.0,0.0,0.0,0.0,0.0,0.0,0.0,0.0,0.0,0.0,0.0,2.3105,2.4809,2.6113,2.6908,0.0,0.0,2.7545,2.7526,2.8542,2.823,2.4824,0.0,0.0,0.0,0.0,0.0,0.0,0.0,0.0,0.0,0.0,0.0,0.0,0.0,0.0,0.0,0.0,0.0,0.0,0.0,0.0,0.0,0.0,0.0,0.0,0.0,0.0,0.0,0.0,0.0,0.0,0.0,0.0,0.0,0.0,0.0,0.0,0.0,0.0,0.0,0.0,0.0,0.0,0.0,0.0,0.0,0.0,0.0,0.0,0.0,0.0,0.0,0.0,0.0,1.3858,1.5598,1.8117,1.9401,1.9401,1.9575,1.9639,1.9626,1.9092,1.8013,0.0,0.0,0.0,0.0,0.0,0.0,0.0,0.0,0.0,0.0,0.0,0.0,0.0,0.0,0.0,0.0,0.0,0.0,0.0,0.0,0.0,0.0,0.0,0.0,0.0,0.0,0.0,0.0,1.9217,2.0079,1.8986,0.0,0.0,0.0,0.0,0.0,0.0,0.0,0.0,0.0,0.0,2.4293,2.6035,2.7363,0.0,0.0,2.834,2.8262,2.778,2.8327,2.7793,2.4859,2.3144,0.0,0.0,0.0,0.0,0.0,0.0,0.0,0.0,0.0,0.0,0.0,0.0,0.0,0.0,0.0,0.0,0.0,0.0,0.0,0.0,0.0,0.0,0.0,0.0,0.0,0.0,0.0,0.0,0.0,0.0,0.0,0.0,0.0,0.0,0.0,0.0,0.0,0.0,0.0,0.0,0.0,0.0,0.0,0.0,0.0,0.0,0.0,0.0,0.0,0.0,0.0,0.0,1.4162,1.5785,1.8331,1.9626,1.9626,1.9826,1.9933,1.992,1.9695,1.8946,0.0,0.0,0.0,0.0,0.0,0.0,0.0,0.0,0.0,0.0,0.0,0.0,0.0,0.0,0.0,0.0,0.0,0.0,0.0,0.0,0.0,0.0,0.0,0.0,0.0,0.0,0.0,0.0,2.0996,2.1093,1.8518,0.0,0.0,0.0,0.0,0.0,0.0,0.0,0.0,0.0,0.0,2.5659,2.7031,2.8203,2.8887,2.875,2.873,2.8535,2.7976,2.8132,2.7578,2.5503,0.0,0.0,0.0,0.0,0.0,0.0,0.0,0.0,0.0,0.0,0.0,0.0,0.0,0.0,0.0,0.0,0.0,0.0,0.0,0.0,0.0,0.0,0.0,0.0,0.0,0.0,0.0,0.7484,0.0,0.0,0.6205,0.0,0.0,0.0,0.0,0.0,0.0,0.0,0.0,0.0,0.0,0.0,0.0,0.0,0.0,0.0,0.0,0.0,0.0,0.0,0.0,0.0,0.0,1.425,1.627,1.8851,2.017,2.017,2.0184,2.0197,2.0197,2.0184,1.9728,1.8755,0.0,0.0,0.0,0.0,0.0,0.0,0.0,0.0,0.0,0.0,0.0,0.0,0.0,0.0,0.0,0.0,0.0,0.0,0.0,0.0,0.0,0.0,0.0,0.0,0.0,0.0,1.8069,1.9943,2.0177,0.0,0.0,0.0,0.0,0.0,0.0,0.0,0.0,0.0,0.0,2.5035,2.7129,2.7624,2.8379,2.8762,2.8418,2.834,2.8301,2.8281,2.8281,2.7988,0.0,0.0,0.0,0.0,0.0,0.0,0.0,0.0,0.0,0.0,0.0,0.0,0.0,0.0,0.0,0.0,0.0,0.0,0.0,0.0,0.0,0.0,0.0,0.0,0.0,0.0,0.0,1.0503,1.0358,0.0,0.0,0.0,0.0,0.0,0.0,0.0,0.0,0.0,0.0,0.0,1.4215,1.4309,0.0,0.0,0.0,0.0,0.0,0.0,0.0,0.0,0.0,0.0,0.0,0.0,1.471,1.658,1.8956,2.021,2.021,2.0428,2.0535,2.0535,2.0722,2.0264,1.9121,0.0,0.0,0.0,0.0,0.0,0.0,0.0,0.0,0.0,0.0,0.0,0.0,0.0,0.0,0.0,0.0,0.0,0.0,0.0,0.0,0.0,0.0,0.0,0.0,0.0,1.8982,0.0,0.0,0.0,0.0,0.0,0.0,0.0,0.0,0.0,0.0,0.0,2.299,2.4844,2.647,2.7721,2.8398,2.8703,2.9035,0.0,0.0,0.0,0.0,0.0,0.0,0.0,0.0,0.0,0.0,0.0,0.0,0.0,0.0,2.309,2.0781,2.0703,2.1016,2.1016,0.0,0.0,0.0,0.0,0.0,0.0,0.0,0.0,0.0,0.0,0.0,0.0,0.0,0.0,1.2878,0.0,1.2056,0.0,0.0,0.0,0.0,0.0,0.0,0.0,0.0,1.5271,1.6083,1.6302,1.6526,1.6567,0.0,1.5965,1.4421,0.0,0.0,0.0,0.0,0.0,0.0,0.0,0.0,1.5458,1.7034,1.9345,2.0504,2.0517,2.0722,2.0828,2.0828,2.1002,2.0717,1.9897,1.8646,1.7197,0.0,0.0,0.0,0.0,0.0,0.0,0.0,0.0,0.0,0.0,0.0,0.0,0.0,0.0,0.0,0.0,0.0,0.0,0.0,0.0,0.0,0.0,0.0,2.0552,0.0,0.0,0.0,0.0,0.0,0.0,0.0,0.0,0.0,2.0508,2.3081,2.5449,2.6855,2.8073,2.8855,2.8906,0.0,0.0,0.0,0.0,0.0,0.0,0.0,2.7819,2.7565,2.7754,2.8047,2.832,2.8105,2.7949,2.8079,0.0,0.0,2.4867,2.4648,2.4984,2.4965,2.4941,2.4918,2.4898,2.5347,2.5898,0.0,0.0,0.0,0.0,0.0,0.0,0.0,0.0,1.4923,1.4772,0.0,1.4223,0.0,0.0,0.0,0.0,1.2945,1.4338,0.0,0.0,1.8251,1.8918,1.8143,1.8636,1.8811,1.8558,1.821,1.7756,1.7166,1.5267,0.0,0.0,0.0,0.0,0.0,0.0,1.646,1.7715,1.9947,2.1122,2.1136,2.1136,2.1136,2.1149,2.1149,2.1136,2.1082,1.9951,1.8983,1.8252,1.5701,0.0,0.0,0.0,0.0,0.0,0.0,0.0,0.0,0.0,0.0,0.0,0.0,0.0,0.0,0.0,0.0,0.0,0.0,0.0,0.0,2.0821,0.0,0.0,0.0,0.0,0.0,0.0,0.0,0.0,0.0,0.0,2.2993,2.5358,2.7376,2.8242,0.0,0.0,0.0,0.0,2.9746,2.8621,2.8054,2.778,2.7839,2.8151,2.8652,2.9481,0.0,0.0,3.0937,3.0254,2.9852,3.0215,3.0644,3.0312,2.8269,2.8125,2.8386,2.8379,2.8359,2.8398,2.8398,2.8398,2.8574,1.6727,0.0,0.0,0.0,0.0,1.5231,1.5979,1.6752,1.6995,1.7049,1.6862,1.6484,0.0,0.0,0.0,0.0,0.0,0.0,1.6754,1.7769,1.8893,1.9452,1.9583,1.9743,1.9783,1.9703,1.961,1.9613,1.9669,1.9107,1.722,1.4164,0.0,0.0,0.0,0.0,1.7582,1.9145,2.0686,2.1555,2.1724,2.1737,2.1737,2.1737,2.1737,2.1737,2.1737,2.1387,2.0702,1.9593,1.8182,0.0,0.0,0.0,0.0,0.0,0.0,0.0,0.0,0.0,0.0,0.0,0.0,0.0,0.0,0.0,0.0,0.0,0.0,0.0,2.1811,2.2112,2.1504,0.0,0.0,0.0,0.0,0.0,0.0,0.0,0.0,0.0,2.6281,2.755,2.8713,0.0,0.0,2.9833,2.9434,2.9618,2.9872,3.0117,2.954,0.0,2.9883,2.9785,2.9844,3.0439,3.1514,3.2246,3.2246,3.2285,3.2363,3.245,3.2617,3.248,3.1934,3.1397,3.1103,3.1084,3.1084,3.1084,3.1103,3.1289,3.1523,1.8866,1.7648,1.7091,1.6847,1.6834,1.7327,1.7929,1.8651,1.8796,1.8823,1.8703,1.8477,1.7822,1.6847,1.6048,0.0,0.0,0.0,1.8223,1.9372,1.9749,2.0134,2.0544,2.0695,2.0762,2.0762,2.0882,2.1015,2.1221,2.1114,1.9843,1.7488,0.0,0.0,1.666,1.7809,1.8973,2.0134,2.1221,2.1836,2.201,2.2024,2.2024,2.2024,2.2024,2.2024,2.2024,2.2024,2.1641,2.0894,1.9956,1.8591,0.0,0.0,0.0,0.0,0.0,0.0,0.0,0.0,0.0,0.0,0.0,1.1811,1.2238,0.0,0.0,0.0,1.8729,2.1573,2.3754,2.3401,0.0,0.0,0.0,0.0,0.0,0.0,0.0,2.1699,2.4216,2.6391,2.7459,2.7973,2.8787,3.0267,3.0577,3.0517,3.0165,0.0,3.0713,3.0879,3.0478,3.0332,3.1035,3.1191,3.1484,3.2285,3.3027,3.3535,3.3555,3.3769,3.3926,3.3926,3.3926,3.3926,3.3894,3.3516,3.3078,3.2734,3.2843,3.2941,3.2961,3.3293,3.3555,2.0393,2.06,1.9322,1.8891,1.909,1.9372,1.9786,2.0264,2.0264,2.0147,1.9933,2.0187,1.9677,1.8664,1.8143,0.0,1.9076,1.909,1.972,2.0779,2.0793,2.0922,2.1189,2.1489,2.1622,2.1622,2.189,2.2024,2.1964,2.1743,2.1475,2.1162,2.0401,1.9573,1.8798,1.973,2.0468,2.0846,2.1617,2.2031,2.2091,2.2058,2.2058,2.2091,2.2058,2.2058,2.2091,2.2091,2.2077,2.2024,2.1191,2.03,1.9226,0.0,0.0,0.0,0.0,0.0,0.0,0.0,0.0,0.0,0.0,0.0,0.0,0.0,0.0,0.0,2.1222,0.0,2.4976,2.4544,0.0,0.0,0.0,2.1126,2.1655,2.1968,2.2379,2.3038,0.0,0.0,2.7224,2.7241,2.8099,3.1016,3.1819,3.1843,3.1191,3.1827,3.2061,3.1397,3.1211,3.1348,3.1864,3.2461,3.3242,3.4258,3.4687,3.4629,3.4609,3.4629,3.4687,3.4648,3.4687,3.4668,3.4687,3.459,3.4453,3.3652,3.3828,3.4134,3.4114,3.4336,3.457,2.1581,2.1652,2.1291,2.0935,2.0575,2.0458,2.0561,2.0895,2.0864,2.0824,2.0802,2.0869,2.0748,2.0481,2.0334,2.0388,2.0601,2.0828,2.11,2.1381,2.1609,2.1743,2.1777,2.1877,2.1917,2.1917,2.1951,2.2024,2.201,2.1924,2.1844,2.1777,2.179,2.1349,2.0535,2.0762,2.1269,2.1991,2.2205,2.2432,2.2679,2.2679,2.2693,2.2679,2.2679,2.2693,2.2693,2.2693,2.2586,2.2325,2.2077,2.1424,2.0272,1.8087,0.0,0.0,0.0,0.0,0.0,0.0,0.0,0.0,0.0,1.4537,1.5296,0.0,1.84,0.0,2.1363,2.3594,2.5461,2.445,0.0,0.0,2.2513,2.2379,2.2793,2.4121,2.4768,2.4124,2.589,2.7259,2.756,2.7948,2.8759,3.0303,3.0829,3.1458,3.2576,3.3262,3.3586,3.334,3.3464,3.3828,3.3887,3.4101,3.4355,3.4648,3.4707,3.4687,3.4707,3.4687,3.4687,3.4687,3.4687,3.4687,3.4746,3.4687,3.4668,3.4453,3.4473,3.4551,3.4551,3.4648,3.4707,2.2116,2.2287,2.2361,2.2324,2.2245,2.1582,2.1349,2.1496,2.1496,2.1496,2.1496,2.1496,2.1496,2.1496,2.1496,2.1496,2.151,2.1703,2.185,2.1951,2.2111,2.2245,2.2412,2.2412,2.2412,2.2412,2.2412,2.2412,2.2412,2.2378,2.2412,2.2412,2.2672,2.2579,2.2078,2.1964,2.2158,2.2605,2.2619,2.2766,2.3081,2.2974,2.2773,2.2519,2.2505,2.2352,2.2098,2.2084,2.2004,2.1844,2.1844,2.1502,2.084,1.9051,1.7367,0.0,0.0,0.0,0.0,0.0,0.0,0.0,0.0,0.0,0.0,0.0,1.9885,2.0625,2.1957,2.3342,2.4704,2.4115,2.3716,2.3764,2.3611,2.3688,2.4158,2.5134,2.5587,2.5184,2.6311,2.7347,2.7744,2.7609,2.8296,3.0375,3.0292,3.0514,3.1858,3.3272,3.416,3.3522,3.4139,3.4863,3.5215,3.5449,3.5644,3.582,3.5859,3.5859,3.5859,3.5859,3.5859,3.5859,3.5859,3.5859,3.5859,3.5859,3.5859,3.5859,3.5859,3.5644,3.5137,3.5156,3.5293,2.2325,2.2599,2.2734,2.3139,2.3545,2.2578,2.2185,2.2218,2.2251,2.2251,2.2251,2.2251,2.2251,2.2218,2.2251,2.2251,2.2251,2.2251,2.2352,2.2579,2.2592,2.2726,2.3,2.3014,2.3014,2.3014,2.3014,2.3014,2.3014,2.3014,2.3014,2.3027,2.3247,2.338,2.3332,2.3113,2.3014,2.3014,2.2974,2.3094,2.3278,2.2993,2.2599,2.2071,2.1964,2.1697,2.1203,2.1122,2.1109,2.1109,2.1149,2.1189,2.1243,1.9883,1.874,0.0,1.6447,0.0,0.0,0.0,0.0,0.0,0.0,0.0,0.0,2.0074,2.1153,2.1999,2.2632,2.3196,2.3659,2.3966,2.4277,2.4636,2.4714,2.4923,2.5476,2.5559,2.5661,2.5953,2.6055,2.6628,2.7668,2.6919,2.754,3.0036,3.0011,2.9609,3.0046,3.2408,3.3864,3.2642,3.3569,3.4474,3.5112,3.5704,3.6134,3.6691,3.6746,3.7074,3.7152,3.7207,3.7246,3.7246,3.7098,3.7156,3.7285,3.7176,3.7105,3.7027,3.6973,3.6662,3.5962,3.5957,3.6172,2.254,2.2612,2.2632,2.2716,2.2814,2.2927,2.3153,2.3434,2.3469,2.3469,2.3469,2.3469,2.3469,2.3469,2.3469,2.3469,2.3469,2.3469,2.3496,2.3549,2.3549,2.3576,2.3629,2.3643,2.3629,2.3643,2.3643,2.3643,2.3629,2.3629,2.3629,2.3643,2.3696,2.3688,2.3688,0.0,0.0,0.0,2.3354,2.326,2.3265,2.2792,2.2445,2.2325,2.1917,0.0,2.1502,2.1243,2.1109,2.1109,2.1368,0.0,0.0,0.0,0.0,0.0,0.0,0.0,0.0,0.0,0.0,0.0,2.0136,2.0073,1.9685,2.0721,2.17,2.2345,2.2767,2.3454,2.4601,2.478,2.5061,2.5642,2.5721,2.576,2.588,2.5895,2.5944,2.5982,2.6486,2.6902,2.7184,2.7394,2.7784,2.8558,2.9406,2.947,2.8533,3.1059,3.2714,3.257,3.2842,3.3,3.3121,3.3353,3.4091,3.4918,3.5366,3.5849,3.6865,3.7183,3.7254,3.7183,3.7038,3.6881,3.7164,3.6775,3.6352,3.6739,3.6527,3.645,3.6852,3.6992,3.7051,2.3253,2.3438,2.3624,2.3846,0.0,2.4253,2.4451,2.4596,2.4058,2.3817,2.3817,2.3817,2.3884,2.4017,2.387,2.3884,2.3981,2.3834,2.3817,2.3817,2.3817,2.3817,2.3817,2.3817,2.3817,2.3817,2.3817,2.3817,2.3817,2.3817,2.3817,2.3817,2.3915,2.3981,2.3995,2.4128,2.4128,2.4017,2.3688,2.3621,2.3741,2.3313,2.2939,2.2645,2.2385,0.0,0.0,0.0,0.0,0.0,0.0,0.0,0.0,2.179,0.0,2.1368,2.0868,2.0648,2.0783,2.0913,2.1316,2.2121,2.2358,2.2111,2.1363,2.2171,2.2814,2.3119,2.3316,2.3727,2.454,2.4666,2.4862,2.532,2.5548,2.5777,2.6113,2.6308,2.654,2.6896,2.721,2.7429,2.7429,2.7678,2.797,2.8116,2.8776,2.9101,2.8803,3.0729,3.2455,3.2492,3.2492,3.2597,3.2767,3.2802,3.3054,3.404,3.4295,3.4626,3.5358,3.554,3.554,3.5522,3.534,3.5285,3.5431,3.5157,3.4974,3.5212,3.5723,3.6215,3.6684,3.6723,3.6775,2.3726,2.4124,2.4431,2.4815,2.516,2.5237,2.5365,2.5451,2.4489,0.0,0.0,2.4111,2.4209,2.4409,2.4218,2.4209,2.4409,2.4195,2.4111,2.4075,2.4111,2.4111,2.4075,2.4111,2.4111,2.4075,2.4075,2.4111,2.4111,2.4111,2.4111,2.4138,2.4315,2.4436,2.4449,2.4676,2.4639,2.4436,2.4048,2.3981,2.4262,2.3941,2.3603,2.3148,2.2974,2.2666,2.2198,2.2044,2.2024,2.2024,2.2031,2.2111,2.2218,2.2271,2.2278,2.2144,2.2131,2.2331,2.2779,2.2772,2.3126,2.391,2.4004,2.3763,2.3108,2.3522,2.3817,2.3817,2.3857,2.404,2.4416,2.452,2.469,2.5076,2.54,2.5811,2.6381,2.6698,2.7113,2.7665,2.7775,2.7885,2.7833,2.783,2.7984,2.8293,2.8443,2.8516,2.9025,3.0438,3.1655,3.1618,3.1523,3.187,3.2197,3.2168,3.2584,3.3066,3.3247,3.3318,3.3545,3.3583,3.3583,3.3628,3.3432,3.3453,3.349,3.372,3.3734,3.3827,3.5084,3.6182,3.6201,3.6162,3.6365,2.3198,2.3275,2.3314,2.3584,2.397,2.4316,2.4854,2.5453,2.5293,2.5264,2.5264,2.5264,2.5291,2.5317,2.5277,2.5291,2.5331,2.5291,2.5264,2.5264,2.5264,2.5264,2.5277,2.5264,2.5264,2.5264,2.5264,2.5264,2.5264,2.5264,2.5277,2.5264,2.5317,2.5317,2.5331,2.5371,2.5371,2.5317,2.4543,2.4275,2.4519,2.4048,2.3884,2.3981,2.3308,2.2867,2.2773,2.2318,2.2024,2.2024,2.2218,2.2558,2.3078,2.3394,2.3728,2.4119,2.4159,2.4212,2.4266,2.4292,2.4346,2.4502,2.4756,2.4579,2.3741,2.375,2.3817,2.3817,2.4035,2.4394,2.5002,2.5285,2.5652,2.6261,2.6434,2.6542,2.6645,2.698,2.7264,2.7411,2.7664,2.7822,2.7836,2.7752,2.7894,2.8228,2.837,2.8452,2.8817,2.9162,2.9413,2.9398,2.9398,2.9428,2.9722,2.9496,3.0153,3.1431,3.1545,3.1813,3.2619,3.2771,3.2657,3.2619,3.2201,3.2179,3.2467,3.3318,3.3524,3.3827,3.4971,3.5922,3.6034,3.6165,3.6643,2.3636,2.3845,2.3872,2.4068,2.4461,2.4657,2.5088,2.5635,2.5674,2.5605,2.5518,2.5518,2.5598,2.5732,2.5585,2.5598,2.5784,2.5585,2.5518,2.5518,2.5518,2.5518,2.5518,2.5518,2.5518,2.5518,2.5518,2.5518,2.5518,2.5518,2.5518,2.5518,2.5518,2.5518,2.5518,2.5518,2.5518,2.5504,2.5117,2.497,2.5104,2.485,2.4783,2.4903,2.4502,2.4302,2.4302,2.4048,2.3901,2.3901,2.4022,2.4222,2.4489,2.4636,2.4836,2.5053,2.5079,2.5104,2.5079,2.5066,2.5117,2.5079,2.5237,2.5157,2.4743,2.4716,2.4716,2.4716,2.485,2.5007,2.5329,2.5502,2.5713,2.6025,2.6214,2.64,2.6619,2.6912,2.7228,2.7498,2.7858,2.806,2.8075,2.8228,2.8378,2.8588,2.8485,2.8407,2.8549,2.8353,2.8378,2.8769,2.8744,2.8588,2.8549,2.8339,2.8573,2.9221,2.9299,2.9517,3.0068,3.0145,3.0068,2.9875,2.9696,2.9657,2.9875,3.0122,3.0816,3.2004,3.3222,3.4258,3.5214,3.6163,3.7107,2.4,2.4332,2.4332,2.4652,2.509,2.5209,2.5527,2.5911,2.5938,2.5858,2.5706,2.5718,2.5838,2.6051,2.5812,2.5838,2.6038,2.5812,2.5718,2.5718,2.5705,2.5705,2.5705,2.5705,2.5705,2.5705,2.5705,2.5718,2.5705,2.5718,2.5718,2.5705,2.5705,2.5718,2.5705,2.5705,2.5705,2.5705,2.5705,2.5678,2.5625,2.5611,2.5651,2.5705,2.5638,2.5611,2.5611,2.5545,2.5518,2.5518,2.5518,2.5518,2.5518,2.5518,2.5518,2.5518,2.5518,2.5518,2.5518,2.5518,2.5518,2.5518,2.5571,2.5611,2.5625,2.5678,2.5638,2.5545,2.5531,2.5598,2.565,2.5678,2.5718,2.5732,2.5905,2.6234,2.6508,2.6816,2.711,2.753,2.7805,2.7961,2.8054,2.8197,2.8261,2.8275,2.8275,2.8157,2.8079,2.7844,2.7947,2.83,2.8353,2.8157,2.8118,2.7883,2.7712,2.7594,2.7673,2.783,2.7776,2.7594,2.7437,2.7541,2.7476,2.7516,2.7437,2.7855,2.8637,2.9944,3.1354,3.269,3.3768,3.5363,3.683,2.384,2.384,2.388,2.432,2.509,2.5514,2.5911,2.6307,2.6307,2.6333,2.6279,2.6306,2.6306,2.6346,2.6306,2.6306,2.6333,2.6319,2.6293,2.6279,2.6306,2.6306,2.6279,2.6293,2.6306,2.6293,2.6279,2.6253,2.6253,2.6279,2.6306,2.6306,2.6306,2.6279,2.6293,2.6293,2.6306,2.6306,2.6306,2.6212,2.5971,2.5957,2.6078,2.6332,2.6091,2.5957,2.5944,2.5665,2.5518,2.5518,2.5531,2.5518,2.5531,2.5518,2.5518,2.5531,2.5531,2.5518,2.5531,2.5518,2.5545,2.5531,2.5772,2.5957,2.5971,2.6185,2.6066,2.5718,2.5772,2.5944,2.5971,2.6119,2.6239,2.6226,2.6293,2.6386,2.6451,2.6768,2.7032,2.7071,2.715,2.715,2.7229,2.7057,2.6939,2.7412,2.7608,2.7673,2.7633,2.7608,2.7569,2.7673,2.7633,2.7687,2.7647,2.7633,2.7476,2.7516,2.7555,2.7398,2.7175,2.7018,2.6953,2.6781,2.6623,2.6623,2.6939,2.7633,2.8661,2.9168,3.0354,3.1545,3.1874,3.3281,3.5046,2.38,2.38,2.38,2.4172,2.4771,2.5209,2.5634,2.603,2.603,2.6149,2.6386,2.64,2.64,2.64,2.64,2.64,2.64,2.64,2.64,2.64,2.64,2.64,2.64,2.64,2.64,2.64,2.64,2.64,2.64,2.64,2.64,2.64,2.64,2.64,2.64,2.64,2.64,2.64,2.64,2.6333,2.6265,2.6252,2.6305,2.636,2.6305,2.6252,2.6238,2.6092,2.6026,2.6026,2.6026,2.6026,2.6039,2.6026,2.6026,2.6026,2.6026,2.6039,2.6039,2.6026,2.6026,2.6026,2.6146,2.6252,2.6252,2.6319,2.6266,2.6106,2.6146,2.6213,2.6213,2.6319,2.64,2.64,2.64,2.64,2.64,2.6544,2.6623,2.6663,2.6874,2.6992,2.7032,2.7057,2.7175,2.7294,2.7333,2.7268,2.7229,2.7057,2.6939,2.6913,2.7036,2.7182,2.7231,2.7018,2.6939,2.69,2.69,2.6781,2.6769,2.6637,2.6558,2.6439,2.6466,2.644,2.6426,2.686,2.7619,2.8534,3.0083,3.13,3.13,3.195,3.326,2.38,2.38,2.38,2.412,2.4652,2.4851,2.5209,2.5594,2.5753,2.599,2.6228,2.6347,2.64,2.64,2.64,2.64,2.64,2.64,2.64,2.64,2.64,2.64,2.64,2.64,2.64,2.64,2.64,2.64,2.64,2.64,2.64,2.64,2.64,2.64,2.64,2.64,2.64,2.64,2.64,2.64,2.6386,2.64,2.64,2.64,2.64,2.64,2.64,2.64,2.64,2.6386,2.64,2.64,2.64,2.64,2.64,2.64,2.64,2.64,2.64,2.64,2.64,2.64,2.64,2.64,2.64,2.64,2.64,2.6373,2.64,2.6386,2.64,2.64,2.64,2.64,2.64,2.64,2.64,2.64,2.6386,2.6426,2.6637,2.6834,2.686,2.7018,2.7189,2.7246,2.7115,2.6997,2.7012,2.6853,2.6693,2.668,2.6827,2.6921,2.6945,2.6919,2.6653,2.6667,2.6747,2.676,2.6627,2.664,2.664,2.6841,2.672,2.6693,2.6747,2.6853,2.6892,2.8188,2.9419,3.0241,2.9862,3.0748,3.2143,2.38,2.3812,2.3812,2.4329,2.5063,2.4756,2.4824,2.5313,2.566,2.5845,2.599,2.6268,2.64,2.6426,2.6453,2.64,2.64,2.64,2.64,2.64,2.64,2.64,2.64,2.64,2.64,2.64,2.64,2.64,2.64,2.64,2.64,2.64,2.64,2.64,2.64,2.64,2.64,2.64,2.64,2.64,2.64,2.64,2.64,2.64,2.64,2.64,2.64,2.64,2.64,2.64,2.64,2.64,2.64,2.64,2.64,2.64,2.64,2.64,2.64,2.64,2.64,2.64,2.64,2.64,2.64,2.64,2.64,2.64,2.64,2.64,2.64,2.64,2.64,2.64,2.64,2.64,2.64,2.64,2.64,2.6413,2.6532,2.6612,2.6519,2.6426,2.6679,2.6894,2.6841,2.6921,2.7203,2.7256,2.7202,2.7202,2.7229,2.7188,2.6948,2.6961,2.7148,2.7148,2.7068,2.7188,2.7242,2.7269,2.7242,2.7229,2.7148,2.7148,2.7229,2.7229,2.7216,2.7676,2.7729,2.8093,2.8504,3.0858,3.2,2.4306,2.4347,2.4633,2.4959,2.5257,2.5664,2.592,2.6124,2.6543,2.6745,2.6786,2.6907,2.6988,2.6947,2.6988,2.6734,2.6413,2.64,2.64,2.64,2.64,2.64,2.64,2.64,2.64,2.64,2.64,2.64,2.64,2.64,2.64,2.64,2.64,2.64,2.64,2.64,2.64,2.64,2.64,2.64,2.6413,2.64,2.64,2.64,2.64,2.64,2.64,2.64,2.64,2.64,2.64,2.64,2.64,2.64,2.64,2.64,2.64,2.64,2.64,2.64,2.64,2.64,2.64,2.64,2.64,2.64,2.64,2.64,2.64,2.64,2.64,2.64,2.64,2.64,2.64,2.6413,2.64,2.64,2.6453,2.664,2.6814,2.6988,2.6948,2.6988,2.7028,2.7081,2.7108,2.7161,2.7269,2.7309,2.7336,2.7349,2.7456,2.7509,2.7428,2.7309,2.7296,2.7296,2.7282,2.7296,2.7322,2.7376,2.7349,2.7389,2.7403,2.7403,2.7429,2.7416,2.7416,2.7389,2.7389,2.7429,2.7336,2.9616,3.0445,2.4666,2.4885,2.5174,2.538,2.5586,2.6162,2.6421,2.6462,2.69,2.705,2.7091,2.7227,2.7309,2.7309,2.7309,2.7108,2.668,2.6587,2.6533,2.652,2.644,2.64,2.64,2.64,2.64,2.6413,2.6493,2.6573,2.6667,2.6667,2.668,2.668,2.6667,2.6707,2.6667,2.6707,2.672,2.6667,2.6707,2.668,2.6667,2.6667,2.6667,2.6707,2.668,2.6573,2.6413,2.64,2.64,2.64,2.64,2.64,2.64,2.64,2.64,2.64,2.64,2.64,2.64,2.64,2.64,2.64,2.64,2.64,2.64,2.6466,2.652,2.6533,2.6627,2.6667,2.6667,2.668,2.6667,2.6573,2.6613,2.6707,2.668,2.668,2.6774,2.6947,2.7162,2.7269,2.7309,2.7296,2.7336,2.7416,2.7402,2.7469,2.7563,2.759,2.759,2.7603,2.7764,2.7871,2.7844,2.7737,2.7684,2.7684,2.763,2.7563,2.7523,2.7536,2.7536,2.7563,2.7576,2.759,2.759,2.7576,2.7576,2.7563,2.7657,2.7764,2.7932,2.829,2.9371,2.4897,2.5306,2.531,2.5607,2.6004,2.6128,2.609,2.6239,2.6583,2.6856,2.6964,2.7158,2.7416,2.7362,2.7416,2.7336,2.7269,2.7001,2.6854,2.68,2.6573,2.6466,2.648,2.6493,2.6493,2.6493,2.6707,2.6961,2.7215,2.7215,2.7229,2.7269,2.7229,2.7188,2.7269,2.7215,2.7255,2.7229,2.7215,2.7255,2.7296,2.7242,2.7215,2.7242,2.7242,2.7001,2.6466,2.6426,2.6426,2.6426,2.64,2.64,2.64,2.64,2.64,2.64,2.64,2.6413,2.6413,2.6453,2.6493,2.6493,2.644,2.6493,2.6547,2.6694,2.6827,2.6854,2.7081,2.7255,2.7242,2.7255,2.7121,2.6907,2.7014,2.7202,2.7242,2.7282,2.7309,2.7322,2.7376,2.7322,2.7336,2.7416,2.7523,2.7684,2.775,2.7817,2.7991,2.8031,2.8125,2.8125,2.8085,2.8072,2.8125,2.8179,2.8165,2.8138,2.8072,2.8018,2.7951,2.7938,2.7911,2.7924,2.7911,2.7924,2.7911,2.7911,2.7965,2.7978,2.8058,2.8073,2.8229,2.855,2.9369,2.5433,2.5855,2.5855,2.6108,2.6571,2.6877,2.7045,2.7087,2.7493,2.7689,2.7731,2.7869,2.7911,2.7911,2.7911,2.7898,2.7884,2.7603,2.7321,2.7134,2.7028,2.7015,2.7015,2.7028,2.7041,2.7041,2.7122,2.7215,2.7296,2.7322,2.7309,2.7309,2.7322,2.7309,2.7336,2.7309,2.7309,2.7309,2.7309,2.7309,2.7309,2.7309,2.7309,2.7309,2.7309,2.7202,2.7001,2.68,2.6694,2.668,2.6493,2.64,2.64,2.64,2.64,2.6413,2.6587,2.668,2.672,2.6867,2.7001,2.7028,2.7015,2.7028,2.7041,2.7068,2.7134,2.7121,2.7255,2.7309,2.7336,2.7455,2.7428,2.7161,2.7255,2.7336,2.7376,2.7455,2.7549,2.7589,2.7777,2.7898,2.7898,2.7898,2.7898,2.7978,2.8018,2.8098,2.8152,2.8192,2.8179,2.8179,2.8192,2.8192,2.8192,2.8192,2.8192,2.8192,2.8192,2.8192,2.8192,2.8192,2.8192,2.8192,2.8192,2.8192,2.8192,2.8192,2.8192,2.8192,2.8138,2.8181,2.8263,2.8684,2.93,2.5562,2.5848,2.6018,2.6358,2.6838,2.7304,2.7601,2.777,2.8065,2.8192,2.8179,2.8179,2.8192,2.8192,2.8192,2.8192,2.8165,2.7978,2.7804,2.7603,2.7362,2.7309,2.7309,2.7309,2.7376,2.7415,2.7428,2.7536,2.763,2.763,2.763,2.7643,2.763,2.7643,2.763,2.763,2.763,2.763,2.7643,2.763,2.763,2.763,2.763,2.763,2.763,2.763,2.7617,2.7308,2.7094,2.6987,2.6841,2.672,2.676,2.6774,2.672,2.6747,2.6867,2.6987,2.7001,2.7134,2.7309,2.7309,2.7309,2.7296,2.7322,2.7376,2.7469,2.7469,2.759,2.763,2.767,2.7777,2.7762,2.767,2.7657,2.763,2.7657,2.7791,2.7884,2.7938,2.8058,2.8165,2.8192,2.8192,2.8192,2.8192,2.8192,2.8192,2.8192,2.8192,2.8192,2.8192,2.8192,2.8192,2.8192,2.8192,2.8192,2.8192,2.8192,2.8192,2.8192,2.8192,2.8192,2.8192,2.8192,2.8192,2.8192,2.8192,2.8192,2.8192,2.8192,2.8221,2.8221,2.8221,2.8642,2.5391,2.5519,2.5933,2.6443,2.691,2.7389,2.7812,2.8136,2.8192,2.8192,2.8192,2.8192,2.8192,2.8192,2.8192,2.8192,2.8179,2.8165,2.8125,2.7978,2.7684,2.7443,2.7456,2.7456,2.7576,2.7696,2.7722,2.7898,2.8072,2.8085,2.8192,2.8112,2.8085,2.8165,2.8098,2.8165,2.8112,2.8098,2.8125,2.8125,2.8125,2.8138,2.8138,2.8125,2.8125,2.8112,2.8058,2.7844,2.7549,2.7349,2.7242,2.7215,2.7269,2.7309,2.7242,2.7229,2.7309,2.7281,2.7336,2.7416,2.7443,2.7456,2.7456,2.7349,2.7456,2.7602,2.7722,2.7736,2.7965,2.8125,2.8125,2.8138,2.8138,2.8165,2.8085,2.8085,2.8165,2.8152,2.8125,2.8152,2.8179,2.8192,2.8192,2.8192,2.8192,2.8192,2.8192,2.8192,2.8192,2.8192,2.8192,2.8192,2.8192,2.8192,2.8192,2.8192,2.8192,2.8192,2.8192,2.8192,2.8192,2.8192,2.8192,2.8192,2.8192,2.8192,2.8192,2.8192,2.8192,2.8192,2.8192,2.8192,2.8192,2.8192,2.8261,2.5604,2.5976,2.6443,2.6881,2.7347,2.7812,2.8065,2.8179,2.8192,2.8192,2.8192,2.8192,2.8192,2.8192,2.8192,2.8192,2.8192,2.8192,2.8192,2.8165,2.8058,2.7965,2.7951,2.7951,2.7978,2.8045,2.8045,2.8112,2.8179,2.8192,2.8192,2.8192,2.8192,2.8192,2.8192,2.8192,2.8192,2.8192,2.8192,2.8192,2.8192,2.8192,2.8192,2.8192,2.8192,2.8192,2.8192,2.8112,2.7817,2.7349,2.7309,2.7309,2.7336,2.7349,2.7362,2.7376,2.7482,2.7575,2.767,2.7817,2.7924,2.7951,2.7898,2.7951,2.7951,2.8018,2.8072,2.8085,2.8165,2.8192,2.8192,2.8192,2.8192,2.8192,2.8192,2.8192,2.8192,2.8192,2.8192,2.8192,2.8192,2.8192,2.8192,2.8192,2.8192,2.8192,2.8192,2.8192,2.8192,2.8192,2.8192,2.8192,2.8192,2.8192,2.8192,2.8192,2.8192,2.8192,2.8192,2.8192,2.8192,2.8192,2.8192,2.8192,2.8192,2.8192,2.8192,2.8192,2.8192,2.8286,2.8286,2.8339,2.8245,2.8219,2.8259,2.5976,2.6401,2.6698,2.7093,2.7529,2.777,2.8023,2.8192,2.8192,2.8192,2.8192,2.8192,2.8192,2.8192,2.8192,2.8192,2.8192,2.8192,2.8192,2.8192,2.8165,2.8165,2.8179,2.8179,2.8192,2.8192,2.8192,2.8179,2.8192,2.8192,2.8192,2.8192,2.8192,2.8192,2.8192,2.8192,2.8192,2.8192,2.8192,2.8192,2.8192,2.8192,2.8192,2.8192,2.8192,2.8192,2.8192,2.8179,2.8005,2.775,2.7684,2.767,2.7684,2.767,2.767,2.7684,2.7802,2.7924,2.7951,2.8098,2.8179,2.8179,2.8192,2.8192,2.8165,2.8192,2.8192,2.8179,2.8192,2.8192,2.8192,2.8192,2.8192,2.8192,2.8192,2.8192,2.8192,2.8192,2.8192,2.8192,2.8192,2.8192,2.8192,2.8192,2.8192,2.8192,2.8192,2.8192,2.8192,2.8192,2.8192,2.8192,2.8192,2.8192,2.8192,2.8192,2.8192,2.8192,2.8192,2.8192,2.8219,2.8219,2.8205,2.8205,2.8192,2.8232,2.8312,2.8406,2.8457,2.8524,2.8484,2.8497,2.847,2.8433,2.8446,2.6401,2.6783,2.6838,2.7093,2.7487,2.7571,2.7854,2.8136,2.8192,2.8192,2.8192,2.8192,2.8192,2.8192,2.8192,2.8192,2.8192,2.8192,2.8192,2.8192,2.8192,2.8192,2.8192,2.8192,2.8192,2.8192,2.8192,2.8192,2.8192,2.8192,2.8192,2.8192,2.8192,2.8192,2.8192,2.8192,2.8192,2.8192,2.8192,2.8192,2.8192,2.8192,2.8192,2.8192,2.8192,2.8192,2.8192,2.8192,2.8152,2.8179,2.8192,2.8125,2.8138,2.8165,2.8152,2.8125,2.8112,2.8152,2.8165,2.8165,2.8192,2.8192,2.8192,2.8192,2.8192,2.8192,2.8192,2.8192,2.8192,2.8192,2.8192,2.8192,2.8192,2.8192,2.8192,2.8192,2.8192,2.8192,2.8192,2.8192,2.8192,2.8192,2.8192,2.8192,2.8192,2.8192,2.8192,2.8192,2.8192,2.8192,2.8192,2.8192,2.8192,2.8192,2.8192,2.8192,2.8192,2.8192,2.8192,2.8205,2.8286,2.8299,2.8259,2.8259,2.8339,2.8457,2.8617,2.8711,2.8778,2.8804,2.8778,2.8841,2.8935,2.8788,2.8778,2.6698,2.6825,2.7177,2.7389,2.7571,2.7897,2.8108,2.8192,2.8192,2.8192,2.8192,2.8192,2.8192,2.8192,2.8192,2.8192,2.8192,2.8192,2.8192,2.8192,2.8192,2.8192,2.8192,2.8192,2.8192,2.8192,2.8192,2.8192,2.8192,2.8192,2.8192,2.8192,2.8192,2.8192,2.8192,2.8192,2.8192,2.8192,2.8192,2.8192,2.8192,2.8192,2.8192,2.8192,2.8192,2.8192,2.8192,2.8192,2.8192,2.8192,2.8192,2.8192,2.8192,2.8192,2.8192,2.8192,2.8192,2.8192,2.8192,2.8192,2.8192,2.8192,2.8192,2.8192,2.8192,2.8192,2.8192,2.8192,2.8192,2.8192,2.8192,2.8192,2.8192,2.8192,2.8192,2.8192,2.8192,2.8192,2.8192,2.8192,2.8192,2.8192,2.8192,2.8192,2.8192,2.8192,2.8192,2.8192,2.8192,2.8192,2.8192,2.8192,2.8192,2.8192,2.8192,2.8205,2.8232,2.8272,2.8286,2.8366,2.846,2.846,2.846,2.8457,2.8511,2.8641,2.8855,2.8921,2.9018,2.9001,2.9055,2.9121,2.9161,2.9095,2.9121,2.7249,2.7474,2.7728,2.7812,2.7854,2.8108,2.8192,2.8192,2.8192,2.8192,2.8192,2.8192,2.8192,2.8192,2.8192,2.8192,2.8192,2.8192,2.8192,2.8192,2.8192,2.8192,2.8192,2.8192,2.8192,2.8192,2.8192,2.8192,2.8192,2.8192,2.8192,2.8192,2.8192,2.8192,2.8192,2.8192,2.8192,2.8192,2.8192,2.8192,2.8192,2.8192,2.8192,2.8192,2.8192,2.8192,2.8192,2.8192,2.8192,2.8192,2.8192,2.8192,2.8192,2.8192,2.8192,2.8192,2.8192,2.8192,2.8192,2.8192,2.8192,2.8192,2.8192,2.8192,2.8192,2.8192,2.8192,2.8192,2.8192,2.8192,2.8192,2.8192,2.8192,2.8192,2.8192,2.8192,2.8192,2.8192,2.8192,2.8192,2.8192,2.8192,2.8192,2.8192,2.8192,2.8192,2.8192,2.8192,2.8192,2.8192,2.8192,2.8192,2.8192,2.8192,2.8192,2.8219,2.8299,2.8379,2.843,2.8577,2.8738,2.8711,2.8657,2.8724,2.8818,2.8978,2.9152,2.9205,2.9312,2.9459,2.9482,2.9472,2.9459,2.9468,2.9495,2.7854,2.8192,2.8192,2.8192,2.8192,2.8192,2.8192,2.8192,2.8192,2.8192,2.8192,2.8192,2.8192,2.8192,2.8192,2.8192,2.8192,2.8192,2.8192,2.8192,2.8192,2.8192,2.8192,2.8192,2.8192,2.8192,2.8192,2.8192,2.8192,2.8192,2.8192,2.8192,2.8192,2.8192,2.8192,2.8192,2.8192,2.8192,2.8192,2.8192,2.8192,2.8192,2.8192,2.8192,2.8192,2.8192,2.8192,2.8192,2.8192,2.8192,2.8192,2.8192,2.8192,2.8192,2.8192,2.8192,2.8192,2.8192,2.8192,2.8192,2.8192,2.8192,2.8192,2.8192,2.8192,2.8192,2.8192,2.8192,2.8192,2.8192,2.8192,2.8192,2.8192,2.8192,2.8192,2.8192,2.8192,2.8192,2.8192,2.8192,2.8192,2.8192,2.8192,2.8192,2.8192,2.8192,2.8192,2.8192,2.8192,2.8192,2.8192,2.8192,2.8192,2.8312,2.8339,2.8393,2.8446,2.8564,2.8671,2.8845,2.8988,2.9045,2.9018,2.9058,2.9108,2.9299,2.9419,2.9513,2.9659,2.9873,2.986,2.9726,2.9766,2.99,2.986,2.815,2.8192,2.8192,2.8192,2.8192,2.8192,2.8192,2.8192,2.8192,2.8192,2.8192,2.8179,2.8179,2.8094,2.8179,2.8136,2.7757,2.7757,2.7883,2.7883,2.801,2.8179,2.7883,2.7841,2.8052,2.8192,2.7926,2.7757,2.8179,2.8192,2.8192,2.8192,2.8192,2.8192,2.8192,2.8192,2.8192,2.8192,2.8192,2.8192,2.8192,2.8192,2.8192,2.8192,2.8192,2.8192,2.8192,2.8192,2.8192,2.8192,2.8192,2.8192,2.8192,2.8192,2.8192,2.8192,2.8192,2.8192,2.8192,2.8192,2.8192,2.8192,2.8192,2.8192,2.8192,2.8192,2.8192,2.8192,2.8192,2.8192,2.8192,2.8192,2.8192,2.8192,2.8192,2.8192,2.8192,2.8192,2.8192,2.8192,2.8192,2.8192,2.8192,2.8192,2.8192,2.8192,2.8192,2.8192,2.8192,2.8192,2.8192,2.8192,2.8192,2.8366,2.8497,2.8551,2.8631,2.8858,2.8991,2.9125,2.9285,2.9366,2.9406,2.9406,2.9432,2.9526,2.9659,2.9766,2.9833,2.99,2.9913,2.9913,2.9913,2.9913,2.9913,2.8192,2.8192,2.8192,2.8192,2.8192,2.8192,2.8192,2.8192,2.8192,2.8192,2.8192,2.8179,2.7617,2.6969,2.6758,2.6278,2.5726,2.6448,2.6151,2.5811,2.7109,2.7532,2.6885,2.6758,2.7448,2.7321,2.6503,2.6588,2.801,2.8192,2.8094,2.8192,2.8192,2.8192,2.8192,2.8192,2.8192,2.8192,2.8192,2.8192,2.8192,2.8192,2.8192,2.8192,2.8192,2.8192,2.8192,2.8192,2.8192,2.8192,2.8192,2.8192,2.8192,2.8192,2.8192,2.8192,2.8192,2.8192,2.8192,2.8192,2.8192,2.8192,2.8192,2.8192,2.8192,2.8192,2.8192,2.8192,2.8192,2.8192,2.8192,2.8192,2.8192,2.8192,2.8192,2.8192,2.8192,2.8192,2.8192,2.8192,2.8192,2.8192,2.8192,2.8192,2.8192,2.8192,2.8192,2.8192,2.8192,2.8192,2.8192,2.8272,2.8312,2.8524,2.8724,2.8818,2.8938,2.9152,2.9242,2.9419,2.9526,2.9619,2.9673,2.97,2.9753,2.974,2.9793,2.986,2.9887,2.9913,2.9913,2.9913,2.9913,2.9913,2.9913,2.8272,2.8286,2.8339,2.8366,2.8366,2.8366,2.8111,2.7843,2.7728,2.7401,2.7191,2.7034,2.6222,2.5273,2.4754,2.4106,2.2761,2.4337,2.3995,2.3749,2.5385,2.6066,2.5257,2.499,2.5428,2.5853,2.4563,2.4563,2.7448,2.763,2.7575,2.7405,2.7532,2.7617,2.749,2.7321,2.7714,2.8192,2.8192,2.8192,2.8192,2.8192,2.8192,2.8192,2.8192,2.8192,2.8192,2.8192,2.8192,2.8192,2.8192,2.8192,2.8192,2.8192,2.8192,2.8192,2.8192,2.8192,2.8192,2.8192,2.8192,2.8192,2.8192,2.8192,2.8192,2.8192,2.8192,2.8192,2.8192,2.8192,2.8192,2.8192,2.8192,2.8192,2.8192,2.8192,2.8192,2.8192,2.8192,2.8192,2.8192,2.8192,2.8192,2.8192,2.8192,2.8192,2.8192,2.8192,2.8192,2.8192,2.8219,2.8353,2.847,2.8751,2.8951,2.9112,2.9272,2.9499,2.9579,2.9646,2.9753,2.986,2.9873,2.9847,2.986,2.9847,2.99,2.9913,2.9913,2.9913,2.9913,2.9913,2.9913,2.9913,2.9913,2.8551,2.8577,2.8818,2.8895,2.8868,2.8855,2.7887,2.6598,2.653,2.5328,2.4469,2.393,2.3908,2.338,2.3097,2.2826,2.2665,2.2654,2.2622,2.2201,2.3245,2.3609,2.2966,2.2923,2.3266,2.3695,2.2837,2.4819,2.6588,2.6248,2.5768,2.5726,2.5726,2.5726,2.5726,2.6024,2.6588,2.7841,2.8136,2.8192,2.8192,2.8192,2.8192,2.8192,2.8192,2.8192,2.8192,2.8192,2.8192,2.8192,2.8192,2.8192,2.8192,2.8192,2.8192,2.8192,2.8192,2.8192,2.8192,2.8192,2.8192,2.8192,2.8192,2.8192,2.8192,2.8192,2.8192,2.8192,2.8192,2.8192,2.8192,2.8192,2.8192,2.8192,2.8192,2.8192,2.8192,2.8192,2.8192,2.8192,2.8192,2.8192,2.8192,2.8192,2.8192,2.8192,2.8192,2.8192,2.8192,2.8192,2.8379,2.8524,2.8657,2.8925,2.9259,2.9406,2.9513,2.9766,2.9793,2.982,2.986,2.9913,2.9913,2.99,2.9913,2.9913,2.9913,2.9913,2.9913,2.9913,2.9913,2.9913,2.9913,2.9913,2.9913,2.9005,2.8815,2.8948,2.9001,2.9001,2.9001,2.8539,2.7653,2.6533,2.5642,2.4705,2.3598,2.2666,2.1631,2.0518,1.9828,1.9983,2.0749,2.0535,2.0564,2.1366,2.1943,2.1251,2.1165,2.1371,2.176,2.0982,2.1285,2.3567,2.4392,2.3824,2.3824,2.3824,2.3835,2.3964,2.4861,2.5726,2.6715,2.7532,2.8136,2.8192,2.8192,2.8192,2.8192,2.8192,2.8192,2.8192,2.8192,2.8192,2.8192,2.8192,2.8192,2.8192,2.8192,2.8192,2.8192,2.8192,2.8192,2.8192,2.8192,2.8192,2.8192,2.8192,2.8192,2.8192,2.8192,2.8192,2.8192,2.8192,2.8192,2.8192,2.8192,2.8192,2.8192,2.8192,2.8192,2.8192,2.8192,2.8192,2.8192,2.8192,2.8192,2.8192,2.8192,2.8192,2.8192,2.8192,2.8192,2.8192,2.8192,2.8473,2.8818,2.8938,2.9085,2.9459,2.9726,2.97,2.986,2.986,2.9873,2.9887,2.9913,2.9913,2.9913,2.9913,2.9913,2.9913,2.9913,2.9913,2.9913,2.9913,2.9913,2.9913,2.9913,2.9913,2.9392,2.9215,2.9215,2.9215,2.9215,2.9215,2.8543,2.7473,2.6133,2.4954,2.3918,2.245,2.099,1.9861,1.8559,1.8072,1.7842,1.8919,1.8572,1.8787,1.9561,2.0192,1.9544,1.9308,1.983,2.1241,1.8794,1.9046,2.0342,2.1198,2.1241,2.1846,2.1932,2.1943,2.2277,2.3052,2.4092,2.5726,2.7363,2.8094,2.8192,2.8192,2.8192,2.8192,2.8192,2.8192,2.8192,2.8192,2.8192,2.8192,2.8192,2.8192,2.8192,2.8192,2.8192,2.8192,2.8192,2.8192,2.8192,2.8192,2.8192,2.8192,2.8192,2.8192,2.8192,2.8192,2.8192,2.8192,2.8192,2.8192,2.8192,2.8192,2.8192,2.8192,2.8192,2.8192,2.8192,2.8192,2.8192,2.8192,2.8192,2.8192,2.8192,2.8192,2.8192,2.8192,2.8192,2.8192,2.8205,2.8219,2.8524,2.8881,2.9152,2.9299,2.9619,2.9887,2.9913,2.9913,2.9913,2.9913,2.9913,2.9913,2.9913,2.9913,2.9913,2.9913,2.9913,2.9913,2.9913,2.9913,2.9913,2.9913,2.9913,2.9913,2.9913,2.9633,2.9815,2.9847,2.982,2.982,2.9847,2.7775,2.5128,2.4423,2.2266,1.9681,1.8799,1.8782,1.82,1.8159,1.7819,1.7664,1.7722,1.7686,1.7632,1.7667,1.8002,1.775,1.7743,1.763,1.7885,1.72,1.7411,1.7674,1.8444,1.8968,1.9873,2.0385,2.0221,2.0645,2.1684,2.3309,2.5203,2.7236,2.8136,2.8192,2.8192,2.8192,2.8192,2.8192,2.8192,2.8192,2.8192,2.8192,2.8192,2.8192,2.8192,2.8192,2.8192,2.8192,2.8192,2.8192,2.8192,2.8192,2.8192,2.8192,2.8192,2.8192,2.8192,2.8192,2.8192,2.8192,2.8192,2.8192,2.8192,2.8192,2.8192,2.8192,2.8192,2.8192,2.8192,2.8192,2.8192,2.8192,2.8192,2.8192,2.8192,2.8192,2.8192,2.8192,2.8192,2.8192,2.8192,2.8286,2.8353,2.8631,2.8978,2.9272,2.9513,2.978,2.9913,2.9913,2.9913,2.9913,2.9913,2.9913,2.9913,2.9913,2.9913,2.9913,2.9913,2.9913,2.9913,2.9913,2.9913,2.9913,2.9913,2.9913,2.9913,2.9913,2.9806,2.9913,2.9913,2.9913,2.9913,2.9913,2.8346,2.5878,2.4511,2.1813,1.8176,1.8176,1.8144,1.8087,1.807,1.8046,1.7957,1.7851,1.777,1.764,1.751,1.7364,1.7258,1.7177,1.7112,1.7112,1.7112,1.7112,1.72,1.7112,1.7323,1.8278,1.9351,1.983,2.0264,2.1813,2.3867,2.5117,2.7054,2.8179,2.8192,2.8192,2.8192,2.8192,2.8192,2.8192,2.8192,2.8192,2.8192,2.8192,2.8192,2.8192,2.8192,2.8192,2.8192,2.8192,2.8192,2.8192,2.8192,2.8192,2.8192,2.8192,2.8192,2.8192,2.8192,2.8192,2.8192,2.8192,2.8192,2.8192,2.8192,2.8192,2.8192,2.8192,2.8192,2.8192,2.8192,2.8192,2.8192,2.8192,2.8192,2.8192,2.8192,2.8192,2.8192,2.8192,2.8192,2.8219,2.8326,2.8457,2.8778,2.9072,2.9379,2.9606,2.986,2.99,2.9913,2.9913,2.9913,2.9913,2.9913,2.9913,2.9913,2.9913,2.9913,2.9913,2.9913,2.9913,2.9913,2.9913,2.9913,2.9913,2.9913,2.9913,2.9913,2.9913,2.9913,2.9913,2.9913,2.9913,2.9913,2.8449,2.6105,2.4602,2.1803,1.8269,1.8176,1.8176,1.8176,1.8176,1.8168,1.8119,1.8038,1.7965,1.7843,1.7681,1.7494,1.7372,1.7266,1.7185,1.7136,1.7112,1.7112,1.7112,1.7112,1.72,1.7762,1.8881,1.97,2.0732,2.3309,2.5117,2.516,2.6885,2.8136,2.8192,2.8192,2.8192,2.8192,2.8192,2.8192,2.8192,2.8192,2.8192,2.8192,2.8192,2.8192,2.8192,2.8192,2.8192,2.8192,2.8192,2.8192,2.8192,2.8192,2.8192,2.8192,2.8192,2.8192,2.8192,2.8192,2.8192,2.8192,2.8192,2.8192,2.8192,2.8192,2.8192,2.8192,2.8192,2.8192,2.8192,2.8192,2.8192,2.8192,2.8192,2.8192,2.8192,2.8192,2.8192,2.8192,2.8192,2.8272,2.843,2.8631,2.8911,2.9205,2.9486,2.97,2.9828,2.99,2.9913,2.9913,2.9913,2.9913,2.9913,2.9913,2.9913,2.9913,2.9913,2.9913,2.9913,2.9913,2.9913,2.9913,2.9913,2.9913,2.9913,2.9913,2.9913,2.9913,2.9913,2.9913,2.9869,2.9734,2.9869,2.7715,2.4511,2.3642,2.1527,1.8363,1.8176,1.8176,1.8176,1.8176,1.8176,1.8176,1.8152,1.8079,1.7949,1.7851,1.7672,1.7494,1.7356,1.725,1.7145,1.7112,1.7112,1.7112,1.7112,1.7112,1.763,1.8881,1.9917,2.0264,2.3492,2.4306,2.3481,2.6418,2.7575,2.8192,2.8192,2.8192,2.8192,2.8192,2.8192,2.8192,2.8192,2.8192,2.8192,2.8192,2.8192,2.8192,2.8192,2.8192,2.8192,2.8192,2.8192,2.8192,2.8192,2.8192,2.8192,2.8192,2.8192,2.8192,2.8192,2.8192,2.8192,2.8192,2.8192,2.8192,2.8192,2.8192,2.8192,2.8192,2.8192,2.8192,2.8192,2.8192,2.8192,2.8192,2.8192,2.8192,2.8192,2.8192,2.8192,2.8192,2.8326,2.8511,2.8831,2.9125,2.9312,2.9593,2.9753,2.99,2.99,2.9913,2.9913,2.9913,2.9913,2.9913,2.9913,2.9913,2.9913,2.9913,2.9913,2.9913,2.9913,2.9913,2.9913,2.9913,2.9913,2.9913,2.9913,2.9913,2.9913,2.9913,2.9913,2.9137,2.8076,2.7985,2.6423,2.3825,2.1388,1.9416,1.8447,1.8176,1.8176,1.8176,1.8176,1.8176,1.8176,1.8176,1.8111,1.8079,1.7981,1.7786,1.7591,1.7437,1.7307,1.7161,1.7112,1.7112,1.7112,1.7112,1.7112,1.7543,1.8837,1.9786,2.0472,2.232,2.3052,2.3094,2.5075,2.6842,2.801,2.8192,2.8192,2.8192,2.8192,2.8192,2.8192,2.8192,2.8192,2.8192,2.8192,2.8192,2.8192,2.8192,2.8192,2.8192,2.8192,2.8192,2.8192,2.8192,2.8192,2.8192,2.8192,2.8192,2.8192,2.8192,2.8192,2.8192,2.8192,2.8192,2.8192,2.8192,2.8192,2.8192,2.8192,2.8192,2.8192,2.8192,2.8192,2.8192,2.8192,2.8192,2.8192,2.8205,2.8205,2.8339,2.8379,2.8473,2.8617,2.9032,2.9379,2.9472,2.9659,2.9806,2.9913,2.9913,2.9913,2.9913,2.9913,2.9913,2.9913,2.9913,2.9913,2.9913,2.9913,2.9913,2.9913,2.9913,2.9913,2.9913,2.9913,2.9913,2.9913,2.9913,2.9913,2.9913,2.9824,2.9182,2.8211,2.7114,2.7024,2.5548,2.277,1.9648,1.8176,1.8176,1.8176,1.8176,1.8176,1.8176,1.8176,1.8176,1.8176,1.8176,1.816,1.807,1.7908,1.7737,1.7506,1.7404,1.7234,1.7136,1.7112,1.7112,1.7112,1.7112,1.7543,1.8925,1.97,2.0645,2.2105,2.3824,2.4349,2.5896,2.7194,2.7968,2.8192,2.8192,2.8192,2.8192,2.8192,2.8192,2.8192,2.8192,2.8192,2.8192,2.8192,2.8192,2.8192,2.8192,2.8192,2.8192,2.8192,2.8192,2.8192,2.8192,2.8192,2.8192,2.8192,2.8192,2.8192,2.8192,2.8192,2.8192,2.8192,2.8192,2.8192,2.8192,2.8192,2.8192,2.8192,2.8192,2.8192,2.8192,2.8192,2.8192,2.8192,2.8192,2.8219,2.8232,2.8419,2.8551,2.8657,2.8778,2.9179,2.9553,2.9659,2.9726,2.9847,2.9913,2.9913,2.9913,2.9913,2.9913,2.9913,2.9913,2.9913,2.9913,2.9913,2.9913,2.9913,2.9913,2.9913,2.9913,2.9913,2.9913,2.9913,2.9913,2.9913,2.9913,2.9855,2.9554,2.7805,2.6933,2.674,2.615,2.418,2.0936,1.9044,1.8176,1.8176,1.8176,1.8176,1.8176,1.8176,1.8176,1.8176,1.8176,1.8176,1.8176,1.8135,1.8022,1.7875,1.7651,1.7502,1.7348,1.7226,1.7112,1.7112,1.7112,1.7112,1.7718,1.9143,2.0221,2.1597,2.3277,2.4819,2.5331,2.6109,2.7321,2.801,2.8192,2.8192,2.8192,2.8192,2.8192,2.8192,2.8192,2.8192,2.8192,2.8192,2.8192,2.8192,2.8192,2.8192,2.8192,2.8192,2.8192,2.8192,2.8192,2.8192,2.8192,2.8192,2.8192,2.8192,2.8192,2.8192,2.8192,2.8192,2.8192,2.8192,2.8192,2.8192,2.8192,2.8192,2.8192,2.8192,2.8192,2.8192,2.8192,2.8192,2.8192,2.8205,2.8232,2.8366,2.8567,2.8751,2.8978,2.9112,2.9325,2.9646,2.9806,2.986,2.9887,2.9913,2.9913,2.9913,2.9913,2.9913,2.9913,2.9913,2.9913,2.9913,2.9913,2.9913,2.9913,2.9913,2.9913,2.9913,2.9913,2.9913,2.9913,2.9913,2.9913,2.9913,2.8897,2.7792,2.725,2.5366,2.277,2.1342,2.001,1.896,1.8363,1.8176,1.8176,1.8176,1.8176,1.8176,1.8176,1.8176,1.8176,1.8176,1.8176,1.8176,1.8176,1.8054,1.7908,1.7692,1.7551,1.738,1.7234,1.7112,1.7112,1.7112,1.8103,1.9143,2.0004,2.1381,2.318,2.4861,2.5331,2.5726,2.6461,2.7194,2.7968,2.8192,2.8192,2.8192,2.8192,2.8192,2.8192,2.8192,2.8192,2.8192,2.8192,2.8192,2.8192,2.8192,2.8192,2.8192,2.8192,2.8192,2.8192,2.8192,2.8192,2.8192,2.8192,2.8192,2.8192,2.8192,2.8192,2.8192,2.8192,2.8192,2.8192,2.8192,2.8192,2.8192,2.8192,2.8192,2.8192,2.8192,2.8192,2.8192,2.8192,2.8232,2.8245,2.8393,2.8511,2.8711,2.8938,2.9192,2.9406,2.9593,2.9713,2.9873,2.9913,2.9913,2.9913,2.9913,2.9913,2.9913,2.9913,2.9913,2.9913,2.9913,2.9913,2.9913,2.9913,2.9913,2.9913,2.9913,2.9913,2.9913,2.9913,2.9913,2.9913,2.9913,2.9913,2.6692,2.5775,2.4956,2.2806,2.0066,1.8727,1.8176,1.8176,1.8176,1.8176,1.8176,1.8176,1.8176,1.8176,1.8176,1.8176,1.8176,1.8176,1.8176,1.8176,1.8176,1.8119,1.7973,1.7732,1.7562,1.7384,1.7258,1.7112,1.7236,1.806,1.9012,1.983,2.0905,2.3191,2.4947,2.6024,2.6546,2.663,2.68,2.7236,2.7757,2.8192,2.8192,2.8192,2.8192,2.8192,2.8192,2.8192,2.8192,2.8192,2.8192,2.8192,2.8192,2.8192,2.8192,2.8192,2.8192,2.8192,2.8192,2.8192,2.8192,2.8192,2.8192,2.8192,2.8192,2.8192,2.8192,2.8192,2.8192,2.8192,2.8192,2.8192,2.8192,2.8192,2.8192,2.8192,2.8192,2.8192,2.8192,2.8192,2.8219,2.8272,2.8379,2.8511,2.8751,2.9018,2.9232,2.9419,2.9606,2.9753,2.982,2.99,2.9913,2.9913,2.9913,2.9913,2.9913,2.9913,2.9913,2.9913,2.9913,2.9913,2.9913,2.9913,2.9913,2.9913,2.9913,2.9913,2.9913,2.9913,2.9913,2.9913,2.9913,2.9913,2.9913,2.3817,2.3596,2.1721,2.001,1.8363,1.8223,1.8176,1.8176,1.8176,1.8176,1.8176,1.8176,1.8176,1.8176,1.8176,1.8176,1.8176,1.8176,1.8176,1.8176,1.8176,1.8152,1.8054,1.7851,1.7643,1.7489,1.7356,1.7169,1.7551,1.8191,1.9055,2.0168,2.2837,2.4904,2.6024,2.7181,2.7617,2.763,2.7714,2.7968,2.8052,2.8192,2.8192,2.8192,2.8192,2.8192,2.8192,2.8192,2.8192,2.8192,2.8192,2.8192,2.8192,2.8192,2.8192,2.8192,2.8192,2.8192,2.8192,2.8192,2.8192,2.8192,2.8192,2.8192,2.8192,2.8192,2.8192,2.8192,2.8192,2.8192,2.8192,2.8192,2.8192,2.8192,2.8192,2.8192,2.8192,2.8192,2.8192,2.8219,2.8326,2.8393,2.8553,2.8684,2.9005,2.9325,2.9539,2.9673,2.9753,2.9873,2.99,2.9913,2.9913,2.9913,2.9913,2.9913,2.9913,2.9913,2.9913,2.9913,2.9913,2.9913,2.9913,2.9913,2.9913,2.9913,2.9913,2.9913,2.9913,2.9913,2.9913,2.9913,2.9913,2.9913,2.9913,2.2764,2.1619,1.9694,1.8587,1.8223,1.8176,1.8176,1.8176,1.8176,1.8176,1.8176,1.8176,1.8176,1.8176,1.8176,1.8176,1.8176,1.8176,1.8176,1.8176,1.8176,1.8176,1.8144,1.794,1.7732,1.7562,1.7429,1.7218,1.7392,1.8016,1.9438,2.1673,2.3652,2.4733,2.7152,2.8179,2.8179,2.8192,2.8192,2.8192,2.8192,2.8192,2.8192,2.8192,2.8192,2.8192,2.8192,2.8192,2.8192,2.8192,2.8192,2.8192,2.8192,2.8192,2.8192,2.8192,2.8192,2.8192,2.8192,2.8192,2.8192,2.8192,2.8192,2.8192,2.8192,2.8192,2.8192,2.8192,2.8192,2.8192,2.8192,2.8192,2.8192,2.8192,2.8192,2.8192,2.8192,2.8192,2.8192,2.8286,2.8393,2.8511,2.8671,2.8938,2.9259,2.9513,2.9726,2.9847,2.9833,2.99,2.99,2.9913,2.9913,2.9913,2.9913,2.9913,2.9913,2.9913,2.9913,2.9913,2.9913,2.9913,2.9913,2.9913,2.9913,2.9913,2.9913,2.9913,2.9913,2.9913,2.9913,2.9913,2.9913,2.9913,2.9913,2.0324,1.9571,1.8647,1.8176,1.8176,1.8176,1.8176,1.8176,1.8176,1.8176,1.8176,1.8176,1.8176,1.8176,1.8176,1.8176,1.8176,1.8176,1.8176,1.8176,1.8176,1.8176,1.8103,1.8005,1.7765,1.7587,1.738,1.7229,1.7208,1.841,2.0091,2.2363,2.3309,2.5075,2.7883,2.8192,2.8192,2.8192,2.8192,2.8192,2.8192,2.8192,2.8192,2.8192,2.8192,2.8192,2.8192,2.8192,2.8192,2.8192,2.8192,2.8192,2.8192,2.8192,2.8192,2.8192,2.8192,2.8192,2.8192,2.8192,2.8192,2.8192,2.8192,2.8192,2.8192,2.8192,2.8192,2.8192,2.8192,2.8192,2.8192,2.8192,2.8192,2.8192,2.8192,2.8192,2.8192,2.8192,2.8192,2.8219,2.8406,2.8644,2.8845,2.9125,2.9432,2.9686,2.9887,2.99,2.9913,2.9913,2.9913,2.9913,2.9913,2.9913,2.9913,2.9913,2.9913,2.9913,2.9913,2.9913,2.9913,2.9913,2.9913,2.9913,2.9913,2.9913,2.9913,2.9913,2.9913,2.9913,2.9913,2.9913,2.9913,2.99,2.9873,1.782,1.7924,1.8149,1.8176,1.8176,1.8176,1.8176,1.8176,1.8176,1.8176,1.8176,1.8176,1.8176,1.8176,1.8176,1.8176,1.8176,1.8176,1.8176,1.8176,1.8176,1.8176,1.8127,1.803,1.7851,1.7546,1.7307,1.7193,1.7156,1.8322,1.9873,2.2363,2.4294,2.6066,2.7575,2.8192,2.8192,2.8192,2.8192,2.8192,2.8192,2.8192,2.8192,2.8192,2.8192,2.8192,2.8192,2.8192,2.8192,2.8192,2.8192,2.8192,2.8192,2.8192,2.8192,2.8192,2.8192,2.8192,2.8192,2.8192,2.8192,2.8192,2.8192,2.8192,2.8192,2.8192,2.8192,2.8192,2.8192,2.8192,2.8192,2.8192,2.8192,2.8192,2.8192,2.8192,2.8192,2.8192,2.8192,2.8205,2.8444,2.8708,2.8961,2.9299,2.9593,2.9833,2.9913,2.9913,2.9913,2.9913,2.9913,2.9913,2.9913,2.9913,2.9913,2.9913,2.9913,2.9913,2.9913,2.9913,2.9913,2.9913,2.9913,2.9913,2.9913,2.9913,2.9913,2.9913,2.9913,2.9913,2.9913,2.9913,2.9873,2.986,2.982,1.7624,1.7932,1.8103,1.8176,1.8176,1.8176,1.8176,1.8176,1.8176,1.8176,1.8176,1.8176,1.8176,1.8176,1.8176,1.8176,1.8176,1.8176,1.8176,1.8176,1.8176,1.8176,1.8135,1.803,1.79,1.7624,1.7271,1.7145,1.7288,1.7797,1.9438,2.2492,2.2837,2.4904,2.7799,2.8192,2.8192,2.8192,2.8192,2.8192,2.8192,2.8192,2.8192,2.8192,2.8192,2.8192,2.8192,2.8192,2.8192,2.8192,2.8192,2.8192,2.8192,2.8192,2.8192,2.8192,2.8192,2.8192,2.8192,2.8192,2.8192,2.8192,2.8192,2.8192,2.8192,2.8192,2.8192,2.8192,2.8192,2.8192,2.8192,2.8192,2.8192,2.8192,2.8192,2.8192,2.8192,2.8192,2.8192,2.8366,2.8604,2.8775,2.8961,2.9352,2.9753,2.9913,2.9913,2.9913,2.9913,2.9913,2.9913,2.9913,2.9913,2.9913,2.9913,2.9913,2.9913,2.9913,2.9913,2.9913,2.9913,2.9913,2.9913,2.9913,2.9913,2.9913,2.9913,2.9913,2.9913,2.9913,2.9913,2.99,2.9847,2.9726,2.9606]},{"header":{"parameterUnit":"m.s-1","parameterCategory":1,"la1":31.0,"la2":29.5877,"lo1":-88.7671,"lo2":-86.6584,"dy":0.0162,"dx":0.0185,"nx":115,"ny":88,"refTime":"2023-09-24T12:00:00:Z","depth":0,"parameterNumber":3,"parameterNumberName":"V-component_of_WINDS"},"data":[0.0,0.0,0.0,0.0,0.0,0.0,0.0,0.0,0.0,0.0,0.0,0.0,0.0,0.0,0.0,0.0,0.0,0.0,0.0,0.0,0.0,0.0,0.0,0.0,0.0,0.0,0.0,0.0,0.0,0.0,0.0,0.0,0.0,0.0,0.0,0.0,0.0,0.0,0.0,0.0,0.0,0.0,0.0,0.0,0.0,0.0,0.0,0.0,0.0,0.0,0.0,0.0,0.0,0.0,0.0,0.0,0.0,0.0,0.0,0.0,0.0,0.0,0.0,0.0,0.0,0.0,0.0,0.0,0.0,0.0,0.0,0.0,0.0,0.0,0.0,0.0,0.0,0.0,0.0,0.0,0.0,0.0,0.0,0.0,0.0,0.0,0.0,0.0,0.0,0.0,0.0,0.0,0.0,0.0,0.0,0.0,0.0,0.0,0.0,0.0,0.0,0.0,0.0,0.0,0.0,0.0,0.0,0.0,0.0,0.0,0.0,0.0,0.0,0.0,0.0,0.0,0.0,0.0,0.0,0.0,0.0,0.0,0.0,0.0,0.0,0.0,0.0,0.0,0.0,0.0,0.0,0.0,0.0,0.0,0.0,0.0,0.0,0.0,0.0,0.0,0.0,0.0,0.0,0.0,0.0,0.0,0.0,0.0,0.0,0.0,0.0,0.0,0.0,0.0,0.0,0.0,0.0,0.0,0.0,0.0,0.0,0.0,0.0,0.0,0.0,0.0,0.0,0.0,0.0,0.0,0.0,0.0,0.0,0.0,0.0,0.0,0.0,0.0,0.0,0.0,0.0,0.0,0.0,0.0,0.0,0.0,0.0,0.0,0.0,0.0,0.0,0.0,0.0,0.0,0.0,0.0,0.0,0.0,0.0,0.0,0.0,0.0,0.0,0.0,0.0,0.0,0.0,0.0,0.0,0.0,0.0,0.0,0.0,0.0,0.0,0.0,0.0,0.0,0.0,0.0,0.0,0.0,0.0,0.0,0.0,0.0,0.0,0.0,0.0,0.0,0.0,0.0,0.0,0.0,0.0,0.0,0.0,0.0,0.0,0.0,0.0,0.0,0.0,0.0,0.0,0.0,0.0,0.0,0.0,0.0,0.0,0.0,0.0,0.0,0.0,0.0,0.0,0.0,0.0,0.0,0.0,0.0,0.0,0.0,0.0,0.0,0.0,0.0,0.0,0.0,0.0,0.0,0.0,0.0,0.0,0.0,0.0,0.0,0.0,0.0,0.0,0.0,0.0,0.0,0.0,0.0,0.0,0.0,0.0,0.0,0.0,0.0,0.0,0.0,0.0,0.0,0.0,0.0,0.0,0.0,0.0,0.0,0.0,0.0,0.0,0.0,0.0,0.0,0.0,0.0,0.0,0.0,0.0,0.0,0.0,0.0,0.0,0.0,0.0,0.0,0.0,0.0,0.0,0.0,0.0,0.0,0.0,0.0,0.0,0.0,0.0,0.0,0.0,0.0,0.0,0.0,0.0,0.0,0.0,0.0,0.0,0.0,0.0,0.0,0.0,0.0,0.0,0.0,0.0,0.0,0.0,0.0,0.0,0.0,0.0,0.0,0.0,0.0,0.0,0.0,0.0,0.0,0.0,0.0,0.0,0.0,0.0,0.0,0.0,0.0,0.0,0.0,0.0,0.0,0.0,0.0,0.0,0.0,0.0,0.0,0.0,0.0,0.0,0.0,0.0,0.0,0.0,0.0,0.0,0.0,0.0,0.0,0.0,0.0,0.0,0.0,0.0,0.0,0.0,0.0,0.0,0.0,0.0,0.0,0.0,0.0,0.0,0.0,0.0,0.0,0.0,0.0,0.0,0.0,0.0,0.0,0.0,0.0,0.0,0.0,0.0,0.0,0.0,0.0,0.0,0.0,0.0,0.0,0.0,0.0,0.0,0.0,0.0,0.0,0.0,0.0,0.0,0.0,0.0,0.0,0.0,0.0,0.0,0.0,0.0,0.0,0.0,0.0,0.0,0.0,0.0,0.0,0.0,0.0,0.0,0.0,0.0,0.0,0.0,0.0,0.0,0.0,0.0,0.0,0.0,0.0,0.0,0.0,0.0,0.0,0.0,0.0,0.0,0.0,0.0,0.0,0.0,0.0,0.0,0.0,0.0,0.0,0.0,0.0,0.0,0.0,0.0,0.0,0.0,0.0,0.0,0.0,0.0,0.0,0.0,0.0,0.0,0.0,0.0,0.0,0.0,0.0,0.0,0.0,0.0,0.0,0.0,0.0,0.0,0.0,0.0,0.0,0.0,0.0,0.0,0.0,0.0,0.0,0.0,0.0,0.0,0.0,0.0,0.0,0.0,0.0,0.0,0.0,0.0,0.0,0.0,0.0,0.0,0.0,0.0,0.0,0.0,0.0,0.0,0.0,0.0,0.0,0.0,0.0,0.0,0.0,0.0,0.0,0.0,0.0,0.0,0.0,0.0,0.0,0.0,0.0,0.0,0.0,0.0,0.0,0.0,0.0,0.0,0.0,0.0,0.0,0.0,0.0,0.0,0.0,0.0,0.0,0.0,0.0,0.0,0.0,0.0,0.0,0.0,0.0,0.0,0.0,0.0,0.0,0.0,0.0,0.0,0.0,0.0,0.0,0.0,0.0,0.0,0.0,0.0,0.0,0.0,0.0,0.0,0.0,0.0,0.0,0.0,0.0,0.0,0.0,0.0,0.0,0.0,0.0,0.0,0.0,0.0,0.0,0.0,0.0,0.0,0.0,0.0,0.0,0.0,0.0,0.0,0.0,0.0,0.0,0.0,0.0,0.0,0.0,0.0,0.0,0.0,0.0,0.0,0.0,0.0,0.0,0.0,0.0,0.0,0.0,0.0,0.0,0.0,0.0,0.0,0.0,0.0,0.0,0.0,0.0,0.0,0.0,0.0,0.0,0.0,0.0,0.0,0.0,0.0,0.0,0.0,0.0,0.0,0.0,0.0,0.0,0.0,0.0,0.0,0.0,0.0,0.0,0.0,0.0,0.0,0.0,0.0,0.0,0.0,0.0,0.0,0.0,0.0,0.0,0.0,0.0,0.0,0.0,0.0,0.0,0.0,0.0,0.0,0.0,0.0,0.0,0.0,0.0,0.0,0.0,0.0,0.0,0.0,0.0,0.0,0.0,0.0,0.0,0.0,0.0,0.0,0.0,0.0,0.0,0.0,0.0,0.0,0.0,0.0,0.0,0.0,0.0,0.0,0.0,0.0,0.0,0.0,0.0,0.0,0.0,0.0,0.0,0.0,0.0,0.0,0.0,0.0,0.0,0.0,0.0,0.0,0.0,0.0,0.0,0.0,0.0,0.0,0.0,0.0,0.0,0.0,0.0,0.0,0.0,0.0,0.0,0.0,0.0,0.0,0.0,0.0,0.0,0.0,0.0,0.0,0.0,0.0,0.0,0.0,0.0,0.0,0.0,0.0,0.0,0.0,0.0,0.0,0.0,0.0,0.0,0.0,0.0,0.0,0.0,0.0,0.0,0.0,0.0,0.0,0.0,0.0,0.0,0.0,0.0,0.0,0.0,0.0,0.0,0.0,0.0,0.0,0.0,0.0,0.0,0.0,0.0,0.0,0.0,0.0,0.0,0.0,0.0,0.0,0.0,0.0,0.0,0.0,0.0,0.0,0.0,0.0,0.0,0.0,0.0,0.0,0.0,0.0,0.0,0.0,0.0,0.0,0.0,0.0,0.0,0.0,0.0,0.0,0.0,0.0,0.0,0.0,0.0,0.0,0.0,0.0,0.0,0.0,0.0,0.0,0.0,0.0,0.0,0.0,0.0,0.0,0.0,0.0,0.0,0.0,0.0,0.0,0.0,0.0,0.0,0.0,0.0,0.0,0.0,0.0,0.0,0.0,0.0,0.0,0.0,0.0,0.0,0.0,0.0,0.0,0.0,0.0,0.0,0.0,0.0,0.0,0.0,0.0,0.0,0.0,0.0,0.0,0.0,0.0,0.0,0.0,0.0,0.0,0.0,0.0,0.0,0.0,0.0,0.0,0.0,0.0,0.0,0.0,0.0,0.0,0.0,0.0,0.0,0.0,0.0,0.0,0.0,0.0,0.0,0.0,0.0,0.0,0.0,0.0,0.0,0.0,0.0,0.0,0.0,0.0,0.0,0.0,0.0,0.0,0.0,0.0,0.0,0.0,0.0,0.0,0.0,0.0,0.0,0.0,0.0,0.0,0.0,0.0,0.0,0.0,0.0,0.0,0.0,0.0,0.0,0.0,0.0,0.0,0.0,0.0,0.0,0.0,0.0,0.0,0.0,0.9432,0.0,0.0,0.0,0.0,0.0,0.0,0.0,0.0,0.0,0.0,0.0,0.0,0.0,0.0,0.0,0.0,0.0,0.0,0.0,0.0,0.0,0.0,0.0,0.0,0.0,0.0,0.0,0.0,0.0,0.0,0.0,0.0,0.0,0.0,0.0,0.0,0.0,0.0,0.0,0.0,0.0,0.0,0.0,0.0,0.0,0.0,0.0,0.0,0.0,0.0,0.0,0.0,0.0,0.0,0.0,0.0,0.0,0.0,0.0,0.0,0.0,0.0,0.0,0.0,0.0,0.0,0.0,0.0,0.0,0.0,0.0,0.0,0.0,0.0,0.0,0.0,0.0,0.0,0.0,0.0,0.0,0.0,0.0,0.0,0.0,0.0,0.0,0.0,0.0,0.0,0.0,0.0,0.0,0.0,0.0,0.0,0.0,0.0,0.0,0.0,0.0,0.0,0.0,0.0,0.0,0.0,0.0,0.0,0.0,0.0,0.9618,0.998,1.0015,1.0006,0.9981,0.0,0.0,0.0,0.0,0.0,0.0,0.0,0.0,0.0,0.0,0.0,0.0,0.0,0.0,0.0,0.0,0.0,0.0,0.0,0.0,0.0,0.0,0.0,0.0,0.0,0.0,0.0,0.0,0.0,0.0,0.0,0.0,0.0,0.0,0.0,0.0,0.0,0.0,0.0,0.0,0.0,0.0,0.0,0.0,0.0,0.0,0.0,0.0,0.0,0.0,0.0,0.0,0.0,0.0,0.0,0.0,0.0,0.0,0.0,0.0,0.0,0.0,0.0,0.0,0.0,0.0,0.0,0.0,0.0,0.0,0.0,0.0,0.0,0.0,0.0,0.0,0.0,0.0,0.0,0.0,0.0,0.0,0.0,0.0,0.0,0.0,0.0,0.0,0.0,0.0,0.0,0.0,0.0,0.0,0.0,0.0,0.0,0.0,0.0,0.0,0.0,0.0,0.0,0.0,0.0,0.0,0.0,0.0,0.0,0.0,0.0,0.0,1.0724,1.064,1.0439,0.0,0.0,0.0,0.0,0.0,0.0,0.0,0.0,0.0,0.0,0.0,0.0,0.0,0.0,0.0,0.0,0.0,0.0,0.0,0.0,0.0,0.0,0.0,0.0,0.0,0.0,0.0,0.0,0.0,0.0,0.0,0.0,0.0,0.0,0.0,0.0,0.0,0.0,0.0,0.0,0.0,0.0,0.0,0.0,0.0,0.0,0.0,0.0,0.0,0.0,0.0,0.0,0.0,0.0,0.0,0.0,0.0,0.0,0.0,0.0,0.0,0.0,0.0,0.0,0.0,0.0,0.0,0.0,0.0,0.0,0.0,0.0,0.0,0.0,0.0,0.0,0.0,0.0,0.0,0.0,0.0,0.0,0.0,0.0,0.0,0.0,0.0,0.0,0.0,0.0,0.0,0.0,0.0,0.0,0.0,0.0,0.0,0.0,0.0,0.0,0.0,0.0,0.0,0.0,0.0,0.0,0.0,0.0,0.0,0.0,1.0727,1.1386,1.1418,0.0,1.0375,0.0,0.0,0.0,0.0,0.0,0.0,0.0,0.0,0.0,0.0,0.0,0.0,0.0,0.0,0.0,0.0,0.0,0.0,0.0,0.0,0.0,0.0,0.0,0.0,0.0,0.0,0.0,0.0,0.0,0.0,0.0,0.0,0.0,0.0,0.0,0.0,0.0,0.0,0.0,0.0,0.0,0.0,0.0,0.0,0.0,0.0,0.0,0.0,0.0,0.0,0.0,0.0,0.0,0.0,0.0,0.0,0.0,0.0,0.0,0.0,0.0,0.0,0.0,0.0,0.0,0.0,0.0,0.0,0.0,0.0,0.0,0.0,0.0,0.0,0.0,0.0,0.0,0.0,0.0,0.0,0.0,0.0,0.0,0.0,0.0,0.0,0.0,0.0,0.0,0.0,0.0,0.0,0.0,0.0,0.0,0.0,0.0,0.0,0.0,0.0,0.0,0.0,0.0,0.0,0.0,0.0,0.0,0.0,0.0,0.0,1.0945,1.2104,1.2142,1.1989,0.0,0.0,0.0,0.0,0.0,0.0,0.0,0.0,0.0,0.0,0.0,0.0,0.0,0.0,0.0,0.0,0.0,0.0,0.0,0.0,0.0,0.0,0.0,0.0,0.0,0.0,0.0,0.0,0.0,0.0,0.0,0.0,0.0,0.0,0.0,0.0,0.0,0.0,0.0,0.0,0.0,0.0,0.0,0.0,0.0,0.0,0.0,0.0,0.0,0.0,0.0,0.0,0.0,0.0,0.0,0.0,0.0,0.0,0.0,0.0,0.0,0.0,0.0,0.0,0.0,0.0,0.0,0.0,0.0,0.0,0.0,0.0,0.0,0.0,0.0,0.0,0.0,0.0,0.0,0.0,0.0,0.0,0.0,0.0,0.0,0.0,0.0,0.0,0.0,0.0,0.0,0.0,0.0,0.0,0.0,0.0,0.0,0.0,0.0,0.0,0.0,0.0,0.0,0.0,0.0,0.0,0.0,0.0,0.0,0.0,1.0809,1.1549,1.2797,1.2898,1.2686,1.2269,0.0,0.0,0.0,0.0,0.0,0.0,0.0,0.0,0.0,0.0,0.0,0.0,0.0,0.0,0.0,0.0,0.0,0.0,0.0,0.0,0.0,0.0,0.0,0.0,0.0,0.0,0.0,0.0,0.0,0.0,0.0,0.0,0.0,0.0,0.0,0.0,0.0,0.0,0.0,0.0,0.0,0.0,0.0,0.0,0.0,0.0,0.0,0.0,0.0,0.0,0.0,0.0,0.0,0.0,0.0,0.0,0.0,0.0,0.0,0.0,0.0,0.0,0.0,0.0,0.0,0.0,0.0,0.0,0.0,0.0,0.0,0.0,0.0,0.0,0.0,0.0,0.0,0.0,0.0,0.0,0.0,0.0,0.0,0.0,0.0,0.0,0.0,0.0,0.0,0.0,0.0,0.0,0.0,0.0,0.0,0.0,0.0,0.0,0.0,0.0,0.0,0.0,0.0,0.0,0.0,0.0,0.0,0.0,1.1435,1.2122,1.286,1.3632,1.359,1.2887,0.0,0.0,0.0,0.0,0.0,0.0,0.0,0.0,0.0,0.0,0.0,0.0,0.0,0.0,0.0,0.0,0.0,0.0,0.0,0.0,0.0,0.0,0.0,0.0,0.0,0.0,0.0,0.0,0.0,0.0,0.0,0.0,0.0,0.0,0.0,0.0,0.0,0.0,0.0,0.0,0.0,0.0,0.0,0.0,0.0,0.0,0.0,0.0,0.0,0.0,0.0,0.0,0.0,0.0,0.0,0.0,0.0,0.0,0.0,0.0,0.0,0.0,0.0,0.0,0.0,0.0,0.0,0.0,0.0,0.0,0.0,0.0,0.0,0.0,0.0,0.0,0.0,0.0,0.0,0.0,0.0,0.0,0.0,0.0,0.0,0.0,0.0,0.0,0.0,0.0,0.0,0.0,0.0,0.0,0.0,0.0,0.0,0.0,0.0,0.0,0.0,0.0,0.0,0.0,0.0,0.0,0.0,0.0,0.0,1.1478,1.3097,1.4129,1.4393,1.4381,1.3651,0.0,0.0,0.0,0.0,0.0,0.0,0.0,0.0,0.0,0.0,0.0,0.0,0.0,0.0,0.0,0.0,0.0,0.0,0.0,0.0,0.0,0.0,0.0,0.0,0.0,0.0,0.0,0.0,0.0,0.0,0.0,0.0,0.0,0.0,0.0,0.0,0.0,0.0,0.0,0.0,0.0,0.0,0.0,0.0,0.0,0.0,0.0,0.0,0.0,0.0,0.0,0.0,0.0,0.0,0.0,0.0,0.0,0.0,0.0,0.0,0.0,0.0,0.0,0.0,0.0,0.0,0.0,0.0,0.0,0.0,0.0,0.0,0.0,0.0,0.0,0.0,0.0,0.0,0.0,0.0,0.0,0.0,0.0,0.0,0.0,0.0,0.0,0.0,0.0,0.0,0.0,0.0,0.0,0.0,0.0,0.0,0.0,0.0,0.0,0.0,0.0,0.0,0.0,0.0,0.0,0.0,0.0,0.0,0.0,1.2511,0.0,1.5154,1.5154,1.4921,1.4096,0.0,0.0,0.0,0.0,0.0,0.0,0.0,0.0,0.0,0.0,0.0,0.0,0.0,0.0,0.0,0.0,0.0,0.0,0.0,0.0,0.0,0.0,0.0,0.0,0.0,0.0,0.0,0.0,0.0,0.0,0.0,0.0,0.0,0.0,0.0,0.0,0.0,0.0,0.0,0.0,0.0,0.0,0.0,0.0,0.0,0.0,0.0,0.0,0.0,0.0,0.0,0.0,0.0,0.0,0.0,0.0,0.0,0.0,0.0,0.0,0.0,0.0,0.0,0.0,0.0,0.0,0.0,0.0,0.0,0.0,0.0,0.0,0.0,0.0,0.0,0.0,0.0,0.0,0.0,0.0,0.0,0.0,0.0,0.0,0.0,0.0,0.0,0.0,0.0,0.0,0.0,0.0,0.0,0.0,0.0,0.0,0.0,0.0,0.0,0.0,0.0,0.0,0.0,0.0,0.0,0.0,0.0,0.0,1.2583,1.4757,1.559,1.6088,1.595,1.5322,1.4165,0.0,0.0,0.0,0.0,0.0,0.0,0.0,0.0,0.0,0.0,0.0,0.0,0.0,0.0,0.0,0.0,0.0,0.0,0.0,0.0,0.0,0.0,0.0,0.0,0.0,0.0,0.0,0.0,0.0,0.0,0.0,0.0,0.0,0.0,0.0,0.0,0.0,0.0,0.0,0.0,0.0,0.0,0.0,0.0,0.0,0.0,0.0,0.0,0.0,0.0,0.0,0.0,0.0,0.0,0.0,0.0,0.0,0.0,0.0,0.0,0.0,0.0,0.0,0.0,0.0,0.0,0.0,0.0,0.0,0.0,0.0,0.0,0.0,0.0,0.0,0.0,0.0,0.0,0.0,0.0,0.0,0.0,0.0,0.0,0.0,0.0,0.0,0.0,0.0,0.0,0.0,0.0,0.0,0.0,0.0,0.0,0.0,0.0,0.0,0.0,0.0,0.0,0.0,0.0,0.0,0.0,0.0,0.0,0.0,1.7147,1.8373,1.9022,1.8982,1.7792,1.619,0.0,0.0,0.0,0.0,0.0,0.0,0.0,0.0,0.0,0.0,0.0,0.0,0.0,0.0,0.0,0.0,0.0,0.0,0.0,0.0,0.0,0.0,0.0,0.0,0.0,0.0,0.0,0.0,0.0,0.0,0.0,0.0,0.0,0.0,0.0,0.0,0.0,0.0,0.0,0.0,0.0,0.0,0.0,0.0,0.0,0.0,0.0,0.0,0.0,0.0,0.0,0.0,0.0,0.0,0.0,0.0,0.0,0.0,0.0,0.0,0.0,0.0,0.0,0.0,0.0,0.0,0.0,0.0,0.0,0.0,0.0,0.0,0.0,0.0,0.0,0.0,0.0,0.0,0.0,0.0,0.0,0.0,0.0,0.0,0.0,0.0,0.0,0.0,0.0,0.0,0.0,0.0,0.0,0.0,0.0,0.0,0.0,0.0,0.0,0.0,0.0,0.0,0.0,0.0,0.0,0.0,0.0,0.0,0.0,2.2049,2.2941,2.3405,2.3371,2.1653,1.9274,1.6155,0.0,0.0,0.0,0.0,0.0,0.0,0.0,0.0,0.0,0.0,0.0,0.0,0.0,0.0,0.0,0.0,0.0,0.0,0.0,0.0,0.0,0.0,0.0,0.0,0.0,0.0,0.0,0.0,0.0,0.0,0.0,0.0,0.0,0.0,0.0,0.0,0.0,0.0,0.0,0.0,0.0,0.0,0.0,0.0,0.0,0.0,0.0,0.0,0.0,0.0,0.0,0.0,0.0,0.0,0.0,0.0,0.0,0.0,0.0,0.0,0.0,0.0,0.0,0.0,0.0,0.0,0.0,0.0,0.0,0.0,0.0,0.0,0.0,0.0,0.0,0.0,0.0,0.0,0.0,0.0,0.0,0.0,0.0,0.0,0.0,0.0,0.0,0.0,0.0,0.0,0.0,0.0,0.0,0.0,0.0,0.0,0.0,0.0,0.0,0.0,0.0,0.0,0.0,0.0,0.0,0.0,0.0,0.0,2.8854,2.914,2.9141,2.8739,2.6419,2.3102,0.0,0.0,0.0,0.0,0.0,0.0,0.0,0.0,0.0,0.0,0.0,0.0,0.0,0.0,0.0,0.0,0.0,0.0,0.0,0.0,0.0,0.0,0.0,0.0,0.0,0.0,0.0,0.0,0.0,0.0,0.0,0.0,0.0,0.0,0.0,0.0,0.0,0.0,0.0,0.0,0.0,0.0,0.0,0.0,0.0,0.0,0.0,0.0,0.0,0.0,0.0,0.0,0.0,0.0,0.0,0.0,0.0,0.0,0.0,0.0,0.0,0.0,0.0,0.0,0.0,0.0,0.0,0.0,0.0,0.0,0.0,0.0,0.0,0.0,0.0,0.0,0.0,0.0,0.0,0.0,0.0,0.0,0.0,0.0,0.0,0.0,0.0,0.0,0.0,0.0,0.0,0.0,0.0,0.0,0.0,0.0,0.0,0.0,0.0,0.0,0.0,0.0,0.0,0.0,0.0,0.0,0.0,0.0,0.0,3.3656,3.6932,3.6966,3.349,2.9592,2.5902,0.0,0.0,0.0,0.0,0.0,0.0,0.0,0.0,0.0,0.0,0.0,0.0,0.0,0.0,0.0,0.0,0.0,0.0,0.0,0.0,0.0,0.0,0.0,0.0,0.0,0.0,0.0,0.0,0.0,0.0,0.0,0.0,0.0,0.0,0.0,0.0,0.0,0.0,0.0,0.0,0.0,0.0,0.0,0.0,0.0,0.0,0.0,0.0,0.0,0.0,0.0,0.0,0.0,0.0,0.0,0.0,0.0,0.0,0.0,0.0,0.0,0.0,0.0,0.0,0.0,0.0,0.0,0.0,0.0,0.0,0.0,0.0,0.0,0.0,0.0,0.0,0.0,0.0,0.0,0.0,0.0,0.0,0.0,0.0,0.0,0.0,0.0,0.0,0.0,0.0,0.0,0.0,0.0,0.0,0.0,0.0,0.0,0.0,0.0,0.0,0.0,0.0,0.0,0.0,0.0,0.0,0.0,0.0,3.3046,3.7463,4.1986,4.3217,4.0826,3.4946,2.9877,0.0,0.0,0.0,0.0,0.0,0.0,0.0,0.0,0.0,0.0,0.0,0.0,0.0,0.0,0.0,0.0,0.0,0.0,0.0,0.0,0.0,0.0,0.0,0.0,0.0,0.0,0.0,0.0,0.0,0.0,0.0,0.0,0.0,0.0,0.0,0.0,0.0,0.0,0.0,0.0,0.0,0.0,0.0,0.0,0.0,0.0,0.0,0.0,0.0,0.0,0.0,0.0,0.0,0.0,0.0,0.0,0.0,0.0,0.0,0.0,0.0,0.0,0.0,0.0,0.0,0.0,0.0,0.0,0.0,0.0,0.0,0.0,0.0,0.0,0.0,0.0,0.0,0.0,0.0,0.0,0.0,0.0,0.0,0.0,0.0,0.0,0.0,0.0,0.0,0.0,0.0,0.0,0.0,0.0,0.0,0.0,0.0,0.0,0.0,0.0,0.0,0.0,0.0,0.0,0.0,0.0,0.0,0.0,3.6526,4.0714,4.5185,4.7812,4.8253,4.0964,3.4406,0.0,0.0,0.0,0.0,0.0,0.0,0.0,0.0,0.0,0.0,0.0,0.0,0.0,0.0,0.0,0.0,0.0,0.0,0.0,0.0,0.0,0.0,0.0,0.0,0.0,0.0,0.0,0.0,0.0,0.0,0.0,0.0,0.0,0.0,0.0,0.0,0.0,0.0,0.0,0.0,0.0,0.0,0.0,0.0,0.0,0.0,0.0,0.0,0.0,0.0,0.0,0.0,0.0,0.0,0.0,0.0,0.0,0.0,0.0,0.0,0.0,0.0,0.0,0.0,0.0,0.0,0.0,0.0,0.0,0.0,0.0,0.0,0.0,0.0,0.0,0.0,0.0,0.0,0.0,0.0,0.0,0.0,0.0,0.0,0.0,0.0,0.0,0.0,0.0,0.0,0.0,0.0,0.0,0.0,0.0,0.0,0.0,0.0,0.0,0.0,0.0,0.0,0.0,0.0,0.0,0.0,0.0,0.0,3.9876,4.4222,4.7287,4.8776,4.8476,4.2556,3.725,0.0,0.0,0.0,0.0,0.0,0.0,0.0,0.0,0.0,0.0,0.0,0.0,0.0,0.0,0.0,0.0,0.0,0.0,0.0,0.0,0.0,0.0,0.0,0.0,0.0,0.0,0.0,0.0,0.0,0.0,0.0,0.0,0.0,0.0,0.0,0.0,0.0,0.0,0.0,0.0,0.0,0.0,0.0,0.0,0.0,0.0,0.0,0.0,2.3988,0.0,0.0,0.0,0.0,0.0,0.0,0.0,0.0,0.0,0.0,0.0,0.0,0.0,0.0,0.0,0.0,0.0,0.0,0.0,0.0,0.0,0.0,0.0,0.0,0.0,0.0,0.0,0.0,0.0,0.0,0.0,0.0,0.0,0.0,0.0,0.0,0.0,0.0,0.0,0.0,0.0,0.0,0.0,0.0,0.0,0.0,0.0,0.0,0.0,0.0,0.0,0.0,0.0,0.0,0.0,0.0,0.0,0.0,0.0,4.1442,4.6318,4.8159,4.9357,4.9773,4.588,4.107,0.0,0.0,0.0,0.0,0.0,0.0,0.0,0.0,0.0,0.0,0.0,0.0,0.0,0.0,0.0,0.0,0.0,0.0,0.0,0.0,0.0,0.0,0.0,0.0,0.0,0.0,0.0,0.0,0.0,0.0,0.0,0.0,0.0,0.0,0.0,0.0,0.0,0.0,0.0,0.0,0.0,0.0,0.0,0.0,0.0,0.0,0.0,0.0,0.0,0.0,0.0,0.0,0.0,0.0,0.0,0.0,0.0,0.0,0.0,0.0,0.0,0.0,0.0,0.0,0.0,0.0,0.0,0.0,0.0,0.0,0.0,0.0,0.0,0.0,0.0,0.0,0.0,0.0,0.0,0.0,0.0,0.0,0.0,0.0,0.0,0.0,0.0,0.0,0.0,0.0,0.0,0.0,0.0,0.0,0.0,0.0,0.0,0.0,0.0,0.0,0.0,0.0,0.0,0.0,0.0,0.0,0.0,3.7573,4.2698,4.803,4.9052,5.0154,5.1528,4.9148,4.4636,3.7839,0.0,0.0,0.0,0.0,0.0,0.0,0.0,0.0,0.0,0.0,0.0,0.0,0.0,0.0,0.0,0.0,0.0,0.0,0.0,0.0,0.0,0.0,0.0,0.0,0.0,0.0,0.0,0.0,0.0,0.0,0.0,0.0,0.0,0.0,0.0,0.0,0.0,0.0,1.8938,2.2185,0.0,0.0,0.0,0.0,0.0,0.0,0.0,0.0,2.9397,0.0,0.0,0.0,0.0,0.0,0.0,0.0,0.0,0.0,0.0,0.0,0.0,0.0,0.0,0.0,0.0,0.0,0.0,0.0,0.0,0.0,0.0,0.0,0.0,0.0,0.0,0.0,0.0,0.0,0.0,0.0,0.0,0.0,0.0,0.0,0.0,0.0,0.0,0.0,0.0,0.0,0.0,0.0,0.0,0.0,0.0,0.0,0.0,0.0,0.0,0.0,0.0,0.0,0.0,0.0,0.0,3.6266,4.1133,4.5993,5.0814,5.1966,5.2193,5.1567,4.9565,4.5466,3.9148,0.0,0.0,0.0,0.0,0.0,0.0,0.0,0.0,0.0,0.0,0.0,0.0,0.0,0.0,0.0,0.0,0.0,0.0,0.0,0.0,0.0,0.0,0.0,0.0,0.0,0.0,0.0,0.0,0.0,0.0,0.0,0.0,0.0,0.0,0.0,0.0,0.0,0.0,0.0,2.7266,2.8865,0.0,0.0,0.0,0.0,0.0,0.0,0.0,0.0,3.2601,0.0,0.0,0.0,0.0,0.0,0.0,0.0,0.0,0.0,0.0,0.0,0.0,0.0,0.0,0.0,0.0,0.0,0.0,0.0,0.0,0.0,0.0,0.0,0.0,0.0,0.0,0.0,0.0,0.0,0.0,0.0,0.0,0.0,0.0,0.0,0.0,0.0,0.0,0.0,0.0,0.0,0.0,0.0,0.0,0.0,0.0,0.0,0.0,0.0,0.0,0.0,0.0,0.0,0.0,0.0,3.8259,4.3422,4.7961,5.1838,5.2256,5.2268,5.197,4.9399,4.5033,0.0,0.0,0.0,0.0,0.0,0.0,0.0,0.0,0.0,0.0,0.0,0.0,0.0,0.0,0.0,0.0,0.0,0.0,0.0,0.0,0.0,0.0,0.0,0.0,0.0,0.0,0.0,0.0,0.0,0.0,0.0,0.0,0.0,0.0,0.0,0.0,0.0,0.0,0.0,0.0,3.0311,3.2385,3.5362,0.0,0.0,0.0,0.0,0.0,0.0,3.6941,3.5577,0.0,0.0,0.0,0.0,0.0,0.0,0.0,0.0,0.0,0.0,0.0,0.0,0.0,0.0,0.0,0.0,0.0,0.0,0.0,0.0,0.0,0.0,0.0,0.0,0.0,0.0,0.0,0.0,0.0,0.0,0.0,0.0,0.0,0.0,0.0,0.0,0.0,0.0,0.0,0.0,0.0,0.0,0.0,0.0,0.0,0.0,0.0,0.0,0.0,0.0,0.0,0.0,0.0,0.0,0.0,3.9478,4.5016,4.9285,5.224,5.2102,5.2054,5.2312,4.8768,4.4012,0.0,0.0,0.0,0.0,0.0,0.0,0.0,0.0,0.0,0.0,0.0,0.0,0.0,0.0,0.0,0.0,0.0,0.0,0.0,0.0,0.0,0.0,0.0,0.0,0.0,0.0,0.0,0.0,0.0,0.0,0.0,0.0,0.0,0.0,0.0,0.0,0.0,0.0,0.0,0.0,0.0,3.5216,3.887,3.7009,0.0,0.0,0.0,0.0,3.9343,3.9445,0.0,0.0,0.0,0.0,0.0,0.0,0.0,0.0,0.0,0.0,0.0,0.0,0.0,0.0,0.0,0.0,0.0,0.0,0.0,0.0,0.0,0.0,0.0,0.0,0.0,0.0,0.0,0.0,0.0,0.0,0.0,0.0,0.0,0.0,0.0,0.0,0.0,0.0,0.0,0.0,0.0,0.0,0.0,0.0,0.0,0.0,0.0,0.0,0.0,0.0,0.0,0.0,0.0,0.0,0.0,0.0,3.9531,4.5916,5.0211,5.2297,5.2794,5.2817,5.2347,4.7496,4.244,0.0,0.0,0.0,0.0,0.0,0.0,0.0,0.0,0.0,0.0,0.0,0.0,0.0,0.0,0.0,0.0,0.0,0.0,0.0,0.0,0.0,0.0,0.0,0.0,0.0,0.0,0.0,0.0,0.0,0.0,0.0,0.0,0.0,0.0,0.0,0.0,0.0,0.0,0.0,0.0,0.0,3.6693,4.0426,3.8993,3.7471,0.0,0.0,4.0853,4.1792,4.2976,0.0,0.0,0.0,0.0,0.0,0.0,0.0,0.0,0.0,0.0,0.0,0.0,0.0,0.0,0.0,0.0,0.0,0.0,0.0,0.0,0.0,0.0,0.0,0.0,0.0,0.0,0.0,0.0,0.0,0.0,0.0,0.0,0.0,0.0,0.0,0.0,0.0,0.0,0.0,0.0,0.0,0.0,0.0,0.0,0.0,0.0,0.0,0.0,0.0,0.0,0.0,0.0,0.0,0.0,0.0,3.5243,4.0376,4.7741,5.1977,5.2824,5.3071,5.3082,5.285,4.7431,4.2166,0.0,0.0,0.0,0.0,0.0,0.0,0.0,0.0,0.0,0.0,0.0,0.0,0.0,0.0,0.0,0.0,0.0,0.0,0.0,0.0,0.0,0.0,0.0,0.0,0.0,0.0,0.0,0.0,0.0,0.0,0.0,0.0,0.0,0.0,0.0,0.0,0.0,0.0,0.0,0.0,0.0,0.0,4.1373,4.1745,0.0,0.0,0.0,4.3098,4.2963,0.0,0.0,0.0,0.0,0.0,0.0,0.0,0.0,0.0,0.0,0.0,0.0,0.0,0.0,0.0,0.0,0.0,0.0,0.0,0.0,0.0,0.0,0.0,0.0,0.0,0.0,0.0,0.0,0.0,0.0,0.0,0.0,0.0,0.0,0.0,0.0,0.0,0.0,0.0,0.0,0.0,0.0,0.0,0.0,0.0,0.0,0.0,0.0,0.0,0.0,0.0,0.0,0.0,0.0,0.0,0.0,0.0,4.1238,4.9118,5.3214,5.3214,5.3214,5.3214,5.3093,4.8134,0.0,0.0,0.0,0.0,0.0,0.0,0.0,0.0,0.0,0.0,0.0,0.0,0.0,0.0,0.0,0.0,0.0,0.0,0.0,0.0,0.0,0.0,0.0,0.0,0.0,0.0,0.0,1.6384,0.0,0.0,0.0,0.0,0.0,0.0,0.0,0.0,0.0,0.0,0.0,0.0,0.0,0.0,3.9242,4.2151,4.4059,4.5142,0.0,0.0,4.5244,4.464,4.5959,4.5432,0.0,0.0,0.0,0.0,0.0,0.0,0.0,0.0,0.0,0.0,0.0,0.0,0.0,0.0,0.0,0.0,0.0,0.0,0.0,0.0,0.0,0.0,0.0,0.0,0.0,0.0,0.0,0.0,0.0,0.0,0.0,0.0,0.0,0.0,0.0,0.0,0.0,0.0,0.0,0.0,0.0,0.0,0.0,0.0,0.0,0.0,0.0,0.0,0.0,0.0,0.0,0.0,0.0,0.0,0.0,4.2128,4.9404,5.3214,5.3214,5.3214,5.3214,5.313,4.9768,4.5288,0.0,0.0,0.0,0.0,0.0,0.0,0.0,0.0,0.0,0.0,0.0,0.0,0.0,0.0,0.0,0.0,0.0,0.0,0.0,0.0,0.0,0.0,0.0,0.0,0.0,0.0,0.0,0.0,0.0,0.0,0.0,0.0,0.0,0.0,0.0,0.0,0.0,0.0,0.0,0.0,0.0,4.002,4.2916,4.5229,4.6665,0.0,0.0,4.765,4.7616,4.9375,4.8834,4.2997,0.0,0.0,0.0,0.0,0.0,0.0,0.0,0.0,0.0,0.0,0.0,0.0,0.0,0.0,0.0,0.0,0.0,0.0,0.0,0.0,0.0,0.0,0.0,0.0,0.0,0.0,0.0,0.0,0.0,0.0,0.0,0.0,0.0,0.0,0.0,0.0,0.0,0.0,0.0,0.0,0.0,0.0,0.0,0.0,0.0,0.0,0.0,0.0,0.0,0.0,0.0,0.0,0.0,3.7564,4.221,4.9441,5.3214,5.3214,5.3691,5.3959,5.3922,5.1663,4.7938,0.0,0.0,0.0,0.0,0.0,0.0,0.0,0.0,0.0,0.0,0.0,0.0,0.0,0.0,0.0,0.0,0.0,0.0,0.0,0.0,0.0,0.0,0.0,0.0,0.0,0.0,0.0,0.0,3.3243,3.4821,3.2926,0.0,0.0,0.0,0.0,0.0,0.0,0.0,0.0,0.0,0.0,4.213,4.5094,4.7394,0.0,0.0,4.9086,4.8951,4.8056,4.9003,4.8139,4.3112,4.0087,0.0,0.0,0.0,0.0,0.0,0.0,0.0,0.0,0.0,0.0,0.0,0.0,0.0,0.0,0.0,0.0,0.0,0.0,0.0,0.0,0.0,0.0,0.0,0.0,0.0,0.0,0.0,0.0,0.0,0.0,0.0,0.0,0.0,0.0,0.0,0.0,0.0,0.0,0.0,0.0,0.0,0.0,0.0,0.0,0.0,0.0,0.0,0.0,0.0,0.0,0.0,0.0,3.8451,4.2932,5.0195,5.3922,5.3922,5.4473,5.4766,5.473,5.3564,5.0842,0.0,0.0,0.0,0.0,0.0,0.0,0.0,0.0,0.0,0.0,0.0,0.0,0.0,0.0,0.0,0.0,0.0,0.0,0.0,0.0,0.0,0.0,0.0,0.0,0.0,0.0,0.0,0.0,3.6411,3.6581,3.2114,0.0,0.0,0.0,0.0,0.0,0.0,0.0,0.0,0.0,0.0,4.4499,4.6819,4.8849,5.0033,4.9796,4.9763,4.9424,4.8394,4.8665,4.7767,4.4228,0.0,0.0,0.0,0.0,0.0,0.0,0.0,0.0,0.0,0.0,0.0,0.0,0.0,0.0,0.0,0.0,0.0,0.0,0.0,0.0,0.0,0.0,0.0,0.0,0.0,0.0,0.0,2.0389,0.0,0.0,1.6905,0.0,0.0,0.0,0.0,0.0,0.0,0.0,0.0,0.0,0.0,0.0,0.0,0.0,0.0,0.0,0.0,0.0,0.0,0.0,0.0,0.0,0.0,3.9085,4.4626,5.1793,5.5511,5.5511,5.5548,5.5585,5.5585,5.5548,5.3927,5.0497,0.0,0.0,0.0,0.0,0.0,0.0,0.0,0.0,0.0,0.0,0.0,0.0,0.0,0.0,0.0,0.0,0.0,0.0,0.0,0.0,0.0,0.0,0.0,0.0,0.0,0.0,3.1336,3.4629,3.5035,0.0,0.0,0.0,0.0,0.0,0.0,0.0,0.0,0.0,0.0,4.3416,4.6989,4.7785,4.9154,4.988,4.9221,4.9086,4.9018,4.8984,4.8984,4.8477,0.0,0.0,0.0,0.0,0.0,0.0,0.0,0.0,0.0,0.0,0.0,0.0,0.0,0.0,0.0,0.0,0.0,0.0,0.0,0.0,0.0,0.0,0.0,0.0,0.0,0.0,0.0,2.8809,2.8363,0.0,0.0,0.0,0.0,0.0,0.0,0.0,0.0,0.0,0.0,0.0,3.9056,3.9313,0.0,0.0,0.0,0.0,0.0,0.0,0.0,0.0,0.0,0.0,0.0,0.0,4.0414,4.5553,5.2171,5.5622,5.5622,5.6124,5.6418,5.6418,5.6932,5.5394,5.1569,0.0,0.0,0.0,0.0,0.0,0.0,0.0,0.0,0.0,0.0,0.0,0.0,0.0,0.0,0.0,0.0,0.0,0.0,0.0,0.0,0.0,0.0,0.0,0.0,0.0,3.3423,0.0,0.0,0.0,0.0,0.0,0.0,0.0,0.0,0.0,0.0,0.0,3.977,4.3031,4.579,4.7954,4.9187,4.9778,5.0353,0.0,0.0,0.0,0.0,0.0,0.0,0.0,0.0,0.0,0.0,0.0,0.0,0.0,0.0,3.9893,3.5994,3.5859,3.6355,3.64,0.0,0.0,0.0,0.0,0.0,0.0,0.0,0.0,0.0,0.0,0.0,0.0,0.0,0.0,3.5261,0.0,3.3066,0.0,0.0,0.0,0.0,0.0,0.0,0.0,0.0,4.1956,4.4113,4.4864,4.5406,4.5516,0.0,4.3864,3.9688,0.0,0.0,0.0,0.0,0.0,0.0,0.0,0.0,4.247,4.6801,5.3151,5.6429,5.6466,5.6932,5.7226,5.7226,5.7703,5.6726,5.4114,5.0037,4.5616,0.0,0.0,0.0,0.0,0.0,0.0,0.0,0.0,0.0,0.0,0.0,0.0,0.0,0.0,0.0,0.0,0.0,0.0,0.0,0.0,0.0,0.0,0.0,3.6887,0.0,0.0,0.0,0.0,0.0,0.0,0.0,0.0,0.0,3.5836,4.0079,4.4079,4.6515,4.8563,4.9916,5.0067,0.0,0.0,0.0,0.0,0.0,0.0,0.0,4.8124,4.7684,4.8071,4.8578,4.9052,4.868,4.8409,4.8695,0.0,0.0,4.3017,4.2692,4.322,4.3186,4.32,4.3213,4.3179,4.3958,4.4857,0.0,0.0,0.0,0.0,0.0,0.0,0.0,0.0,4.1001,4.0516,0.0,3.9011,0.0,0.0,0.0,0.0,3.5445,3.9261,0.0,0.0,5.0058,5.1977,4.9931,5.1289,5.1683,5.0902,5.0031,4.8783,4.7003,4.1874,0.0,0.0,0.0,0.0,0.0,0.0,4.5223,4.859,5.4803,5.8033,5.807,5.807,5.807,5.8107,5.8107,5.807,5.7923,5.4261,5.137,4.9558,4.117,0.0,0.0,0.0,0.0,0.0,0.0,0.0,0.0,0.0,0.0,0.0,0.0,0.0,0.0,0.0,0.0,0.0,0.0,0.0,0.0,3.7274,0.0,0.0,0.0,0.0,0.0,0.0,0.0,0.0,0.0,0.0,4.0848,4.4312,4.7477,4.8917,0.0,0.0,0.0,0.0,5.1522,4.951,4.8529,4.8056,4.8157,4.8698,4.9627,5.0998,0.0,0.0,5.3585,5.2401,5.1641,5.2334,5.3078,5.2503,4.8901,4.8714,4.9104,4.9154,4.912,4.9187,4.9187,4.9187,4.9492,4.5957,0.0,0.0,0.0,0.0,4.1846,4.3901,4.5948,4.6774,4.692,4.6406,4.5214,0.0,0.0,0.0,0.0,0.0,0.0,4.603,4.882,5.182,5.3445,5.3896,5.4337,5.4447,5.4226,5.3969,5.3885,5.3948,5.2407,4.7232,3.8784,0.0,0.0,0.0,0.0,4.8223,5.2601,5.6737,5.9123,5.9685,5.9722,5.9722,5.9722,5.9722,5.9722,5.9722,5.8561,5.6399,5.3019,4.8793,0.0,0.0,0.0,0.0,0.0,0.0,0.0,0.0,0.0,0.0,0.0,0.0,0.0,0.0,0.0,0.0,0.0,0.0,0.0,3.9807,4.2083,4.209,0.0,0.0,0.0,0.0,0.0,0.0,0.0,0.0,0.0,4.778,4.9131,5.0493,0.0,0.0,5.1607,5.098,5.1235,5.1674,5.2164,5.11,0.0,5.1758,5.1589,5.1691,5.2655,5.4515,5.5852,5.5852,5.5919,5.6055,5.6275,5.6494,5.6258,5.531,5.4312,5.3805,5.3771,5.3771,5.3771,5.3805,5.4194,5.46,5.2909,4.9154,4.7196,4.6287,4.625,4.7526,4.926,5.1242,5.173,5.1803,5.1473,5.0765,4.8967,4.6287,4.4167,0.0,0.0,0.0,5.0068,5.3225,5.4168,5.5317,5.6539,5.6859,5.7042,5.7042,5.7373,5.774,5.8205,5.7912,5.4425,4.7966,0.0,0.0,4.5773,4.8847,5.204,5.5317,5.8205,5.9893,6.037,6.0407,6.0407,6.0407,6.0407,6.0407,6.0407,6.0407,5.9258,5.6827,5.4092,4.9891,0.0,0.0,0.0,0.0,0.0,0.0,0.0,0.0,0.0,0.0,0.0,2.745,2.769,0.0,0.0,0.0,3.9322,4.28,4.7256,4.7127,0.0,0.0,0.0,0.0,0.0,0.0,0.0,4.5176,4.8903,5.1656,5.2468,5.3168,5.3576,5.3429,5.3162,5.279,5.2182,0.0,5.3129,5.3484,5.2723,5.2536,5.3754,5.4025,5.4532,5.5919,5.7205,5.8084,5.8118,5.849,5.8761,5.8761,5.8761,5.8761,5.878,5.8051,5.7221,5.6697,5.6815,5.6984,5.7018,5.7593,5.8118,5.85,5.7972,5.345,5.1903,5.2538,5.3225,5.4363,5.5768,5.5768,5.5354,5.4766,5.5464,5.4153,5.1279,4.9764,0.0,5.2501,5.2538,5.4179,5.6994,5.7031,5.7483,5.8217,5.8939,5.9306,5.9306,6.004,6.0407,6.0346,5.9636,5.8902,5.8143,5.6051,5.3775,5.1646,5.43,5.6235,5.7178,5.9391,6.0529,6.0591,6.0603,6.0603,6.0591,6.0603,6.0603,6.0591,6.0591,6.0554,6.0407,5.7634,5.484,5.2113,0.0,0.0,0.0,0.0,0.0,0.0,0.0,0.0,0.0,0.0,0.0,0.0,0.0,0.0,0.0,4.7806,0.0,5.4726,5.2041,0.0,0.0,0.0,4.6693,4.8212,4.9269,5.0412,5.1744,0.0,0.0,5.5433,5.6555,5.6744,5.5383,5.5602,5.5363,5.4025,5.5056,5.5462,5.4312,5.4059,5.4296,5.526,5.6224,5.7577,5.9336,6.008,5.9979,5.9945,5.9979,6.008,6.0013,6.008,6.0047,6.008,5.9911,5.9674,5.8287,5.8592,5.9047,5.9013,5.9471,5.9877,5.9903,5.9794,5.8595,5.7519,5.6528,5.6113,5.6492,5.7409,5.7421,5.731,5.7152,5.7336,5.7005,5.6271,5.5868,5.6014,5.6602,5.7226,5.7875,5.8646,5.9269,5.9636,5.9832,6.0003,6.0114,6.0114,6.0309,6.0407,6.037,6.0236,6.0015,5.9832,5.9869,5.8657,5.6418,5.7042,5.8437,6.0419,6.1006,6.163,6.2205,6.2205,6.2242,6.2205,6.2205,6.2242,6.2242,6.2242,6.1949,6.1337,6.0554,5.8464,5.4767,4.8536,0.0,0.0,0.0,0.0,0.0,0.0,0.0,0.0,0.0,3.6845,3.8099,0.0,4.7624,0.0,5.3889,5.6438,5.5707,5.4835,0.0,0.0,5.1164,5.0711,5.1724,5.3313,5.4349,5.4424,5.7057,5.8792,5.8436,5.9678,6.0548,6.0447,5.8596,5.7193,5.6924,5.7611,5.81,5.7746,5.8035,5.8592,5.8693,5.9066,5.9505,6.0013,6.0114,6.008,6.0114,6.008,6.008,6.008,6.008,6.008,6.0182,6.008,6.0047,5.9674,5.9708,5.9844,5.9844,6.0013,6.0114,6.2781,6.272,6.2279,6.1753,6.1117,5.9196,5.8657,5.9061,5.9061,5.9061,5.9061,5.9061,5.9061,5.9061,5.9061,5.9061,5.9098,5.9526,5.993,6.0309,6.075,6.1117,6.1471,6.1471,6.1471,6.1471,6.1471,6.1471,6.1471,6.1484,6.1471,6.1471,6.2291,6.2034,6.0762,6.0346,6.0774,6.2108,6.2144,6.2548,6.3306,6.3013,6.2462,6.1765,6.1728,6.141,6.0713,6.0676,6.0456,6.0015,6.0015,5.8976,5.6681,5.1553,4.6762,0.0,0.0,0.0,0.0,0.0,0.0,0.0,0.0,0.0,0.0,0.0,5.2659,5.4259,5.7388,5.8693,5.7155,5.6897,5.6557,5.59,5.5456,5.5805,5.7346,5.8501,5.9199,5.9329,6.1056,6.1968,6.132,6.2194,6.2999,6.3326,6.2195,6.0952,5.9996,5.9716,5.9617,5.9934,6.0034,6.0385,6.0994,6.14,6.1738,6.2042,6.211,6.211,6.211,6.211,6.211,6.211,6.211,6.211,6.211,6.211,6.211,6.211,6.211,6.1738,6.0858,6.0892,6.1129,6.5767,6.5632,6.4758,6.478,6.5132,6.2242,6.1055,6.1043,6.1031,6.1031,6.1031,6.1031,6.1031,6.1043,6.1031,6.1031,6.1031,6.1031,6.141,6.2034,6.2071,6.2438,6.3086,6.3123,6.3123,6.3123,6.3123,6.3123,6.3123,6.3123,6.3123,6.316,6.387,6.4237,6.4213,6.3503,6.3123,6.3123,6.3013,6.3343,6.4066,6.3172,6.1985,6.0639,6.0346,5.9612,5.8253,5.8033,5.7997,5.7997,5.8107,5.8217,5.8364,5.4078,5.0627,0.0,4.4062,0.0,0.0,0.0,0.0,0.0,0.0,0.0,0.0,5.4049,5.6481,5.7874,5.9346,5.9841,5.9113,5.8947,5.9157,5.9939,6.0034,6.0919,6.3056,6.3359,6.3613,6.4337,6.4591,6.4484,6.3917,6.449,6.5077,6.5341,6.5568,6.5064,6.3526,6.209,6.1487,6.1879,6.1426,6.1953,6.2938,6.3592,6.4112,6.4605,6.4619,6.4701,6.4431,6.4444,6.4512,6.4512,6.4417,6.4519,6.458,6.4553,6.4593,6.4458,6.4444,6.3902,6.2367,6.2279,6.2651,6.5694,6.5669,6.5497,6.5509,6.5558,6.4856,6.4485,6.4383,6.4371,6.4371,6.4371,6.4371,6.4371,6.4371,6.4371,6.4371,6.4371,6.4371,6.4444,6.4591,6.4591,6.4664,6.4811,6.4848,6.4811,6.4848,6.4848,6.4848,6.4811,6.4811,6.4811,6.4848,6.4995,6.5081,6.5081,0.0,0.0,0.0,6.4163,6.3906,6.4029,6.2622,6.1667,6.1337,6.0114,0.0,5.8976,5.8364,5.7997,5.7997,5.8609,0.0,0.0,0.0,0.0,0.0,0.0,0.0,0.0,0.0,0.0,0.0,5.4858,5.4965,5.3901,5.6641,5.882,5.9664,6.059,6.15,6.2353,6.2409,6.2717,6.3368,6.3462,6.3657,6.4156,6.4192,6.4215,6.441,6.5555,6.6271,6.624,6.7378,6.8232,6.8208,6.7932,6.7776,6.7837,6.6417,6.5704,6.5863,6.5423,6.5649,6.6069,6.6171,6.6014,6.5757,6.5562,6.5343,6.491,6.4729,6.4688,6.4729,6.4722,6.4856,6.4695,6.4916,6.5244,6.4937,6.5056,6.492,6.4153,6.4072,6.4174,6.8133,6.807,6.8006,6.7928,0.0,6.7784,6.7754,6.7577,6.5985,6.5325,6.5325,6.5325,6.5508,6.5875,6.5472,6.5508,6.5888,6.5485,6.5325,6.5325,6.5325,6.5325,6.5325,6.5325,6.5325,6.5325,6.5325,6.5325,6.5325,6.5325,6.5325,6.5325,6.5705,6.5888,6.5925,6.6292,6.6292,6.5875,6.5081,6.4897,6.5228,6.4053,6.3025,6.2218,6.1398,0.0,0.0,0.0,0.0,0.0,0.0,0.0,0.0,5.9869,0.0,5.8609,5.7045,5.6252,5.6619,5.707,5.817,6.0164,6.1117,6.075,5.8694,6.0811,6.2364,6.2668,6.3095,6.3567,6.4137,6.4256,6.4348,6.4589,6.4961,6.5333,6.5662,6.6047,6.6417,6.6779,6.7453,6.7996,6.7996,6.8612,6.9337,6.9699,6.9471,6.9505,6.9967,6.8416,6.7007,6.6989,6.6989,6.7112,6.7463,6.7533,6.7584,6.7443,6.7489,6.732,6.6938,6.6842,6.6842,6.6896,6.6992,6.6977,6.69,6.7088,6.7184,6.7015,6.6833,6.6612,6.6265,6.5573,6.4916,7.0654,7.056,7.0454,7.032,7.0197,7.017,7.0165,6.9926,6.7283,0.0,0.0,6.6132,6.6512,6.7063,6.6426,6.6512,6.7063,6.6476,6.6132,6.6145,6.6132,6.6132,6.6145,6.6132,6.6132,6.6145,6.6145,6.6132,6.6132,6.6132,6.6132,6.6206,6.6806,6.7136,6.7173,6.7797,6.7811,6.7136,6.6072,6.5888,6.6659,6.5778,6.4738,6.349,6.3013,6.2169,6.0884,6.0566,6.0407,6.0407,6.0529,6.075,6.1043,6.119,6.1104,6.0737,6.0701,6.1251,6.2585,6.2671,6.3539,6.5582,6.5839,6.5178,6.338,6.4517,6.5325,6.5325,6.5435,6.5493,6.552,6.569,6.571,6.5647,6.6276,6.6913,6.7404,6.7993,6.8501,6.9122,6.9289,6.9455,6.9434,6.9645,6.992,7.047,7.062,7.0801,7.1058,6.9485,6.8078,6.8096,6.8183,6.8151,6.8558,6.8788,6.8894,6.9227,6.9314,6.9366,6.9257,6.9238,6.9238,6.9043,6.9311,6.9258,6.924,6.9041,6.9165,6.9163,6.8578,6.8049,6.7906,6.6863,6.5773,7.087,7.0845,7.0832,7.0742,7.0613,7.0494,7.0306,7.005,6.961,6.9412,6.9412,6.9412,6.9486,6.9559,6.9449,6.9486,6.9596,6.9486,6.9412,6.9412,6.9412,6.9412,6.9449,6.9412,6.9412,6.9412,6.9412,6.9412,6.9412,6.9412,6.9449,6.9412,6.9559,6.9559,6.9596,6.9706,6.9706,6.9559,6.743,6.6696,6.748,6.6072,6.5508,6.5888,6.393,6.2719,6.2462,6.1215,6.0407,6.0407,6.1043,6.2083,6.3515,6.4273,6.5191,6.6379,6.6489,6.6636,6.6783,6.6856,6.7003,6.732,6.8017,6.7417,6.5228,6.5141,6.5325,6.5325,6.6035,6.657,6.7094,6.7739,6.8269,6.8749,6.8975,6.9143,6.9187,6.9267,6.9324,6.9475,7.0005,7.0405,7.0441,7.102,7.1384,7.1547,7.1449,7.1542,7.1438,7.1171,7.0899,7.0863,7.0863,7.0935,7.077,7.0991,7.0714,7.0284,7.0233,7.0112,6.9654,6.9583,6.9637,6.9654,6.9849,6.9902,6.9725,6.9366,6.931,6.9163,6.8635,6.8187,6.8128,6.7748,6.7313,7.2206,7.2179,7.2129,7.2063,7.1931,7.1864,7.1715,7.1521,7.1507,7.0951,7.011,7.011,7.033,7.0697,7.0293,7.033,7.072,7.0293,7.011,7.011,7.011,7.011,7.011,7.011,7.011,7.011,7.011,7.011,7.011,7.011,7.011,7.011,7.011,7.011,7.011,7.011,7.011,7.0073,6.9009,6.8605,6.8972,6.8274,6.8091,6.8421,6.732,6.6769,6.6769,6.6072,6.5668,6.5668,6.5999,6.6549,6.7283,6.7687,6.8238,6.8949,6.9022,6.8972,6.9022,6.8985,6.9009,6.9022,6.9339,6.9119,6.7981,6.7907,6.7907,6.7907,6.8274,6.8591,6.8889,6.9242,6.9581,6.984,7.0228,7.0492,7.0493,7.08,7.093,7.0826,7.1063,7.1235,7.1271,7.1547,7.1697,7.1656,7.1739,7.177,7.1672,7.1749,7.1697,7.1542,7.1593,7.1656,7.1672,7.1713,7.162,7.1316,7.1284,7.1151,7.0836,7.0803,7.0836,7.0917,7.1035,7.1051,7.0917,7.0855,7.0556,7.0025,6.9456,6.8994,6.8555,6.8103,6.7638,7.332,7.3252,7.3252,7.3145,7.2996,7.2955,7.2844,7.2667,7.2616,7.1897,7.0748,7.066,7.0991,7.1454,7.0917,7.0991,7.1417,7.0917,7.066,7.066,7.0624,7.0624,7.0624,7.0624,7.0624,7.0624,7.0624,7.066,7.0624,7.066,7.066,7.0624,7.0624,7.066,7.0624,7.0624,7.0624,7.0624,7.0624,7.055,7.0403,7.0367,7.0477,7.0624,7.044,7.0367,7.0367,7.0183,7.011,7.011,7.011,7.011,7.011,7.011,7.011,7.011,7.011,7.011,7.011,7.011,7.011,7.011,7.0257,7.0367,7.0403,7.055,7.044,7.0183,7.0146,7.033,7.0353,7.055,7.066,7.0697,7.1174,7.147,7.1494,7.1963,7.227,7.2069,7.1964,7.1903,7.1909,7.1811,7.1744,7.178,7.178,7.1826,7.1857,7.1948,7.1866,7.1728,7.1749,7.1826,7.1842,7.1933,7.1957,7.2003,7.1973,7.1912,7.1891,7.2003,7.2063,7.1981,7.2048,7.2033,7.2063,7.186,7.1552,7.0973,7.0319,6.9707,6.9235,6.8478,6.7745,7.3372,7.3372,7.3359,7.3215,7.2996,7.2807,7.2667,7.2524,7.2524,7.2473,7.2202,7.2275,7.2275,7.2386,7.2275,7.2275,7.2349,7.2312,7.2239,7.2202,7.2275,7.2275,7.2202,7.2239,7.2275,7.2239,7.2202,7.2129,7.2129,7.2202,7.2275,7.2275,7.2275,7.2202,7.2239,7.2239,7.2275,7.2275,7.2275,7.1894,7.1233,7.1197,7.1527,7.2224,7.1564,7.1197,7.116,7.0513,7.011,7.011,7.0146,7.011,7.0146,7.011,7.011,7.0146,7.0146,7.011,7.0146,7.011,7.0183,7.0146,7.0807,7.1197,7.1233,7.1821,7.1615,7.066,7.0807,7.116,7.1233,7.1762,7.2092,7.2055,7.2239,7.2371,7.2306,7.2314,7.2299,7.2284,7.2255,7.2255,7.2225,7.2248,7.2292,7.2114,7.2039,7.1973,7.1988,7.2039,7.2054,7.1973,7.1988,7.2009,7.2024,7.1988,7.2048,7.2033,7.2018,7.2078,7.2204,7.2263,7.2329,7.2351,7.2409,7.2409,7.2292,7.1988,7.15,7.1295,7.0756,7.0233,7.0042,6.9384,6.8597,7.3385,7.3385,7.3385,7.3305,7.3105,7.2955,7.2765,7.2624,7.2624,7.2582,7.2496,7.2532,7.2532,7.2532,7.2532,7.2532,7.2532,7.2532,7.2532,7.2532,7.2532,7.2532,7.2532,7.2532,7.2532,7.2532,7.2532,7.2532,7.2532,7.2532,7.2532,7.2532,7.2532,7.2532,7.2532,7.2532,7.2532,7.2532,7.2532,7.2349,7.2041,7.2004,7.2151,7.2422,7.2151,7.2004,7.1967,7.1688,7.1505,7.1505,7.1505,7.1505,7.1541,7.1505,7.1505,7.1505,7.1505,7.1541,7.1541,7.1505,7.1505,7.1505,7.1835,7.2004,7.2004,7.2312,7.2165,7.1725,7.1835,7.2018,7.2018,7.2312,7.2532,7.2532,7.2532,7.2532,7.2532,7.2438,7.2409,7.2394,7.2358,7.2314,7.2299,7.2248,7.2204,7.2159,7.2144,7.221,7.2225,7.2248,7.2292,7.2343,7.2673,7.2702,7.235,7.2263,7.2292,7.2307,7.2307,7.2351,7.2439,7.2446,7.2475,7.2518,7.2591,7.2642,7.2481,7.2321,7.1951,7.1635,7.0872,7.03,7.03,7.0007,6.9438,7.3385,7.3385,7.3385,7.3281,7.3145,7.3077,7.2955,7.2779,7.2723,7.2638,7.2553,7.251,7.2532,7.2532,7.2532,7.2532,7.2532,7.2532,7.2532,7.2532,7.2532,7.2532,7.2532,7.2532,7.2532,7.2532,7.2532,7.2532,7.2532,7.2532,7.2532,7.2532,7.2532,7.2532,7.2532,7.2532,7.2532,7.2532,7.2532,7.2532,7.2496,7.2532,7.2532,7.2532,7.2532,7.2532,7.2532,7.2532,7.2532,7.2496,7.2532,7.2532,7.2532,7.2532,7.2532,7.2532,7.2532,7.2532,7.2532,7.2532,7.2532,7.2532,7.2532,7.2532,7.2532,7.2532,7.2532,7.2459,7.2532,7.2496,7.2532,7.2532,7.2532,7.2532,7.2532,7.2532,7.2532,7.2532,7.2496,7.2481,7.2446,7.2373,7.2321,7.2263,7.224,7.2511,7.2643,7.2812,7.2973,7.3157,7.3215,7.3179,7.3707,7.359,7.2915,7.3091,7.3105,7.3142,7.3237,7.3274,7.3156,7.3193,7.3193,7.3619,7.3289,7.3215,7.3487,7.3281,7.3018,7.2485,7.191,7.1568,7.1981,7.1352,7.0735,7.3385,7.3423,7.3423,7.3376,7.3046,7.3192,7.3128,7.3125,7.2839,7.2732,7.2763,7.2663,7.2532,7.2606,7.2679,7.2532,7.2532,7.2532,7.2532,7.2532,7.2532,7.2532,7.2532,7.2532,7.2532,7.2532,7.2532,7.2532,7.2532,7.2532,7.2532,7.2532,7.2532,7.2532,7.2532,7.2532,7.2532,7.2532,7.2532,7.2532,7.2532,7.2532,7.2532,7.2532,7.2532,7.2532,7.2532,7.2532,7.2532,7.2532,7.2532,7.2532,7.2532,7.2532,7.2532,7.2532,7.2532,7.2532,7.2532,7.2532,7.2532,7.2532,7.2532,7.2532,7.2532,7.2532,7.2532,7.2532,7.2532,7.2532,7.2532,7.2532,7.2532,7.2532,7.2532,7.2532,7.2532,7.2532,7.2532,7.2569,7.265,7.2746,7.2614,7.2481,7.2929,7.3392,7.3619,7.3839,7.436,7.4632,7.461,7.461,7.4683,7.4573,7.3913,7.3949,7.4463,7.4463,7.4243,7.4573,7.472,7.4793,7.472,7.4683,7.4463,7.4463,7.4683,7.4683,7.4522,7.4269,7.4165,7.4028,7.3536,7.2919,7.2297,7.4946,7.4933,7.4839,7.4731,7.4672,7.4533,7.4486,7.4415,7.4183,7.4111,7.4096,7.4052,7.4023,7.4037,7.4023,7.345,7.2569,7.2532,7.2532,7.2532,7.2532,7.2532,7.2532,7.2532,7.2532,7.2532,7.2532,7.2532,7.2532,7.2532,7.2532,7.2532,7.2532,7.2532,7.2532,7.2532,7.2532,7.2532,7.2532,7.2532,7.2569,7.2532,7.2532,7.2532,7.2532,7.2532,7.2532,7.2532,7.2532,7.2532,7.2532,7.2532,7.2532,7.2532,7.2532,7.2532,7.2532,7.2532,7.2532,7.2532,7.2532,7.2532,7.2532,7.2532,7.2532,7.2532,7.2532,7.2532,7.2532,7.2532,7.2532,7.2532,7.2532,7.2532,7.2532,7.2569,7.2532,7.2532,7.2679,7.3193,7.367,7.4023,7.3913,7.4023,7.4133,7.4404,7.4478,7.4625,7.4793,7.4903,7.4977,7.5014,7.5307,7.5579,7.5359,7.4903,7.4867,7.4867,7.483,7.4867,7.494,7.5087,7.5014,7.5124,7.516,7.516,7.5234,7.5197,7.5197,7.5124,7.5124,7.5234,7.4852,7.4232,7.3727,7.5774,7.5743,7.5648,7.5579,7.5509,7.5312,7.5263,7.5248,7.5051,7.4956,7.4941,7.4933,7.4903,7.4903,7.4903,7.4353,7.3303,7.3046,7.2899,7.2863,7.2642,7.2532,7.2532,7.2532,7.2532,7.2569,7.2789,7.301,7.3266,7.3266,7.3303,7.3303,7.3266,7.3252,7.3266,7.3252,7.3289,7.3266,7.3252,7.3303,7.3266,7.3266,7.3266,7.3252,7.3303,7.301,7.2569,7.2532,7.2532,7.2532,7.2532,7.2532,7.2532,7.2532,7.2532,7.2532,7.2532,7.2532,7.2532,7.2532,7.2532,7.2532,7.2532,7.2532,7.2532,7.2716,7.2863,7.2899,7.3156,7.3266,7.3266,7.3303,7.3142,7.301,7.312,7.3252,7.3303,7.3303,7.356,7.4037,7.45,7.4793,7.4903,7.4867,7.4977,7.5197,7.5285,7.5344,7.5601,7.5674,7.5674,7.5711,7.6151,7.6445,7.6371,7.6078,7.5931,7.5931,7.5784,7.5601,7.5491,7.5527,7.5527,7.5601,7.5637,7.5674,7.5674,7.5637,7.5637,7.5601,7.5858,7.6151,7.584,7.554,7.5043,7.578,7.5768,7.5643,7.5708,7.5656,7.5613,7.5502,7.5533,7.533,7.5316,7.536,7.5125,7.5197,7.505,7.5197,7.4977,7.4793,7.4184,7.378,7.3634,7.301,7.2716,7.2753,7.2789,7.2789,7.2789,7.3377,7.4074,7.4647,7.4647,7.4683,7.4793,7.4683,7.4573,7.4793,7.4647,7.4757,7.4683,7.4647,7.4757,7.4867,7.472,7.4647,7.472,7.472,7.4059,7.2716,7.2606,7.2606,7.2606,7.2532,7.2532,7.2532,7.2532,7.2532,7.2532,7.2532,7.2569,7.2569,7.2679,7.2789,7.2789,7.2642,7.2789,7.2936,7.334,7.3707,7.378,7.428,7.4757,7.472,7.4757,7.4515,7.3927,7.4221,7.461,7.472,7.483,7.4903,7.494,7.5087,7.494,7.4977,7.5197,7.5491,7.5931,7.6114,7.6298,7.6775,7.6885,7.7142,7.7142,7.7032,7.6995,7.7142,7.7289,7.7252,7.7179,7.6995,7.6848,7.6665,7.6628,7.6555,7.6592,7.6555,7.6592,7.6555,7.6555,7.6702,7.6738,7.6959,7.687,7.6646,7.6361,7.6259,7.7413,7.7273,7.7273,7.7188,7.703,7.6965,7.6906,7.6892,7.6706,7.6594,7.6579,7.657,7.6555,7.6555,7.6555,7.6518,7.6481,7.5711,7.5065,7.4551,7.4258,7.4096,7.4096,7.4133,7.4169,7.4169,7.439,7.4647,7.4867,7.494,7.4903,7.4903,7.494,7.4903,7.4977,7.4903,7.4903,7.4903,7.4903,7.4903,7.4903,7.4903,7.4903,7.4903,7.4903,7.461,7.4184,7.3634,7.334,7.3303,7.2789,7.2532,7.2532,7.2532,7.2532,7.2569,7.3046,7.3303,7.3413,7.3817,7.4059,7.4133,7.4096,7.4133,7.4169,7.4368,7.4551,7.4515,7.4757,7.4903,7.4977,7.5432,7.5359,7.4625,7.4757,7.4977,7.5087,7.5432,7.5689,7.5799,7.6188,7.6518,7.6518,7.6518,7.6518,7.6738,7.6848,7.7069,7.7215,7.7326,7.7289,7.7289,7.7326,7.7326,7.7326,7.7326,7.7326,7.7326,7.7326,7.7326,7.7326,7.7326,7.7326,7.7326,7.7326,7.7326,7.7326,7.7326,7.7326,7.7326,7.7179,7.7163,7.7258,7.7103,7.6829,7.8235,7.8099,7.8043,7.7928,7.7806,7.7643,7.7539,7.7478,7.7372,7.7326,7.7289,7.7289,7.7326,7.7326,7.7326,7.7326,7.7252,7.6738,7.6261,7.5711,7.505,7.4903,7.4903,7.4903,7.5087,7.5322,7.5359,7.5527,7.5784,7.5784,7.5784,7.5821,7.5784,7.5821,7.5784,7.5784,7.5784,7.5784,7.5821,7.5784,7.5784,7.5784,7.5784,7.5784,7.5784,7.5784,7.5747,7.5028,7.4441,7.4147,7.3619,7.3413,7.3399,7.3435,7.3413,7.3487,7.3817,7.4147,7.4184,7.4551,7.4903,7.4903,7.4903,7.4867,7.494,7.5087,7.5344,7.5344,7.5674,7.5784,7.5894,7.6188,7.6276,7.5894,7.5858,7.5784,7.5858,7.6225,7.6481,7.6628,7.6959,7.7252,7.7326,7.7326,7.7326,7.7326,7.7326,7.7326,7.7326,7.7326,7.7326,7.7326,7.7326,7.7326,7.7326,7.7326,7.7326,7.7326,7.7326,7.7326,7.7326,7.7326,7.7326,7.7326,7.7326,7.7326,7.7326,7.7326,7.7326,7.7326,7.7326,7.7273,7.7273,7.7273,7.7118,7.829,7.8248,7.8071,7.79,7.774,7.7614,7.7463,7.7304,7.7326,7.7326,7.7326,7.7326,7.7326,7.7326,7.7326,7.7326,7.7289,7.7252,7.7142,7.6738,7.5931,7.527,7.5307,7.5307,7.5637,7.6093,7.6166,7.6518,7.6995,7.7032,7.7326,7.7105,7.7032,7.7252,7.7069,7.7252,7.7105,7.7069,7.7142,7.7142,7.7142,7.7179,7.7179,7.7142,7.7142,7.7105,7.6959,7.6371,7.5689,7.5014,7.472,7.4647,7.4793,7.4903,7.472,7.4683,7.4903,7.4955,7.4977,7.5197,7.527,7.5307,7.5307,7.5014,7.5307,7.5836,7.6166,7.6203,7.6702,7.7142,7.7142,7.7179,7.7179,7.7252,7.7032,7.7032,7.7252,7.7215,7.7142,7.7215,7.7289,7.7326,7.7326,7.7326,7.7326,7.7326,7.7326,7.7326,7.7326,7.7326,7.7326,7.7326,7.7326,7.7326,7.7326,7.7326,7.7326,7.7326,7.7326,7.7326,7.7326,7.7326,7.7326,7.7326,7.7326,7.7326,7.7326,7.7326,7.7326,7.7326,7.7326,7.7326,7.7326,7.7326,7.7384,7.8221,7.8057,7.79,7.7791,7.7628,7.7463,7.7372,7.7289,7.7326,7.7326,7.7326,7.7326,7.7326,7.7326,7.7326,7.7326,7.7326,7.7326,7.7326,7.7252,7.6959,7.6702,7.6665,7.6665,7.6738,7.6922,7.6922,7.7105,7.7289,7.7326,7.7326,7.7326,7.7326,7.7326,7.7326,7.7326,7.7326,7.7326,7.7326,7.7326,7.7326,7.7326,7.7326,7.7326,7.7326,7.7326,7.7326,7.7105,7.6298,7.5014,7.4903,7.4903,7.4977,7.5014,7.505,7.5087,7.5506,7.5763,7.5894,7.6298,7.6592,7.6665,7.6518,7.6665,7.6665,7.6848,7.6995,7.7032,7.7252,7.7326,7.7326,7.7326,7.7326,7.7326,7.7326,7.7326,7.7326,7.7326,7.7326,7.7326,7.7326,7.7326,7.7326,7.7326,7.7326,7.7326,7.7326,7.7326,7.7326,7.7326,7.7326,7.7326,7.7326,7.7326,7.7326,7.7326,7.7326,7.7326,7.7326,7.7326,7.7326,7.7326,7.7326,7.7326,7.7326,7.7326,7.7326,7.7326,7.7326,7.7582,7.7582,7.7729,7.7472,7.7399,7.7509,7.8057,7.7914,7.7813,7.7718,7.7605,7.7478,7.7387,7.7326,7.7326,7.7326,7.7326,7.7326,7.7326,7.7326,7.7326,7.7326,7.7326,7.7326,7.7326,7.7326,7.7252,7.7252,7.7289,7.7289,7.7326,7.7326,7.7326,7.7289,7.7326,7.7326,7.7326,7.7326,7.7326,7.7326,7.7326,7.7326,7.7326,7.7326,7.7326,7.7326,7.7326,7.7326,7.7326,7.7326,7.7326,7.7326,7.7326,7.7289,7.6812,7.6114,7.5931,7.5894,7.5931,7.5894,7.5894,7.5931,7.6387,7.6592,7.6665,7.7069,7.7289,7.7289,7.7326,7.7326,7.7252,7.7326,7.7326,7.7289,7.7326,7.7326,7.7326,7.7326,7.7326,7.7326,7.7326,7.7326,7.7326,7.7326,7.7326,7.7326,7.7326,7.7326,7.7326,7.7326,7.7326,7.7326,7.7326,7.7326,7.7326,7.7326,7.7326,7.7326,7.7326,7.7326,7.7326,7.7326,7.7326,7.7326,7.7326,7.7326,7.7399,7.7399,7.7362,7.7362,7.7326,7.7436,7.7656,7.7913,7.8185,7.8369,7.8259,7.8295,7.8222,7.7986,7.8023,7.7914,7.7783,7.7806,7.7718,7.762,7.759,7.7448,7.7304,7.7326,7.7326,7.7326,7.7326,7.7326,7.7326,7.7326,7.7326,7.7326,7.7326,7.7326,7.7326,7.7326,7.7326,7.7326,7.7326,7.7326,7.7326,7.7326,7.7326,7.7326,7.7326,7.7326,7.7326,7.7326,7.7326,7.7326,7.7326,7.7326,7.7326,7.7326,7.7326,7.7326,7.7326,7.7326,7.7326,7.7326,7.7326,7.7326,7.7326,7.7215,7.7289,7.7326,7.7142,7.7179,7.7252,7.7215,7.7142,7.7105,7.7215,7.7252,7.7252,7.7326,7.7326,7.7326,7.7326,7.7326,7.7326,7.7326,7.7326,7.7326,7.7326,7.7326,7.7326,7.7326,7.7326,7.7326,7.7326,7.7326,7.7326,7.7326,7.7326,7.7326,7.7326,7.7326,7.7326,7.7326,7.7326,7.7326,7.7326,7.7326,7.7326,7.7326,7.7326,7.7326,7.7326,7.7326,7.7326,7.7326,7.7326,7.7326,7.7362,7.7582,7.7619,7.7509,7.7509,7.7729,7.8185,7.8626,7.8883,7.9066,7.914,7.9066,7.9376,7.9633,7.9229,7.9066,7.7813,7.7769,7.7688,7.7614,7.759,7.7433,7.7356,7.7326,7.7326,7.7326,7.7326,7.7326,7.7326,7.7326,7.7326,7.7326,7.7326,7.7326,7.7326,7.7326,7.7326,7.7326,7.7326,7.7326,7.7326,7.7326,7.7326,7.7326,7.7326,7.7326,7.7326,7.7326,7.7326,7.7326,7.7326,7.7326,7.7326,7.7326,7.7326,7.7326,7.7326,7.7326,7.7326,7.7326,7.7326,7.7326,7.7326,7.7326,7.7326,7.7326,7.7326,7.7326,7.7326,7.7326,7.7326,7.7326,7.7326,7.7326,7.7326,7.7326,7.7326,7.7326,7.7326,7.7326,7.7326,7.7326,7.7326,7.7326,7.7326,7.7326,7.7326,7.7326,7.7326,7.7326,7.7326,7.7326,7.7326,7.7326,7.7326,7.7326,7.7326,7.7326,7.7326,7.7326,7.7326,7.7326,7.7326,7.7326,7.7326,7.7326,7.7326,7.7326,7.7326,7.7326,7.7326,7.7362,7.7436,7.7546,7.7582,7.7803,7.806,7.806,7.806,7.8185,7.8332,7.8825,7.9412,7.9596,7.9727,7.9816,7.9963,8.0147,8.0257,8.0073,8.0147,7.7621,7.7584,7.7493,7.7463,7.7448,7.7356,7.7326,7.7326,7.7326,7.7326,7.7326,7.7326,7.7326,7.7326,7.7326,7.7326,7.7326,7.7326,7.7326,7.7326,7.7326,7.7326,7.7326,7.7326,7.7326,7.7326,7.7326,7.7326,7.7326,7.7326,7.7326,7.7326,7.7326,7.7326,7.7326,7.7326,7.7326,7.7326,7.7326,7.7326,7.7326,7.7326,7.7326,7.7326,7.7326,7.7326,7.7326,7.7326,7.7326,7.7326,7.7326,7.7326,7.7326,7.7326,7.7326,7.7326,7.7326,7.7326,7.7326,7.7326,7.7326,7.7326,7.7326,7.7326,7.7326,7.7326,7.7326,7.7326,7.7326,7.7326,7.7326,7.7326,7.7326,7.7326,7.7326,7.7326,7.7326,7.7326,7.7326,7.7326,7.7326,7.7326,7.7326,7.7326,7.7326,7.7326,7.7326,7.7326,7.7326,7.7326,7.7326,7.7326,7.7326,7.7326,7.7326,7.7399,7.7619,7.7839,7.8112,7.8516,7.8956,7.8883,7.8736,7.8919,7.9176,7.9617,8.0094,8.0241,8.0534,8.0938,8.1138,8.0975,8.0938,8.1101,8.1175,7.7448,7.7326,7.7326,7.7326,7.7326,7.7326,7.7326,7.7326,7.7326,7.7326,7.7326,7.7326,7.7326,7.7326,7.7326,7.7326,7.7326,7.7326,7.7326,7.7326,7.7326,7.7326,7.7326,7.7326,7.7326,7.7326,7.7326,7.7326,7.7326,7.7326,7.7326,7.7326,7.7326,7.7326,7.7326,7.7326,7.7326,7.7326,7.7326,7.7326,7.7326,7.7326,7.7326,7.7326,7.7326,7.7326,7.7326,7.7326,7.7326,7.7326,7.7326,7.7326,7.7326,7.7326,7.7326,7.7326,7.7326,7.7326,7.7326,7.7326,7.7326,7.7326,7.7326,7.7326,7.7326,7.7326,7.7326,7.7326,7.7326,7.7326,7.7326,7.7326,7.7326,7.7326,7.7326,7.7326,7.7326,7.7326,7.7326,7.7326,7.7326,7.7326,7.7326,7.7326,7.7326,7.7326,7.7326,7.7326,7.7326,7.7326,7.7326,7.7326,7.7326,7.7656,7.7729,7.7876,7.8023,7.8479,7.8772,7.925,7.9779,7.98,7.9727,7.9837,8.011,8.0498,8.0828,8.1085,8.1489,8.2076,8.2039,8.1672,8.1782,8.215,8.2039,7.7341,7.7326,7.7326,7.7326,7.7326,7.7326,7.7326,7.7326,7.7326,7.7326,7.7326,7.7289,7.7289,7.732,7.7289,7.7304,7.7441,7.7441,7.7396,7.7396,7.735,7.7289,7.7396,7.7411,7.7335,7.7326,7.7381,7.7441,7.7289,7.7326,7.7326,7.7326,7.7326,7.7326,7.7326,7.7326,7.7326,7.7326,7.7326,7.7326,7.7326,7.7326,7.7326,7.7326,7.7326,7.7326,7.7326,7.7326,7.7326,7.7326,7.7326,7.7326,7.7326,7.7326,7.7326,7.7326,7.7326,7.7326,7.7326,7.7326,7.7326,7.7326,7.7326,7.7326,7.7326,7.7326,7.7326,7.7326,7.7326,7.7326,7.7326,7.7326,7.7326,7.7326,7.7326,7.7326,7.7326,7.7326,7.7326,7.7326,7.7326,7.7326,7.7326,7.7326,7.7326,7.7326,7.7326,7.7326,7.7326,7.7326,7.7326,7.7326,7.7326,7.7803,7.8295,7.8442,7.8662,7.9286,7.9653,8.0021,8.0461,8.0681,8.0791,8.0791,8.0865,8.1122,8.1489,8.1782,8.1966,8.215,8.2186,8.2186,8.2186,8.2186,8.2186,7.7326,7.7326,7.7326,7.7326,7.7326,7.7326,7.7326,7.7326,7.7326,7.7326,7.7326,7.7289,7.745,7.7636,7.771,7.7832,7.8016,7.7774,7.7875,7.7988,7.7629,7.748,7.7666,7.771,7.751,7.7555,7.7797,7.7768,7.735,7.7326,7.732,7.7326,7.7326,7.7326,7.7326,7.7326,7.7326,7.7326,7.7326,7.7326,7.7326,7.7326,7.7326,7.7326,7.7326,7.7326,7.7326,7.7326,7.7326,7.7326,7.7326,7.7326,7.7326,7.7326,7.7326,7.7326,7.7326,7.7326,7.7326,7.7326,7.7326,7.7326,7.7326,7.7326,7.7326,7.7326,7.7326,7.7326,7.7326,7.7326,7.7326,7.7326,7.7326,7.7326,7.7326,7.7326,7.7326,7.7326,7.7326,7.7326,7.7326,7.7326,7.7326,7.7326,7.7326,7.7326,7.7326,7.7326,7.7326,7.7326,7.7326,7.7546,7.7656,7.8369,7.8919,7.9176,7.9507,8.0094,8.0477,8.0828,8.1122,8.1379,8.1525,8.1599,8.1746,8.1709,8.1856,8.2039,8.2113,8.2186,8.2186,8.2186,8.2186,8.2186,8.2186,7.7546,7.7582,7.7729,7.7803,7.7803,7.7803,7.7895,7.795,7.8032,7.8189,7.8138,7.8234,7.851,7.8657,7.8658,7.8695,7.8891,7.8379,7.8484,7.86,7.8128,7.7903,7.8169,7.8214,7.8114,7.7974,7.8349,7.8349,7.751,7.7487,7.7465,7.7525,7.748,7.745,7.7495,7.7555,7.7457,7.7326,7.7326,7.7326,7.7326,7.7326,7.7326,7.7326,7.7326,7.7326,7.7326,7.7326,7.7326,7.7326,7.7326,7.7326,7.7326,7.7326,7.7326,7.7326,7.7326,7.7326,7.7326,7.7326,7.7326,7.7326,7.7326,7.7326,7.7326,7.7326,7.7326,7.7326,7.7326,7.7326,7.7326,7.7326,7.7326,7.7326,7.7326,7.7326,7.7326,7.7326,7.7326,7.7326,7.7326,7.7326,7.7326,7.7326,7.7326,7.7326,7.7326,7.7326,7.7326,7.7326,7.7399,7.7766,7.8222,7.8993,7.9543,7.9984,8.0424,8.1048,8.1269,8.1452,8.1746,8.2039,8.2076,8.2003,8.2039,8.2003,8.215,8.2186,8.2186,8.2186,8.2186,8.2186,8.2186,8.2186,8.2186,7.8442,7.8516,7.9176,7.9522,7.9449,7.9412,7.9716,8.0073,8.0013,8.0484,8.0504,8.0788,8.0713,8.0705,8.0217,7.9604,7.9204,7.9004,7.9053,7.9213,7.8791,7.8601,7.8791,7.8804,7.8703,7.8575,7.8829,7.8268,7.7768,7.7883,7.8002,7.8016,7.8016,7.8016,7.8016,7.7917,7.7768,7.7411,7.7304,7.7326,7.7326,7.7326,7.7326,7.7326,7.7326,7.7326,7.7326,7.7326,7.7326,7.7326,7.7326,7.7326,7.7326,7.7326,7.7326,7.7326,7.7326,7.7326,7.7326,7.7326,7.7326,7.7326,7.7326,7.7326,7.7326,7.7326,7.7326,7.7326,7.7326,7.7326,7.7326,7.7326,7.7326,7.7326,7.7326,7.7326,7.7326,7.7326,7.7326,7.7326,7.7326,7.7326,7.7326,7.7326,7.7326,7.7326,7.7326,7.7326,7.7326,7.7326,7.7839,7.8369,7.8736,7.947,8.0388,8.0791,8.1085,8.1782,8.1856,8.1929,8.2039,8.2186,8.2186,8.215,8.2186,8.2186,8.2186,8.2186,8.2186,8.2186,8.2186,8.2186,8.2186,8.2186,8.2186,7.969,7.9302,7.9669,7.9816,7.9816,7.9816,7.99,8.0169,8.0465,8.0712,8.0963,8.1292,8.1557,8.1797,8.1721,8.161,8.1089,8.0413,8.0306,8.0057,7.9564,7.9123,7.9311,7.9335,7.9239,7.9133,7.9343,7.9262,7.8614,7.8403,7.8536,7.8536,7.8536,7.8574,7.8534,7.8255,7.8016,7.7724,7.748,7.7304,7.7326,7.7326,7.7326,7.7326,7.7326,7.7326,7.7326,7.7326,7.7326,7.7326,7.7326,7.7326,7.7326,7.7326,7.7326,7.7326,7.7326,7.7326,7.7326,7.7326,7.7326,7.7326,7.7326,7.7326,7.7326,7.7326,7.7326,7.7326,7.7326,7.7326,7.7326,7.7326,7.7326,7.7326,7.7326,7.7326,7.7326,7.7326,7.7326,7.7326,7.7326,7.7326,7.7326,7.7326,7.7326,7.7326,7.7326,7.7326,7.7326,7.7326,7.8096,7.9176,7.9507,7.991,8.0938,8.1672,8.1599,8.2039,8.2039,8.2076,8.2113,8.2186,8.2186,8.2186,8.2186,8.2186,8.2186,8.2186,8.2186,8.2186,8.2186,8.2186,8.2186,8.2186,8.2186,8.0755,8.0404,8.0404,8.0404,8.0404,8.0404,8.0603,8.0933,8.1334,8.1622,8.1891,8.2346,8.2649,8.2727,8.3069,8.3016,8.2827,8.1946,8.1665,8.1174,8.0509,7.987,7.987,7.9847,7.9719,7.9274,8.001,7.991,7.955,7.9285,7.9274,7.9109,7.9085,7.9123,7.8989,7.8766,7.8495,7.8016,7.754,7.732,7.7326,7.7326,7.7326,7.7326,7.7326,7.7326,7.7326,7.7326,7.7326,7.7326,7.7326,7.7326,7.7326,7.7326,7.7326,7.7326,7.7326,7.7326,7.7326,7.7326,7.7326,7.7326,7.7326,7.7326,7.7326,7.7326,7.7326,7.7326,7.7326,7.7326,7.7326,7.7326,7.7326,7.7326,7.7326,7.7326,7.7326,7.7326,7.7326,7.7326,7.7326,7.7326,7.7326,7.7326,7.7326,7.7326,7.7326,7.7326,7.7362,7.7399,7.8369,7.9486,8.0094,8.0498,8.1379,8.2113,8.2186,8.2186,8.2186,8.2186,8.2186,8.2186,8.2186,8.2186,8.2186,8.2186,8.2186,8.2186,8.2186,8.2186,8.2186,8.2186,8.2186,8.2186,8.2186,8.1415,8.2056,8.2003,8.1929,8.1929,8.2003,8.2562,8.3161,8.3453,8.4013,8.4616,8.5016,8.45,8.4268,8.4077,8.383,8.3104,8.2932,8.254,8.2072,8.1585,8.0992,8.0688,8.0449,8.0354,8.0258,8.0487,8.0402,8.0344,8.0091,7.9968,7.9708,7.9538,7.9621,7.9471,7.9194,7.869,7.8146,7.7585,7.7304,7.7326,7.7326,7.7326,7.7326,7.7326,7.7326,7.7326,7.7326,7.7326,7.7326,7.7326,7.7326,7.7326,7.7326,7.7326,7.7326,7.7326,7.7326,7.7326,7.7326,7.7326,7.7326,7.7326,7.7326,7.7326,7.7326,7.7326,7.7326,7.7326,7.7326,7.7326,7.7326,7.7326,7.7326,7.7326,7.7326,7.7326,7.7326,7.7326,7.7326,7.7326,7.7326,7.7326,7.7326,7.7326,7.7326,7.7326,7.7326,7.7582,7.7766,7.8662,7.9617,8.0424,8.1085,8.1819,8.2186,8.2186,8.2186,8.2186,8.2186,8.2186,8.2186,8.2186,8.2186,8.2186,8.2186,8.2186,8.2186,8.2186,8.2186,8.2186,8.2186,8.2186,8.2186,8.2186,8.1893,8.2186,8.2186,8.2186,8.2186,8.2186,8.2616,8.334,8.3752,8.4536,8.5511,8.5511,8.5358,8.5091,8.5015,8.49,8.448,8.3983,8.3601,8.299,8.2378,8.169,8.1194,8.0812,8.0506,8.0506,8.0506,8.0506,8.0487,8.0506,8.0421,8.0169,7.9836,7.9719,7.961,7.9159,7.8523,7.8173,7.7607,7.7289,7.7326,7.7326,7.7326,7.7326,7.7326,7.7326,7.7326,7.7326,7.7326,7.7326,7.7326,7.7326,7.7326,7.7326,7.7326,7.7326,7.7326,7.7326,7.7326,7.7326,7.7326,7.7326,7.7326,7.7326,7.7326,7.7326,7.7326,7.7326,7.7326,7.7326,7.7326,7.7326,7.7326,7.7326,7.7326,7.7326,7.7326,7.7326,7.7326,7.7326,7.7326,7.7326,7.7326,7.7326,7.7326,7.7326,7.7326,7.7399,7.7693,7.8185,7.9066,7.9874,8.0718,8.1342,8.2039,8.215,8.2186,8.2186,8.2186,8.2186,8.2186,8.2186,8.2186,8.2186,8.2186,8.2186,8.2186,8.2186,8.2186,8.2186,8.2186,8.2186,8.2186,8.2186,8.2186,8.2186,8.2186,8.2186,8.2186,8.2186,8.2186,8.2622,8.3269,8.3726,8.4498,8.5491,8.5511,8.5511,8.5511,8.5511,8.5473,8.5244,8.4862,8.4518,8.3945,8.3181,8.2302,8.1729,8.1232,8.085,8.0621,8.0506,8.0506,8.0506,8.0506,8.0487,8.0325,7.9989,7.9751,7.9449,7.869,7.8173,7.8159,7.7666,7.7304,7.7326,7.7326,7.7326,7.7326,7.7326,7.7326,7.7326,7.7326,7.7326,7.7326,7.7326,7.7326,7.7326,7.7326,7.7326,7.7326,7.7326,7.7326,7.7326,7.7326,7.7326,7.7326,7.7326,7.7326,7.7326,7.7326,7.7326,7.7326,7.7326,7.7326,7.7326,7.7326,7.7326,7.7326,7.7326,7.7326,7.7326,7.7326,7.7326,7.7326,7.7326,7.7326,7.7326,7.7326,7.7326,7.7326,7.7326,7.7546,7.8112,7.8662,7.9433,8.0241,8.1012,8.1599,8.2092,8.215,8.2186,8.2186,8.2186,8.2186,8.2186,8.2186,8.2186,8.2186,8.2186,8.2186,8.2186,8.2186,8.2186,8.2186,8.2186,8.2186,8.2186,8.2186,8.2186,8.2186,8.2186,8.2186,8.2203,8.2251,8.2203,8.283,8.3752,8.4002,8.4569,8.5471,8.5511,8.5511,8.5511,8.5511,8.5511,8.5511,8.5397,8.5053,8.4441,8.3983,8.3142,8.2302,8.1652,8.1156,8.0659,8.0506,8.0506,8.0506,8.0506,8.0506,8.0354,7.9989,7.9697,7.961,7.8677,7.8429,7.8639,7.7826,7.7465,7.7326,7.7326,7.7326,7.7326,7.7326,7.7326,7.7326,7.7326,7.7326,7.7326,7.7326,7.7326,7.7326,7.7326,7.7326,7.7326,7.7326,7.7326,7.7326,7.7326,7.7326,7.7326,7.7326,7.7326,7.7326,7.7326,7.7326,7.7326,7.7326,7.7326,7.7326,7.7326,7.7326,7.7326,7.7326,7.7326,7.7326,7.7326,7.7326,7.7326,7.7326,7.7326,7.7326,7.7326,7.7326,7.7326,7.7326,7.7693,7.8332,7.9213,8.0021,8.0534,8.1305,8.1746,8.215,8.215,8.2186,8.2186,8.2186,8.2186,8.2186,8.2186,8.2186,8.2186,8.2186,8.2186,8.2186,8.2186,8.2186,8.2186,8.2186,8.2186,8.2186,8.2186,8.2186,8.2186,8.2186,8.2186,8.2423,8.2708,8.2739,8.3169,8.395,8.4604,8.5158,8.5413,8.5511,8.5511,8.5511,8.5511,8.5511,8.5511,8.5511,8.5206,8.5053,8.4594,8.3677,8.276,8.2034,8.1423,8.0735,8.0506,8.0506,8.0506,8.0506,8.0506,8.0373,7.9999,7.973,7.9516,7.8977,7.8766,7.8754,7.8187,7.768,7.735,7.7326,7.7326,7.7326,7.7326,7.7326,7.7326,7.7326,7.7326,7.7326,7.7326,7.7326,7.7326,7.7326,7.7326,7.7326,7.7326,7.7326,7.7326,7.7326,7.7326,7.7326,7.7326,7.7326,7.7326,7.7326,7.7326,7.7326,7.7326,7.7326,7.7326,7.7326,7.7326,7.7326,7.7326,7.7326,7.7326,7.7326,7.7326,7.7326,7.7326,7.7326,7.7326,7.7362,7.7362,7.7729,7.7839,7.8096,7.8626,7.9764,8.0718,8.0975,8.1489,8.1893,8.2186,8.2186,8.2186,8.2186,8.2186,8.2186,8.2186,8.2186,8.2186,8.2186,8.2186,8.2186,8.2186,8.2186,8.2186,8.2186,8.2186,8.2186,8.2186,8.2186,8.2186,8.2186,8.2219,8.2407,8.2662,8.2987,8.3017,8.3401,8.4242,8.5105,8.5511,8.5511,8.5511,8.5511,8.5511,8.5511,8.5511,8.5511,8.5511,8.5511,8.5435,8.5015,8.425,8.3448,8.2579,8.1881,8.1079,8.0621,8.0506,8.0506,8.0506,8.0506,8.0373,7.9979,7.9751,7.9471,7.9037,7.8536,7.8416,7.796,7.7599,7.7365,7.7326,7.7326,7.7326,7.7326,7.7326,7.7326,7.7326,7.7326,7.7326,7.7326,7.7326,7.7326,7.7326,7.7326,7.7326,7.7326,7.7326,7.7326,7.7326,7.7326,7.7326,7.7326,7.7326,7.7326,7.7326,7.7326,7.7326,7.7326,7.7326,7.7326,7.7326,7.7326,7.7326,7.7326,7.7326,7.7326,7.7326,7.7326,7.7326,7.7326,7.7326,7.7326,7.7399,7.7436,7.7949,7.8442,7.8736,7.9066,8.0167,8.1195,8.1489,8.1672,8.2003,8.2186,8.2186,8.2186,8.2186,8.2186,8.2186,8.2186,8.2186,8.2186,8.2186,8.2186,8.2186,8.2186,8.2186,8.2186,8.2186,8.2186,8.2186,8.2186,8.2186,8.2186,8.2166,8.2316,8.28,8.3046,8.3068,8.3255,8.3808,8.4757,8.5242,8.5511,8.5511,8.5511,8.5511,8.5511,8.5511,8.5511,8.5511,8.5511,8.5511,8.5511,8.532,8.4785,8.4098,8.3267,8.234,8.1614,8.1041,8.0506,8.0506,8.0506,8.0506,8.0335,7.9927,7.9621,7.9218,7.8741,7.8268,7.8104,7.7889,7.7555,7.735,7.7326,7.7326,7.7326,7.7326,7.7326,7.7326,7.7326,7.7326,7.7326,7.7326,7.7326,7.7326,7.7326,7.7326,7.7326,7.7326,7.7326,7.7326,7.7326,7.7326,7.7326,7.7326,7.7326,7.7326,7.7326,7.7326,7.7326,7.7326,7.7326,7.7326,7.7326,7.7326,7.7326,7.7326,7.7326,7.7326,7.7326,7.7326,7.7326,7.7326,7.7326,7.7362,7.7436,7.7803,7.8353,7.8993,7.9617,7.9984,8.0571,8.1452,8.1893,8.2039,8.2113,8.2186,8.2186,8.2186,8.2186,8.2186,8.2186,8.2186,8.2186,8.2186,8.2186,8.2186,8.2186,8.2186,8.2186,8.2186,8.2186,8.2186,8.2186,8.2186,8.2186,8.2186,8.1887,8.2763,8.2943,8.3457,8.4242,8.4615,8.498,8.5301,8.5471,8.5511,8.5511,8.5511,8.5511,8.5511,8.5511,8.5511,8.5511,8.5511,8.5511,8.5511,8.5511,8.4938,8.425,8.3458,8.2569,8.1767,8.1079,8.0506,8.0506,8.0506,8.0209,7.9927,7.9675,7.9277,7.8728,7.8255,7.8104,7.8016,7.7811,7.7599,7.7365,7.7326,7.7326,7.7326,7.7326,7.7326,7.7326,7.7326,7.7326,7.7326,7.7326,7.7326,7.7326,7.7326,7.7326,7.7326,7.7326,7.7326,7.7326,7.7326,7.7326,7.7326,7.7326,7.7326,7.7326,7.7326,7.7326,7.7326,7.7326,7.7326,7.7326,7.7326,7.7326,7.7326,7.7326,7.7326,7.7326,7.7326,7.7326,7.7326,7.7326,7.7436,7.7472,7.7876,7.8332,7.8883,7.9507,8.0204,8.0791,8.1305,8.1636,8.2076,8.2186,8.2186,8.2186,8.2186,8.2186,8.2186,8.2186,8.2186,8.2186,8.2186,8.2186,8.2186,8.2186,8.2186,8.2186,8.2186,8.2186,8.2186,8.2186,8.2186,8.2186,8.2186,8.2186,8.2303,8.3331,8.358,8.4192,8.5007,8.5352,8.5511,8.5511,8.5511,8.5511,8.5511,8.5511,8.5511,8.5511,8.5511,8.5511,8.5511,8.5511,8.5511,8.5511,8.5511,8.5244,8.4556,8.3649,8.2846,8.2006,8.1194,8.0506,8.044,8.0219,7.9958,7.9719,7.9403,7.8766,7.8228,7.7917,7.7782,7.7753,7.7695,7.7585,7.7441,7.7326,7.7326,7.7326,7.7326,7.7326,7.7326,7.7326,7.7326,7.7326,7.7326,7.7326,7.7326,7.7326,7.7326,7.7326,7.7326,7.7326,7.7326,7.7326,7.7326,7.7326,7.7326,7.7326,7.7326,7.7326,7.7326,7.7326,7.7326,7.7326,7.7326,7.7326,7.7326,7.7326,7.7326,7.7326,7.7326,7.7326,7.7326,7.7326,7.7399,7.7546,7.7839,7.8332,7.8993,7.9727,8.0314,8.0828,8.1342,8.1746,8.1929,8.215,8.2186,8.2186,8.2186,8.2186,8.2186,8.2186,8.2186,8.2186,8.2186,8.2186,8.2186,8.2186,8.2186,8.2186,8.2186,8.2186,8.2186,8.2186,8.2186,8.2186,8.2186,8.2186,8.2186,8.3059,8.4015,8.4559,8.498,8.5471,8.5501,8.5511,8.5511,8.5511,8.5511,8.5511,8.5511,8.5511,8.5511,8.5511,8.5511,8.5511,8.5511,8.5511,8.5511,8.5511,8.5397,8.4938,8.3983,8.3228,8.2502,8.1652,8.0773,8.0411,8.0189,7.9948,7.9594,7.8829,7.8241,7.7917,7.7563,7.745,7.7487,7.7457,7.7365,7.7335,7.7326,7.7326,7.7326,7.7326,7.7326,7.7326,7.7326,7.7326,7.7326,7.7326,7.7326,7.7326,7.7326,7.7326,7.7326,7.7326,7.7326,7.7326,7.7326,7.7326,7.7326,7.7326,7.7326,7.7326,7.7326,7.7326,7.7326,7.7326,7.7326,7.7326,7.7326,7.7326,7.7326,7.7326,7.7326,7.7326,7.7326,7.7326,7.7399,7.7693,7.7876,7.8316,7.8809,7.969,8.0571,8.1158,8.1525,8.1746,8.2076,8.215,8.2186,8.2186,8.2186,8.2186,8.2186,8.2186,8.2186,8.2186,8.2186,8.2186,8.2186,8.2186,8.2186,8.2186,8.2186,8.2186,8.2186,8.2186,8.2186,8.2186,8.2186,8.2186,8.2186,8.2186,8.2786,8.4545,8.5094,8.5383,8.5501,8.5511,8.5511,8.5511,8.5511,8.5511,8.5511,8.5511,8.5511,8.5511,8.5511,8.5511,8.5511,8.5511,8.5511,8.5511,8.5511,8.5511,8.5358,8.4403,8.3649,8.2846,8.1996,8.1003,8.0526,8.0228,7.9815,7.9157,7.8588,7.8295,7.7614,7.7289,7.7289,7.7326,7.7326,7.7326,7.7326,7.7326,7.7326,7.7326,7.7326,7.7326,7.7326,7.7326,7.7326,7.7326,7.7326,7.7326,7.7326,7.7326,7.7326,7.7326,7.7326,7.7326,7.7326,7.7326,7.7326,7.7326,7.7326,7.7326,7.7326,7.7326,7.7326,7.7326,7.7326,7.7326,7.7326,7.7326,7.7326,7.7326,7.7326,7.7326,7.7326,7.7326,7.7326,7.7582,7.7876,7.8332,7.8772,7.9507,8.0388,8.1085,8.1672,8.2003,8.1966,8.215,8.215,8.2186,8.2186,8.2186,8.2186,8.2186,8.2186,8.2186,8.2186,8.2186,8.2186,8.2186,8.2186,8.2186,8.2186,8.2186,8.2186,8.2186,8.2186,8.2186,8.2186,8.2186,8.2186,8.2186,8.2186,8.3057,8.4561,8.521,8.5511,8.5511,8.5511,8.5511,8.5511,8.5511,8.5511,8.5511,8.5511,8.5511,8.5511,8.5511,8.5511,8.5511,8.5511,8.5511,8.5511,8.5511,8.5511,8.5167,8.4709,8.3802,8.2961,8.1767,8.084,8.0525,8.0139,7.9654,7.8964,7.869,7.8187,7.7396,7.7326,7.7326,7.7326,7.7326,7.7326,7.7326,7.7326,7.7326,7.7326,7.7326,7.7326,7.7326,7.7326,7.7326,7.7326,7.7326,7.7326,7.7326,7.7326,7.7326,7.7326,7.7326,7.7326,7.7326,7.7326,7.7326,7.7326,7.7326,7.7326,7.7326,7.7326,7.7326,7.7326,7.7326,7.7326,7.7326,7.7326,7.7326,7.7326,7.7326,7.7326,7.7326,7.7326,7.7326,7.7399,7.7913,7.8699,7.925,8.0021,8.0865,8.1562,8.2113,8.215,8.2186,8.2186,8.2186,8.2186,8.2186,8.2186,8.2186,8.2186,8.2186,8.2186,8.2186,8.2186,8.2186,8.2186,8.2186,8.2186,8.2186,8.2186,8.2186,8.2186,8.2186,8.2186,8.2186,8.2186,8.2186,8.215,8.2076,8.339,8.4327,8.5158,8.5511,8.5511,8.5511,8.5511,8.5511,8.5511,8.5511,8.5511,8.5511,8.5511,8.5511,8.5511,8.5511,8.5511,8.5511,8.5511,8.5511,8.5511,8.5511,8.5282,8.4824,8.3983,8.277,8.1423,8.0888,8.0497,8.0159,7.9708,7.8964,7.8392,7.7903,7.7465,7.7326,7.7326,7.7326,7.7326,7.7326,7.7326,7.7326,7.7326,7.7326,7.7326,7.7326,7.7326,7.7326,7.7326,7.7326,7.7326,7.7326,7.7326,7.7326,7.7326,7.7326,7.7326,7.7326,7.7326,7.7326,7.7326,7.7326,7.7326,7.7326,7.7326,7.7326,7.7326,7.7326,7.7326,7.7326,7.7326,7.7326,7.7326,7.7326,7.7326,7.7326,7.7326,7.7326,7.7326,7.7362,7.8148,7.9008,7.9706,8.0498,8.1305,8.1966,8.2186,8.2186,8.2186,8.2186,8.2186,8.2186,8.2186,8.2186,8.2186,8.2186,8.2186,8.2186,8.2186,8.2186,8.2186,8.2186,8.2186,8.2186,8.2186,8.2186,8.2186,8.2186,8.2186,8.2186,8.2186,8.2186,8.2076,8.2039,8.1929,8.2913,8.4365,8.5167,8.5511,8.5511,8.5511,8.5511,8.5511,8.5511,8.5511,8.5511,8.5511,8.5511,8.5511,8.5511,8.5511,8.5511,8.5511,8.5511,8.5511,8.5511,8.5511,8.532,8.4824,8.4212,8.2913,8.1471,8.0659,8.0468,8.0277,7.9815,7.8928,7.8829,7.8241,7.7426,7.7326,7.7326,7.7326,7.7326,7.7326,7.7326,7.7326,7.7326,7.7326,7.7326,7.7326,7.7326,7.7326,7.7326,7.7326,7.7326,7.7326,7.7326,7.7326,7.7326,7.7326,7.7326,7.7326,7.7326,7.7326,7.7326,7.7326,7.7326,7.7326,7.7326,7.7326,7.7326,7.7326,7.7326,7.7326,7.7326,7.7326,7.7326,7.7326,7.7326,7.7326,7.7326,7.7326,7.7326,7.7803,7.8589,7.9192,7.9706,8.0645,8.1746,8.2186,8.2186,8.2186,8.2186,8.2186,8.2186,8.2186,8.2186,8.2186,8.2186,8.2186,8.2186,8.2186,8.2186,8.2186,8.2186,8.2186,8.2186,8.2186,8.2186,8.2186,8.2186,8.2186,8.2186,8.2186,8.2186,8.215,8.2003,8.1672,8.1342]}]]